GFSNGP_700_spd_000.txt.gz
Wind_Speed
7 6 9 12 17 20 24 29 25 36 30 35 32 30 30 31 35 36 38 38 37 36 33 31 35 34 36 37 38 41 44 45 47 46 44 43 43 42 41 41 40 40 41 41
12 10 12 19 25 27 29 33 37 37 41 17 23 24 25 28 33 37 36 38 37 36 35 37 37 39 40 40 43 45 47 48 48 48 49 50 49 49 50 49 47 45 43 42
5 5 9 19 7 9 12 15 21 28 22 19 21 27 30 34 30 33 38 39 37 35 35 37 40 42 44 45 47 50 50 48 46 47 48 49 50 51 51 51 51 51 50 47
7 9 4 4 7 12 17 20 20 24 25 26 32 30 26 27 34 32 37 42 41 36 36 40 44 46 48 48 46 45 45 45 46 47 48 49 50 50 51 51 51 51 50 48
5 8 14 23 18 22 25 25 23 29 27 25 29 25 28 37 37 29 32 37 38 39 42 46 50 52 48 43 43 45 46 47 47 48 50 51 52 52 53 54 54 53 52 51
10 5 5 6 8 13 23 25 5 3 9 19 27 33 35 34 33 31 34 38 39 44 48 51 51 45 42 43 46 46 46 47 48 49 51 52 54 55 55 55 55 53 51 48
20 11 10 15 20 20 10 13 22 27 33 40 34 30 34 38 39 45 45 46 50 53 54 49 43 42 42 43 44 43 45 47 49 50 51 53 55 56 58 58 57 56 52 48
11 7 9 2 6 15 22 28 36 39 39 37 34 37 38 42 44 45 45 47 48 46 43 41 41 41 40 39 40 43 46 47 48 50 53 56 58 58 58 56 55 53 50 47
10 7 10 15 19 30 35 35 36 38 36 35 34 35 39 42 41 46 44 43 40 40 39 39 37 35 36 38 43 46 48 48 50 52 55 56 56 56 55 52 50 49 47 48
22 29 29 28 28 35 40 37 33 32 32 32 34 42 45 42 46 46 40 40 38 37 36 33 31 33 37 42 45 47 48 49 51 54 55 54 52 50 48 47 46 45 45 45
32 31 30 24 24 32 36 39 45 48 49 49 49 47 45 43 46 41 38 36 34 33 32 31 33 37 40 44 47 48 48 49 52 54 54 53 50 48 46 43 42 44 43 43
28 27 30 34 34 38 42 44 44 44 42 40 41 42 43 41 40 39 37 31 31 29 29 32 36 40 42 45 47 48 49 51 53 54 52 49 48 46 40 40 39 38 38 37
31 33 34 35 36 41 42 42 44 45 47 46 42 40 41 40 38 32 27 27 28 31 34 37 41 44 46 47 48 49 51 52 54 53 51 49 47 46 46 40 37 36 35 34
28 32 32 32 35 34 37 41 42 39 37 36 37 35 33 31 31 27 26 29 32 35 38 41 45 47 48 48 49 51 52 53 53 53 51 48 46 44 43 44 44 39 35 35
24 26 30 32 33 36 39 39 37 36 32 29 28 28 30 31 28 27 30 33 37 39 41 45 48 48 48 49 50 51 52 52 52 50 48 45 43 42 41 41 41 41 39 35
25 27 29 33 34 35 37 38 38 36 31 29 26 27 25 25 27 30 33 37 41 43 45 47 49 49 49 49 50 51 51 51 50 47 44 41 41 41 41 41 41 41 39 38
29 31 31 29 31 36 37 38 39 32 29 24 23 24 26 28 32 35 38 40 43 44 46 47 48 48 48 48 49 51 51 50 47 44 42 41 41 41 42 43 42 40 39 38
29 33 34 34 36 32 32 32 25 26 23 23 26 28 31 34 36 38 40 42 44 45 45 47 47 47 47 47 48 50 51 48 45 43 41 41 42 42 43 43 42 40 38 36
31 35 32 26 25 24 21 20 22 22 25 27 30 32 34 36 37 39 42 45 47 48 46 46 46 47 48 48 50 51 49 45 42 41 41 42 43 43 42 41 40 38 36 35
35 36 26 25 24 21 19 20 22 24 27 30 32 34 36 37 39 43 47 49 47 46 47 47 48 48 49 50 50 49 45 41 41 42 43 45 44 42 40 38 38 37 35 33
37 28 26 24 22 21 22 24 26 29 31 33 36 37 39 40 43 48 51 50 44 46 48 49 49 50 50 50 49 45 41 40 42 44 44 44 43 42 41 39 38 36 34 31
32 27 24 22 22 24 26 28 31 33 34 36 38 41 43 46 48 50 47 47 49 48 49 50 50 50 49 47 43 41 40 41 43 43 43 43 43 42 41 40 37 33 31 28
28 24 24 24 25 27 29 31 33 35 37 39 42 45 47 49 49 48 49 46 49 49 51 51 49 47 44 41 39 39 41 43 43 42 42 42 42 41 39 36 32 30 27 24
25 26 26 26 28 31 32 34 36 38 41 43 45 47 48 47 46 46 49 50 50 51 50 48 44 40 38 39 41 42 42 42 42 42 42 40 39 36 33 31 30 26 25 22
27 28 27 29 32 34 36 37 39 40 42 43 45 43 43 45 48 49 49 50 50 48 46 41 38 38 41 41 42 41 41 41 41 41 39 38 37 34 32 30 28 25 23 20
31 31 31 33 35 36 37 38 40 41 43 43 42 43 45 45 47 49 49 47 45 42 41 40 41 42 42 41 41 41 40 40 39 36 35 34 34 32 31 29 26 24 22 19
31 32 35 37 38 37 37 38 40 40 40 42 45 44 45 46 47 47 44 41 40 40 41 42 42 41 41 41 41 40 39 38 34 34 34 33 33 31 29 27 23 21 20 17

GFSNGP_700_spd_003.txt.gz
Wind_Speed
8 5 6 8 13 15 20 23 21 29 29 31 30 31 29 26 26 25 27 32 34 35 37 37 36 36 36 39 42 44 46 47 50 50 49 47 46 45 44 44 43 42 41 40
7 8 12 19 23 26 28 30 34 33 33 18 14 15 18 22 26 31 34 32 37 42 40 40 41 40 41 42 46 49 51 52 48 45 44 43 42 42 43 42 43 43 43 44
3 5 10 18 16 14 15 14 12 17 15 17 15 17 24 28 30 31 30 38 44 36 36 40 43 46 45 46 52 53 51 46 44 42 42 41 41 42 43 44 46 46 46 47
4 5 3 4 5 7 11 13 15 17 20 21 22 24 27 26 28 29 35 45 39 39 41 43 46 47 49 54 54 49 44 43 41 40 40 42 43 45 46 48 48 49 50 49
4 9 16 13 10 12 14 16 18 21 27 27 21 17 22 27 31 38 44 41 37 37 39 43 47 49 51 50 44 43 41 39 39 40 42 44 46 47 49 51 51 52 53 52
8 3 5 3 5 8 12 14 4 6 10 17 22 32 37 41 34 32 31 31 35 39 41 43 47 47 43 42 41 40 37 37 39 42 44 46 48 49 50 52 53 55 55 52
14 7 10 12 14 11 4 6 16 23 28 32 37 36 34 34 29 32 31 31 41 43 47 45 42 41 40 39 38 35 36 38 41 43 45 46 47 49 52 54 55 55 55 53
11 9 10 3 5 8 13 20 27 31 31 34 36 36 35 33 32 33 36 41 44 45 44 40 38 37 35 32 33 35 38 40 43 45 46 47 49 51 53 54 55 55 53 52
12 6 8 11 15 25 28 31 33 36 36 32 30 34 36 39 44 46 48 47 44 42 38 38 33 32 31 31 34 38 41 44 46 48 48 49 51 52 54 54 53 52 50 49
19 18 24 29 30 32 36 40 43 37 36 37 40 42 42 39 40 44 44 44 42 37 35 30 29 29 32 34 38 42 46 48 49 50 50 50 51 53 54 53 50 48 46 46
25 24 24 26 30 32 34 36 38 39 40 40 39 40 41 43 44 41 41 38 34 34 31 28 29 32 35 38 43 47 48 49 49 49 50 50 50 52 52 48 44 44 42 42
18 17 24 24 26 30 33 35 37 39 41 41 42 42 41 41 40 40 35 31 30 29 28 29 32 35 39 43 46 47 48 48 49 50 51 52 53 53 48 43 39 37 36 37
19 21 23 27 29 31 32 35 37 38 39 39 39 38 36 32 30 26 27 29 28 27 29 33 36 39 42 45 47 48 49 49 49 50 50 51 51 50 49 41 34 34 34 33
18 21 23 24 27 28 30 33 35 35 36 36 34 31 30 27 24 25 24 24 27 30 33 37 40 42 45 46 48 48 48 47 48 48 50 51 50 47 43 41 41 37 32 34
19 20 23 23 25 28 31 32 32 35 37 35 32 28 24 21 21 22 25 29 31 33 36 39 43 45 48 49 49 49 48 48 48 50 51 49 45 41 39 38 38 39 38 35
16 19 21 25 30 32 33 34 35 35 33 32 27 23 22 24 26 27 30 33 35 37 39 43 47 49 50 49 49 48 48 48 49 50 49 46 41 38 37 38 39 40 39 38
16 19 23 29 34 34 33 31 30 30 30 26 25 25 25 27 28 30 33 36 38 40 42 47 50 50 48 47 47 48 49 49 49 48 45 41 38 37 37 39 41 41 40 37
18 25 31 36 36 32 28 27 29 28 25 24 25 26 27 29 32 35 37 39 39 42 44 49 47 46 45 45 47 48 50 49 48 45 42 38 37 37 39 40 39 39 39 37
25 30 35 35 34 30 29 28 25 23 22 24 25 27 30 32 35 37 39 40 43 48 49 47 45 45 46 46 47 49 49 47 45 41 37 36 38 39 40 40 39 38 38 36
28 34 32 30 29 28 26 23 22 22 24 25 28 30 32 33 36 39 42 45 45 48 48 47 48 48 47 48 49 48 46 42 39 38 38 39 40 40 40 39 38 37 36 33
34 34 31 29 27 23 22 22 23 25 26 29 31 32 35 36 40 43 46 48 44 46 48 48 47 48 48 48 46 44 41 38 37 38 40 41 41 40 39 39 37 35 32 29
34 33 31 28 25 24 24 24 25 27 29 32 34 37 40 42 44 45 45 46 47 47 47 47 47 46 46 44 41 38 37 38 39 40 40 40 40 39 38 37 34 31 27 25
36 34 30 26 25 26 25 26 29 31 33 35 37 39 42 44 46 46 48 45 46 47 48 48 46 43 40 39 38 38 39 40 40 40 40 40 39 38 35 32 30 27 25 24
35 32 27 27 28 28 28 30 32 34 36 37 39 41 43 45 45 44 46 46 46 47 47 43 40 38 38 39 40 41 41 40 40 40 39 38 36 34 31 30 28 25 23 22
33 30 28 28 29 31 32 33 35 36 38 39 39 40 41 43 47 47 46 46 46 44 41 39 38 37 39 40 41 40 41 41 40 39 38 37 35 33 32 29 27 24 20 19
33 31 29 29 31 33 34 36 37 38 38 38 39 39 41 43 44 44 45 45 42 39 39 38 38 40 40 40 40 40 40 40 39 36 34 33 32 30 28 26 23 19 18 17
31 29 27 30 31 33 35 36 36 35 37 38 40 41 43 43 44 45 44 40 38 38 38 38 39 40 40 41 41 40 40 38 34 33 32 30 29 28 25 24 21 18 16 16

GFSNGP_700_spd_006.txt.gz
Wind_Speed
11 8 12 15 21 23 26 25 19 19 20 15 19 26 31 34 27 19 19 24 28 27 30 37 37 36 37 39 41 43 45 48 53 56 53 49 47 45 43 41 41 41 42 41
11 10 11 14 16 19 22 23 26 26 29 15 9 12 13 15 19 23 25 26 26 28 36 40 38 38 39 42 45 48 50 53 55 49 45 42 41 40 40 41 42 43 44 44
6 11 12 13 12 20 25 28 21 15 10 14 15 16 18 20 23 24 23 24 28 37 39 38 37 39 41 45 47 50 51 49 44 43 41 40 41 42 43 45 46 47 48 49
5 5 2 6 9 6 4 5 7 10 15 18 19 22 23 21 22 23 27 34 37 36 37 39 40 46 47 49 52 48 44 42 41 40 39 40 42 44 46 48 49 50 51 51
5 8 10 8 6 7 8 6 11 16 17 19 24 27 22 22 23 32 39 36 33 35 38 42 44 44 50 50 45 41 41 38 37 37 38 41 44 46 48 51 52 53 53 53
8 4 5 5 8 7 7 9 17 17 18 14 18 25 29 35 36 33 30 29 33 36 40 43 47 54 49 43 42 41 38 36 36 38 41 44 49 51 52 53 54 54 54 53
14 6 7 11 12 13 7 6 15 16 19 27 31 34 37 35 34 32 32 31 35 36 41 51 47 44 42 40 39 38 36 36 38 41 45 49 52 53 54 55 56 55 55 53
15 8 9 11 12 13 11 14 20 26 31 35 36 38 35 33 35 37 36 36 39 41 47 43 41 38 38 38 38 37 37 38 42 46 50 52 54 54 53 53 54 54 54 54
10 5 10 12 16 16 20 25 29 34 37 39 37 35 37 35 32 32 35 39 41 42 41 41 36 36 37 36 37 37 39 42 46 50 52 52 53 53 52 52 53 54 54 53
19 20 18 17 22 25 30 34 36 38 35 34 32 32 31 32 33 33 34 36 38 39 36 31 32 33 34 35 37 40 44 47 50 52 53 52 51 51 52 52 53 53 52 49
28 24 20 23 27 31 35 33 32 31 30 30 32 33 34 34 34 36 36 35 34 30 28 29 31 30 33 38 41 44 47 50 51 52 52 51 50 50 50 50 52 50 46 44
26 19 21 22 22 25 26 27 27 30 31 32 33 33 33 33 34 34 34 32 30 29 30 31 32 33 37 40 43 46 48 50 51 51 50 50 50 50 48 50 48 43 38 38
16 17 18 20 22 24 25 26 27 29 32 33 32 33 35 35 33 32 31 30 29 29 29 32 33 35 38 41 44 47 51 51 50 49 49 50 51 53 55 50 43 37 34 36
15 16 19 20 22 22 22 24 28 31 32 33 34 35 34 32 30 29 28 27 27 28 30 33 36 38 41 44 49 52 51 50 50 50 50 51 51 52 50 48 45 38 33 36
16 18 19 19 19 21 24 29 32 32 32 32 32 31 29 26 23 23 24 26 27 29 32 37 40 41 45 49 52 52 50 50 50 51 51 50 50 48 46 42 39 38 39 37
15 16 16 17 19 23 28 32 30 29 28 29 29 28 25 22 22 24 26 29 32 34 37 41 44 46 49 50 49 49 50 51 50 50 50 49 47 44 40 39 39 39 39 42
15 13 14 18 22 28 31 31 28 27 28 29 27 23 21 23 25 28 31 34 35 38 40 44 47 48 47 46 48 51 51 50 50 49 47 45 42 39 38 38 40 41 40 39
12 15 20 24 28 31 31 29 28 28 27 24 22 23 25 28 30 32 34 35 36 39 41 45 45 45 46 48 49 50 50 49 48 46 43 39 37 36 38 39 40 41 40 39
19 25 28 30 32 31 29 28 27 24 23 23 24 26 28 29 31 33 36 38 40 44 45 44 44 46 47 47 49 49 48 46 43 40 38 37 37 37 39 40 40 40 40 39
26 30 33 32 31 30 28 26 25 24 24 25 26 28 29 31 34 37 39 41 41 46 46 46 47 47 48 49 48 46 43 41 40 39 38 39 39 40 39 38 38 38 37 35
34 36 35 35 32 30 27 25 25 25 26 26 28 30 34 35 38 40 42 43 42 43 45 46 46 46 47 47 44 43 42 40 39 40 40 40 39 39 39 38 37 36 34 32
34 33 28 28 28 27 25 25 25 27 28 30 32 34 37 38 40 41 42 44 44 45 47 46 46 46 45 42 41 41 40 40 41 41 41 41 41 40 38 36 35 32 31 29
33 31 31 32 29 27 26 26 27 29 30 32 34 37 40 41 42 43 45 42 45 46 47 46 46 42 41 42 41 40 41 42 42 41 41 40 40 39 36 34 31 30 29 28
35 34 32 29 29 27 26 28 30 31 33 34 37 39 41 41 42 40 43 45 46 47 46 45 42 40 40 40 41 41 42 42 42 42 41 39 37 34 31 30 29 28 26 25
35 33 32 31 28 27 28 29 31 33 35 37 38 39 39 40 43 44 46 46 46 46 45 41 39 39 40 40 40 41 42 42 42 42 41 38 33 31 30 29 27 26 24 22
34 34 33 30 28 28 28 30 32 34 36 37 36 36 38 39 42 44 44 45 45 44 42 39 38 39 41 41 41 41 42 42 41 39 37 33 32 30 28 27 26 23 21 20
35 36 32 29 28 27 29 32 33 34 34 35 37 36 39 42 43 43 44 45 44 41 39 39 38 39 40 41 41 41 41 40 37 35 34 32 29 27 26 25 23 22 20 18

GFSNGP_700_spd_009.txt.gz
Wind_Speed
18 13 19 27 32 34 32 31 21 20 19 13 11 13 15 21 28 28 15 16 17 18 18 24 31 36 37 36 39 42 44 47 51 60 51 47 47 46 44 43 44 45 45 46
16 17 15 16 19 28 29 28 28 27 26 20 21 16 13 14 14 16 19 19 19 19 24 31 34 36 38 42 43 45 47 50 60 50 46 46 44 42 43 43 44 46 49 51
7 12 10 11 20 21 24 26 25 25 21 17 17 15 15 17 19 21 21 21 22 26 29 32 36 39 41 43 46 49 52 58 49 46 45 43 42 43 44 46 49 52 53 55
5 8 3 9 12 14 14 17 21 20 17 16 15 15 16 18 18 19 23 27 30 33 34 35 37 41 43 44 49 56 55 48 46 45 43 42 43 44 47 50 54 57 58 58
6 8 6 7 12 13 13 12 15 16 17 16 16 16 16 17 22 27 33 35 34 33 33 33 39 43 45 45 54 47 45 44 44 43 42 42 44 47 52 56 59 60 60 59
8 4 5 6 14 14 13 14 18 16 15 14 16 15 21 29 33 33 29 28 30 32 32 36 40 45 49 48 45 41 40 41 41 41 42 45 49 52 56 60 61 60 59 56
16 7 6 11 13 12 9 9 13 15 14 14 19 27 34 34 34 31 33 31 30 30 33 39 44 46 46 46 40 37 38 38 39 41 45 49 53 57 59 60 59 56 56 54
13 8 8 12 15 15 13 12 11 12 16 24 30 34 33 32 32 30 29 30 32 34 38 41 43 42 43 38 36 37 38 39 41 45 49 53 56 57 56 55 54 54 54 54
9 7 9 7 14 14 16 16 19 24 29 33 36 33 33 31 31 31 31 30 31 35 37 37 37 35 33 34 36 37 38 41 45 49 52 54 55 54 54 53 53 55 56 58
17 17 15 14 15 17 20 22 27 31 34 34 32 31 31 31 32 31 30 32 33 34 35 34 32 32 34 36 37 39 42 45 49 51 53 54 52 52 52 52 54 56 56 56
24 23 16 18 19 21 24 28 31 32 30 30 30 31 32 33 32 32 33 33 33 33 32 32 31 32 35 38 40 42 45 47 49 53 53 52 51 52 53 53 53 54 52 50
22 17 19 24 27 28 28 26 28 29 29 29 30 32 33 33 33 33 32 31 30 30 30 30 31 33 37 39 42 45 47 49 52 54 53 54 55 55 51 51 49 47 46 43
27 27 24 21 20 22 25 26 27 27 27 29 32 33 32 32 31 30 29 28 28 28 30 32 33 35 38 41 43 46 49 52 53 52 54 55 54 54 55 51 49 44 41 40
13 14 16 19 22 23 24 23 24 26 30 32 32 30 29 28 29 28 27 26 26 28 31 33 35 37 40 42 45 49 50 50 51 53 53 52 52 53 52 51 50 45 37 37
17 18 19 22 22 22 21 24 27 30 32 31 28 27 28 29 28 27 26 27 28 30 32 35 37 38 41 45 47 49 49 51 52 52 51 51 50 49 47 45 43 43 41 39
17 19 21 19 19 22 24 26 29 31 30 28 28 29 29 27 25 25 27 29 30 31 33 37 39 42 44 46 47 49 50 50 50 51 50 47 45 43 42 42 41 42 42 44
19 18 19 20 22 24 25 29 32 31 29 27 28 27 25 24 25 27 28 30 33 34 37 40 42 44 45 45 48 49 49 49 49 48 45 43 42 41 40 41 43 44 43 43
19 19 20 20 22 26 32 33 31 30 28 27 26 25 25 26 26 28 31 32 34 37 39 41 42 43 43 46 48 48 48 49 47 44 42 40 39 40 42 42 42 44 43 42
17 16 18 23 28 31 32 31 30 29 27 26 25 25 26 27 28 31 34 36 37 40 40 41 42 42 45 46 47 48 48 44 42 41 39 39 40 42 42 42 43 43 42 41
16 20 26 32 34 32 29 28 28 27 26 25 26 27 28 29 32 34 37 39 39 42 42 43 43 45 47 47 47 46 43 42 42 41 40 41 41 42 42 41 42 41 40 39
23 30 34 32 30 28 27 28 27 26 26 27 28 29 30 31 34 36 39 41 40 41 42 42 45 46 47 47 46 42 41 41 41 41 41 41 42 42 41 41 41 40 38 36
31 30 29 29 29 29 29 27 26 27 28 29 30 30 32 33 36 38 41 42 42 43 45 46 46 46 46 46 44 41 40 40 40 41 41 42 42 42 41 40 37 35 33 33
27 29 29 30 31 30 29 28 28 28 29 30 31 32 34 36 39 41 43 41 42 43 46 46 46 46 46 44 41 40 40 40 41 41 41 42 42 42 39 35 33 32 31 30
28 29 30 30 29 29 29 30 29 27 28 30 32 34 36 38 40 40 42 43 44 47 47 46 46 45 44 41 40 40 40 40 40 41 42 41 40 37 34 33 31 29 28 27
31 30 30 30 30 30 29 27 25 26 28 30 33 35 37 39 41 42 42 44 45 46 46 45 44 42 40 39 39 39 39 39 40 42 43 41 38 35 32 30 28 27 25 23
33 33 32 32 30 30 28 26 25 25 27 31 33 35 36 37 39 41 44 44 45 45 45 44 42 41 40 40 39 39 39 40 40 40 40 37 34 33 31 28 25 24 24 22
33 32 32 31 30 29 27 26 24 26 29 31 33 33 35 37 40 42 42 43 43 43 42 41 40 40 39 39 38 38 39 39 38 39 37 35 32 30 27 24 22 22 21 20

GFSNGP_700_spd_012.txt.gz
Wind_Speed
24 26 26 38 35 36 37 38 26 29 27 24 21 15 13 15 18 20 21 25 18 18 20 22 24 29 33 36 38 41 42 45 49 50 55 55 48 46 46 46 46 47 49 51
14 21 20 31 33 33 36 39 36 36 27 15 14 19 23 25 24 22 17 20 21 21 22 25 28 31 35 38 40 42 46 49 53 56 50 47 45 45 45 46 47 50 52 56
7 13 12 13 24 25 31 36 35 35 31 28 25 23 18 16 16 16 19 18 19 21 24 27 29 33 37 38 42 44 48 51 54 50 44 43 44 45 46 48 50 53 56 60
6 11 2 12 13 19 23 22 29 30 27 22 20 20 18 17 17 17 18 22 25 27 28 29 31 34 37 39 42 47 52 47 45 43 42 43 44 45 46 49 54 58 61 61
7 13 5 7 13 16 19 20 22 26 24 19 17 16 16 16 17 21 27 29 27 26 28 31 31 32 36 40 46 48 44 41 39 40 41 43 44 46 50 55 58 61 62 60
10 4 7 6 14 17 17 15 19 18 17 16 15 13 14 18 25 30 29 27 27 26 27 29 32 35 38 42 44 41 38 37 38 41 42 44 46 50 54 58 61 60 58 57
15 7 6 10 11 14 13 10 19 19 18 15 14 14 20 27 31 30 29 27 28 28 29 31 34 36 38 40 39 36 35 37 39 40 43 46 50 53 56 59 58 57 57 56
14 8 8 14 17 16 10 8 11 12 12 13 16 22 28 31 30 28 28 28 29 29 30 32 35 38 39 38 36 35 35 37 40 42 46 49 51 54 55 56 57 57 57 56
10 7 9 9 17 16 15 12 12 12 14 19 25 29 29 28 28 28 28 28 28 30 32 35 36 37 36 35 34 35 36 39 42 45 47 50 53 54 55 55 56 56 56 56
12 14 10 10 11 11 12 13 15 19 23 27 28 28 28 28 28 29 29 29 31 33 35 35 36 35 36 35 35 37 39 42 45 47 49 51 52 53 54 54 55 55 55 55
20 19 14 14 15 16 17 19 21 24 27 26 27 26 27 28 31 31 31 32 33 33 33 32 32 33 34 36 38 40 42 45 46 49 50 51 52 53 52 52 53 53 51 50
22 19 18 19 19 20 22 23 23 24 25 24 25 27 29 32 33 32 32 32 32 32 31 30 30 32 35 37 40 43 44 47 49 50 50 51 53 53 51 50 49 46 44 44
20 22 22 18 19 23 21 20 22 22 23 24 26 29 31 32 32 31 31 31 30 29 29 29 30 32 36 39 41 43 47 48 48 49 50 52 52 52 53 49 47 45 41 40
9 14 18 17 15 15 19 21 21 21 23 25 27 30 31 30 30 30 30 28 27 27 28 30 32 35 38 40 43 45 46 46 48 49 50 50 51 50 49 50 50 46 40 41
18 14 13 14 15 17 19 18 19 21 23 27 30 30 29 29 28 27 26 25 25 27 30 33 35 36 39 41 43 45 46 48 49 50 50 50 48 46 46 46 46 46 46 44
18 16 15 16 19 18 17 18 20 24 28 31 30 29 28 27 26 25 25 25 26 28 31 34 36 38 40 42 45 46 47 48 48 49 49 46 45 45 44 44 45 45 46 46
13 14 17 18 16 17 18 20 24 29 32 30 29 28 27 26 25 25 26 26 27 30 33 37 38 40 42 44 46 47 48 48 47 47 45 44 43 43 43 44 45 45 45 44
16 20 16 15 17 17 21 26 32 32 31 29 27 26 26 25 25 26 26 27 30 32 36 39 41 42 43 45 46 48 47 47 47 46 44 42 42 43 43 44 44 45 45 45
17 12 14 17 19 22 28 33 33 31 29 28 27 26 25 26 26 27 28 29 32 36 38 40 41 42 43 44 47 47 46 46 46 43 41 42 42 42 42 43 43 44 44 43
12 14 18 20 23 29 34 32 30 29 28 27 26 25 26 28 29 30 32 33 35 40 42 43 43 43 45 47 47 46 46 46 44 42 41 42 42 42 42 42 42 43 41 38
15 20 22 24 30 31 30 30 29 28 28 28 28 28 28 29 30 32 33 36 37 41 43 42 43 44 46 47 46 46 45 44 42 41 41 41 42 42 42 42 41 39 36 34
22 24 27 31 29 28 29 30 29 29 29 29 29 30 29 30 32 34 37 39 40 42 43 42 44 46 46 47 46 45 44 42 41 41 41 41 41 42 42 40 37 34 31 30
26 29 28 27 27 27 29 31 31 30 30 30 30 30 31 33 34 36 37 38 40 40 42 44 45 46 46 46 45 43 42 41 40 40 40 40 40 40 39 35 33 31 29 28
26 26 26 27 28 30 31 32 32 31 31 29 29 29 31 32 34 37 39 40 40 42 44 45 46 46 46 45 44 42 41 40 39 39 39 39 38 37 35 33 31 29 26 24
23 24 25 27 30 30 30 30 30 30 29 28 28 28 29 32 35 36 37 38 40 43 44 44 44 45 44 43 41 40 39 37 37 37 38 38 37 34 32 30 28 25 23 22
23 25 28 29 30 29 29 30 30 28 28 28 27 28 31 33 34 35 38 41 42 43 44 45 44 43 42 41 39 36 35 35 36 36 37 36 33 31 29 26 24 21 20 20
26 27 29 30 31 30 30 29 27 26 26 25 27 29 30 31 33 37 38 39 41 43 43 43 42 40 39 37 36 36 36 36 36 36 35 33 30 27 23 21 19 18 17 17

GFSNGP_700_spd_015.txt.gz
Wind_Speed
23 29 22 34 37 39 41 39 26 33 33 28 25 24 17 14 15 19 22 22 21 24 24 23 25 28 30 32 34 37 39 40 44 47 48 48 45 44 43 42 43 45 47 50
19 21 23 23 37 39 37 37 38 40 37 31 28 26 20 15 16 19 20 23 25 22 22 24 26 29 31 32 34 36 39 43 46 46 45 44 42 41 42 42 44 47 50 53
12 14 16 16 33 36 37 39 39 40 35 32 28 21 20 23 20 19 20 20 21 21 23 26 27 28 30 32 34 36 40 43 45 42 41 40 39 40 42 44 47 50 52 54
8 12 3 14 15 24 27 26 30 37 36 28 26 29 26 21 20 20 19 19 20 25 25 24 25 28 31 32 35 37 40 43 43 40 39 38 39 42 45 48 50 52 54 56
8 17 6 7 14 17 23 26 27 21 26 26 25 23 22 20 19 18 19 22 25 23 22 23 25 28 30 33 35 38 40 40 39 38 38 39 41 45 48 50 51 52 55 58
11 5 6 4 12 13 11 16 18 22 22 19 19 19 18 17 17 19 23 24 21 20 21 23 25 28 32 34 34 36 37 36 36 37 39 42 45 48 49 51 52 53 56 57
16 7 5 11 7 11 12 10 13 19 16 16 17 16 15 16 19 23 21 20 20 21 22 24 27 30 33 34 35 35 34 35 36 39 42 45 48 49 50 51 52 54 55 56
17 9 9 14 13 14 11 8 10 15 16 16 16 15 16 20 22 20 20 20 22 23 25 27 29 32 33 32 33 33 34 36 38 41 44 47 48 49 50 51 53 54 55 55
12 8 9 8 18 20 12 6 8 11 11 11 14 18 21 20 19 19 21 23 25 26 27 29 30 31 31 32 33 33 34 37 40 44 46 47 48 49 50 51 53 53 53 53
9 12 9 9 12 15 12 13 12 12 13 16 18 19 17 18 19 22 24 25 26 26 27 28 29 30 32 32 33 35 37 40 43 44 45 46 47 48 49 50 51 51 50 52
16 15 13 14 15 14 14 14 14 15 17 18 16 16 17 19 21 23 25 25 25 25 27 28 29 31 31 33 35 37 40 42 43 44 45 47 48 49 49 49 48 48 48 48
17 17 15 14 16 17 16 15 16 17 15 14 15 17 19 22 24 24 24 24 25 26 27 27 27 30 32 34 37 40 41 42 44 45 46 48 49 48 47 46 45 44 44 44
15 15 19 18 15 15 15 15 16 14 14 15 16 19 21 23 25 25 25 25 26 26 25 25 27 30 33 35 38 40 41 43 44 45 47 48 48 48 48 46 45 44 44 43
16 11 14 16 17 17 18 12 12 13 14 16 19 22 24 26 25 25 25 24 24 25 25 26 28 31 33 36 38 40 41 43 45 46 47 47 48 48 48 48 49 47 45 43
17 15 11 11 13 12 10 11 12 13 16 19 21 25 27 26 26 25 24 23 24 25 26 27 29 32 35 38 40 40 42 43 45 46 47 47 48 47 46 46 47 47 47 45
17 19 18 14 12 10 10 10 12 14 16 22 26 26 26 25 25 24 23 22 23 26 27 28 31 34 37 40 41 41 42 44 46 47 47 47 47 45 44 44 45 46 46 47
13 16 16 12 9 10 9 12 12 16 22 26 26 26 26 25 24 23 22 23 25 27 29 31 33 35 39 41 42 43 45 46 46 46 46 46 45 44 43 44 45 45 45 45
14 14 9 9 9 9 11 13 17 22 26 27 27 27 25 24 23 23 23 25 27 28 31 33 35 38 41 43 44 45 46 46 46 46 46 45 44 43 42 42 43 44 44 44
16 10 9 7 8 11 14 18 23 28 29 29 28 27 26 25 25 25 25 26 28 29 31 34 37 40 43 44 45 46 46 46 45 45 44 44 42 41 41 41 42 42 43 41
17 13 10 9 12 16 19 22 28 30 28 28 27 26 25 26 26 26 26 27 30 32 34 37 39 42 43 44 46 46 45 45 45 44 43 42 41 40 39 39 40 41 39 36
16 12 10 13 17 21 24 29 30 28 28 28 27 27 27 27 28 28 28 29 32 35 37 39 41 43 44 46 45 45 45 45 44 43 42 40 39 38 38 38 39 38 35 32
11 11 13 18 22 27 30 28 27 27 27 28 29 29 29 30 29 30 31 33 34 37 39 40 42 43 45 45 44 45 44 43 42 41 40 39 37 37 37 37 37 34 30 28
10 15 20 25 26 26 26 26 26 27 29 29 30 30 31 30 31 31 32 33 36 38 40 40 42 43 43 44 44 44 43 42 41 39 37 36 35 36 36 35 33 31 28 26
16 20 22 24 24 25 26 26 27 28 28 29 30 30 29 30 30 31 32 34 37 38 39 41 42 43 44 44 43 42 41 39 37 35 34 34 34 34 33 32 30 27 24 22
18 20 21 23 24 25 25 26 27 28 30 30 29 28 28 29 29 30 32 34 35 37 38 39 41 42 42 41 41 39 38 36 35 35 35 35 34 32 30 28 25 24 21 20
20 21 22 23 23 24 26 27 28 29 29 28 27 28 28 28 29 30 31 34 36 37 39 41 41 41 41 40 38 36 35 34 35 34 34 33 31 29 26 24 21 20 19 19
21 21 22 23 24 25 27 28 29 29 28 27 27 26 25 26 27 30 32 34 36 38 39 39 39 39 38 37 36 35 36 35 34 34 32 30 28 24 22 20 18 18 17 17

GFSNGP_700_spd_021.txt.gz
Wind_Speed
2 7 13 17 23 28 28 26 20 18 21 12 9 11 16 14 14 10 12 15 22 23 24 24 25 26 28 30 31 33 36 38 40 43 45 45 46 46 43 42 42 43 45 47
6 9 10 15 20 26 29 29 28 24 22 13 15 18 19 15 12 13 15 17 21 23 25 27 27 28 29 30 32 36 38 40 41 43 45 45 45 43 41 42 43 46 49 50
5 7 6 12 25 25 26 29 27 32 25 23 22 21 18 16 17 18 18 20 21 24 26 28 27 27 29 32 35 37 39 40 41 43 44 44 42 41 42 44 47 49 49 49
2 7 5 9 9 21 27 26 26 28 21 21 22 23 23 21 20 19 19 20 22 25 25 24 26 28 31 33 34 36 39 41 41 41 42 41 40 41 44 46 48 49 48 49
5 10 9 11 9 13 21 22 26 23 20 24 29 28 24 22 20 21 22 22 21 21 22 24 27 29 29 31 34 36 40 39 39 40 40 39 40 43 45 48 48 48 48 50
6 4 4 4 7 9 7 12 10 16 21 27 20 23 25 22 20 21 21 19 19 20 23 25 26 26 28 31 34 36 36 36 38 37 38 40 42 45 46 47 47 48 50 52
12 6 8 13 11 3 6 3 4 9 15 17 18 21 18 14 19 18 17 18 19 21 24 23 24 27 28 31 33 33 34 34 34 36 38 41 43 45 46 47 48 50 52 52
11 7 10 9 8 9 7 8 6 7 9 15 18 17 17 13 14 15 16 19 21 22 22 23 25 27 28 29 29 31 32 32 33 36 39 41 43 44 45 47 50 51 51 52
14 11 11 9 9 11 15 11 10 7 7 11 12 14 14 13 14 16 18 20 20 20 22 24 25 26 27 27 28 28 29 32 35 36 38 41 43 44 46 48 50 51 52 52
16 20 20 14 13 11 11 11 8 6 6 9 11 11 12 13 16 18 17 17 19 21 22 23 24 25 26 25 26 28 31 33 34 37 39 41 43 45 48 49 50 50 50 51
27 25 14 16 15 12 12 12 10 10 11 11 11 12 14 15 14 14 16 18 19 21 22 22 23 23 23 24 27 30 31 32 35 38 40 42 43 46 48 49 51 51 50 51
19 21 19 14 13 14 15 14 13 13 13 13 14 14 12 12 13 14 16 18 20 21 21 22 23 23 24 26 28 28 31 34 37 39 41 43 45 47 48 49 50 51 50 49
14 11 13 12 13 15 17 17 17 15 14 14 13 12 11 12 13 15 17 20 21 21 21 22 22 23 25 26 27 30 33 36 38 40 42 45 47 49 51 50 50 49 48 48
15 15 14 13 14 16 19 20 18 16 14 13 11 11 11 12 15 18 20 20 20 20 21 22 23 24 25 27 29 32 34 37 39 42 45 47 48 50 51 52 52 51 47 45
18 17 17 16 13 17 19 19 18 15 13 12 11 11 12 15 18 19 18 18 19 21 22 22 23 24 26 29 31 33 36 38 40 43 45 47 49 50 50 50 50 49 47 44
14 18 18 17 16 17 19 19 17 15 13 11 10 11 14 17 18 17 18 19 20 21 21 22 24 26 29 31 33 35 38 40 42 44 46 47 49 50 50 49 48 46 44 43
15 15 13 16 18 19 19 18 16 14 12 10 11 13 16 17 17 18 19 19 20 21 22 24 26 28 31 33 36 37 39 41 43 45 47 48 49 48 48 46 45 43 42 41
19 18 14 12 17 19 18 16 14 12 10 10 12 16 17 17 18 18 19 20 21 22 24 26 28 30 32 35 37 38 40 42 44 46 47 48 47 46 45 44 42 42 42 42
21 17 17 21 21 19 17 15 11 9 10 12 16 18 18 18 18 19 20 21 23 25 26 28 30 32 34 36 37 39 41 43 44 46 47 46 45 44 42 41 40 40 41 41
22 17 19 18 17 17 14 9 7 9 13 17 18 18 18 19 20 21 22 23 25 26 28 29 31 34 35 35 37 39 42 43 45 46 45 44 43 41 39 39 39 40 40 39
20 22 19 17 17 13 7 6 9 13 16 18 18 19 19 21 22 23 24 26 25 27 28 30 32 33 34 36 38 40 42 44 44 44 44 42 41 39 39 39 38 39 38 35
23 23 15 16 12 7 6 10 13 16 18 19 19 20 21 22 23 25 26 27 27 28 29 31 31 32 34 37 39 41 43 43 43 43 41 40 39 38 38 37 37 35 32 30
22 18 14 11 7 7 10 13 16 18 19 20 21 22 22 23 25 26 27 27 29 29 30 30 31 33 35 37 40 42 42 42 41 40 39 38 37 37 37 36 33 30 28 26
18 14 10 7 7 9 12 15 18 20 21 21 22 22 24 25 27 27 28 28 28 28 28 30 32 34 36 39 41 42 41 41 39 38 37 36 36 36 34 31 28 26 25 23
12 9 7 7 10 13 16 19 20 21 21 22 23 25 26 27 27 27 27 27 28 28 29 31 33 36 38 40 41 40 39 38 37 37 36 37 35 32 30 29 27 25 23 22
9 7 8 11 14 17 19 20 21 21 22 23 25 26 26 26 26 26 26 26 27 29 30 32 35 38 40 40 39 38 37 36 36 36 37 35 34 33 30 28 25 22 21 19
8 9 13 16 19 20 20 21 22 23 24 25 26 26 26 26 26 25 25 27 28 30 32 35 38 39 39 37 36 36 36 35 36 35 34 34 32 29 26 26 21 18 16 16

GFSNGP_700_spd_024.txt.gz
Wind_Speed
13 10 27 22 26 25 24 16 7 6 8 11 13 10 6 5 4 7 7 9 11 17 22 23 23 24 26 26 28 30 33 35 37 39 40 42 44 45 45 44 43 43 44 46
9 9 8 7 17 22 28 22 20 14 10 13 7 13 16 12 8 8 10 11 13 17 21 23 23 25 26 27 29 31 34 36 39 40 40 42 44 44 42 41 41 43 45 47
7 11 10 9 20 20 23 24 25 27 22 16 13 16 16 17 14 11 13 14 14 18 20 21 23 25 26 28 29 33 36 37 38 39 40 42 42 41 40 41 43 45 46 47
4 9 2 5 4 18 25 25 26 29 23 18 20 22 24 19 19 16 16 15 17 20 21 21 24 25 25 27 31 34 35 35 38 38 40 40 39 39 40 43 44 45 46 46
3 9 5 11 8 11 20 26 23 22 19 26 24 22 21 21 19 17 18 17 17 19 20 21 22 23 26 30 31 32 33 35 36 38 38 37 37 39 40 43 43 44 45 48
6 3 2 2 3 4 6 13 15 16 25 25 31 27 25 22 21 19 16 18 18 18 19 20 22 25 28 28 29 31 33 34 35 36 36 36 37 38 40 42 44 45 46 49
11 3 5 11 7 1 6 1 2 10 20 25 25 22 18 14 13 15 16 16 16 17 18 20 24 25 25 27 28 30 31 32 34 33 34 35 37 39 41 43 44 45 47 49
16 6 9 4 5 6 3 1 1 1 7 14 18 18 16 13 10 13 14 14 15 17 20 22 22 23 25 26 27 28 30 31 31 31 33 36 38 40 41 42 45 46 49 50
15 12 4 5 3 4 8 10 9 6 4 7 10 11 12 11 10 12 13 14 16 18 18 20 22 23 23 25 26 28 29 28 29 31 34 36 39 40 41 44 47 49 50 51
14 18 13 13 14 10 8 7 5 4 4 7 9 11 11 10 11 12 14 16 16 16 18 20 21 23 24 25 26 26 26 28 30 33 34 36 37 39 42 46 48 50 52 54
24 15 12 13 12 13 10 8 8 7 8 9 10 11 10 11 12 14 13 14 15 17 18 20 22 22 23 23 23 24 26 29 32 33 35 37 38 41 44 46 49 51 52 52
21 16 21 20 13 9 10 10 9 8 8 10 10 9 10 12 11 11 12 15 16 18 19 21 21 21 21 22 23 25 28 30 32 34 36 38 40 42 44 46 48 48 47 47
15 13 7 12 14 12 12 13 13 13 13 12 11 11 12 12 11 12 13 16 18 19 19 19 19 20 21 22 25 27 29 32 33 35 37 40 43 46 47 46 48 48 46 44
13 12 11 13 12 11 14 15 15 15 14 13 12 13 12 11 11 13 15 17 17 17 18 19 20 21 22 24 27 29 31 33 35 37 39 42 44 46 49 51 51 48 44 41
13 14 14 15 13 13 14 16 17 17 15 14 13 12 10 11 12 14 16 16 17 17 18 19 20 21 24 26 28 30 32 34 36 37 40 43 45 46 48 49 47 45 43 40
17 18 18 17 14 13 15 18 19 17 15 14 12 11 10 11 14 16 16 17 17 17 19 20 22 24 26 27 29 32 33 35 37 40 42 44 45 47 47 46 44 42 41 42
17 18 17 17 15 15 17 19 18 16 14 12 11 10 11 13 16 16 17 17 17 19 21 22 23 25 27 29 31 33 35 36 38 40 42 44 45 46 45 44 41 41 40 40
17 18 16 14 11 13 16 17 15 14 12 11 9 10 13 16 16 16 16 18 19 21 22 22 25 27 29 30 32 34 35 37 39 41 43 45 45 44 42 40 40 40 40 39
21 19 16 12 13 15 16 15 15 13 10 8 9 12 15 16 15 16 18 19 21 22 21 24 26 27 29 31 33 34 36 37 40 42 44 45 43 41 39 39 39 39 39 39
22 19 15 14 17 18 17 15 12 9 7 9 12 14 15 16 17 18 20 21 22 23 24 24 26 28 30 31 33 34 36 39 41 43 43 43 41 39 38 38 38 38 37 34
20 15 14 17 18 17 15 12 8 6 7 10 13 15 16 17 19 20 21 22 23 25 26 27 28 29 31 32 33 35 38 40 42 42 41 40 38 37 37 37 37 36 33 30
16 17 18 19 18 17 13 8 5 6 9 12 15 17 18 19 20 21 23 23 24 25 26 28 29 30 31 32 34 36 39 41 42 41 39 37 37 37 36 36 33 30 28 28
20 19 18 18 17 12 6 5 6 9 12 15 17 18 19 20 21 23 24 25 25 26 27 28 29 30 32 33 35 38 41 41 40 38 36 36 36 36 35 32 30 29 27 26
18 19 16 16 11 6 5 6 9 12 15 17 18 19 20 21 23 24 24 25 26 26 26 27 29 30 32 35 38 41 41 39 37 36 35 35 35 34 32 31 29 27 25 22
19 18 15 11 7 6 7 10 14 16 17 18 19 20 21 22 23 24 24 25 25 25 26 28 30 32 35 38 41 41 38 36 35 35 35 35 33 32 30 28 26 26 22 18
17 14 10 7 5 7 11 15 17 18 18 18 19 20 21 23 24 24 24 24 24 26 27 29 31 35 38 41 40 37 35 35 34 34 34 33 32 30 28 26 24 24 18 14
12 8 5 5 9 13 16 17 17 16 17 18 20 21 23 23 23 23 23 24 25 26 28 31 34 38 40 38 35 34 34 33 34 34 32 31 30 29 27 24 20 18 12 10

GFSNGP_700_spd_027.txt.gz
Wind_Speed
21 15 20 24 17 22 16 13 12 22 22 21 19 20 18 14 11 9 8 9 11 15 19 22 22 23 23 23 23 24 26 30 32 34 36 38 38 39 40 40 39 39 41 42
7 12 21 25 20 20 17 8 13 11 10 14 17 12 8 5 5 5 5 9 11 12 15 18 20 20 20 21 22 25 29 31 33 35 37 36 37 39 39 37 37 39 41 43
5 9 10 3 17 19 19 23 14 14 12 14 8 10 8 8 7 3 7 10 9 9 13 15 17 18 19 21 24 26 28 31 33 36 35 36 37 38 37 36 39 40 41 43
5 6 2 2 2 10 14 14 21 20 16 14 9 13 13 12 12 12 10 11 12 14 15 17 18 18 19 21 23 26 29 31 33 33 34 35 36 35 36 37 39 41 42 44
1 4 4 4 4 6 16 18 18 17 18 22 16 10 13 14 13 13 13 12 14 15 14 14 14 16 18 22 25 27 29 30 30 32 33 34 33 34 36 38 39 40 41 43
3 1 3 3 6 2 6 12 12 18 21 20 25 22 20 18 17 16 16 14 12 13 13 13 14 16 20 23 25 26 27 29 30 31 32 31 33 35 37 38 39 41 42 44
4 2 5 7 3 2 4 3 5 11 14 23 23 23 22 19 17 17 17 15 13 12 12 13 16 19 21 23 24 25 26 27 29 29 29 31 33 36 37 39 40 42 44 45
11 4 8 3 3 4 3 3 4 4 6 14 21 19 18 18 16 14 14 13 12 13 14 15 18 20 20 22 23 24 25 26 27 27 30 32 34 35 37 40 42 44 46 47
15 13 6 6 3 3 3 5 3 1 4 10 14 17 17 15 14 12 12 12 12 14 16 16 17 18 20 21 22 23 23 24 25 28 30 33 35 36 38 41 44 46 48 50
15 20 13 10 9 6 4 4 2 2 5 8 10 11 12 12 11 10 10 11 12 14 14 15 17 18 19 20 21 22 22 24 26 28 30 32 34 37 40 42 45 48 50 52
18 8 16 12 8 9 8 7 4 3 5 6 8 9 10 8 7 7 9 10 11 12 14 15 17 18 19 20 20 21 23 25 27 30 32 33 35 38 40 42 45 48 50 52
12 14 14 9 9 6 6 6 5 4 4 8 10 9 7 7 8 9 9 9 10 12 14 16 18 18 18 19 20 22 24 26 29 31 33 35 37 37 38 42 44 46 47 47
8 5 9 13 15 14 10 9 8 8 9 8 9 8 7 8 8 8 9 9 11 14 15 16 17 18 18 19 21 23 25 28 30 32 34 37 38 40 43 42 45 46 46 44
9 10 9 8 9 11 10 10 11 11 11 10 9 8 8 9 9 9 9 11 14 15 15 15 16 17 19 20 22 25 27 30 32 34 36 37 39 41 44 46 48 48 42 40
10 10 10 7 9 8 9 10 12 12 11 10 10 9 9 9 8 9 11 13 13 14 15 16 16 18 20 21 24 26 29 31 33 35 37 38 40 42 45 47 47 45 40 39
9 11 12 10 11 10 11 12 14 13 13 11 10 9 9 8 8 10 11 12 13 14 15 16 17 19 21 23 26 28 30 33 35 36 37 39 41 43 46 47 45 42 39 40
14 15 16 14 13 11 11 13 14 14 12 11 10 10 8 7 9 11 12 12 13 14 16 17 19 20 22 25 27 29 31 33 35 35 37 40 42 44 46 45 42 39 38 37
15 16 14 12 11 11 13 15 15 14 14 13 11 8 7 9 11 12 13 13 14 15 17 19 20 22 25 27 28 30 32 34 34 36 39 41 43 45 44 42 39 38 37 35
18 17 15 12 10 10 13 15 16 16 13 10 7 6 8 10 12 13 14 15 16 17 19 21 23 25 26 28 29 31 32 33 35 37 40 43 44 43 40 38 37 36 36 33
18 16 14 12 8 13 15 18 15 13 10 7 6 7 8 11 13 14 15 16 18 19 21 23 24 25 26 28 30 31 32 34 36 39 42 44 42 39 37 36 35 35 32 30
18 19 20 14 10 16 17 15 13 11 7 5 5 7 10 12 14 15 16 18 20 22 23 24 25 25 27 28 29 31 33 36 39 42 42 41 38 37 36 35 34 32 31 29
19 18 15 11 12 16 17 15 11 7 5 4 7 10 12 14 15 16 18 20 22 23 24 25 25 26 27 29 30 32 35 39 41 42 39 36 36 36 35 34 32 30 27 26
16 16 16 15 16 16 15 11 8 5 5 7 10 12 14 15 16 18 19 21 23 24 24 25 26 27 28 29 32 35 39 41 41 38 35 34 34 34 33 31 29 27 25 25
16 17 16 17 18 16 11 8 6 5 7 10 13 14 15 17 18 20 21 23 24 24 25 25 26 27 29 32 35 38 41 39 36 35 34 33 33 32 31 29 27 25 23 22
18 19 19 18 16 12 9 6 5 8 11 13 15 16 17 18 20 21 23 23 24 24 25 25 26 28 31 35 38 40 37 36 35 34 33 32 31 30 29 27 25 22 21 17
19 20 19 16 12 9 6 5 8 11 14 15 16 16 18 20 21 22 23 24 24 23 23 25 28 31 35 38 38 37 36 34 33 32 31 31 30 29 27 25 21 19 17 11
19 16 14 12 9 5 6 10 13 15 15 15 16 18 20 21 22 23 23 22 22 22 24 27 31 34 37 37 36 34 33 33 32 31 30 29 28 27 25 21 17 15 10 7

GFSNGP_700_spd_030.txt.gz
Wind_Speed
29 31 17 37 40 45 49 34 29 52 39 23 23 22 20 20 21 20 19 18 20 21 21 23 25 25 25 25 25 25 26 26 27 29 32 33 35 37 38 39 39 39 39 40
15 13 19 24 28 38 40 41 45 13 16 16 20 23 23 22 20 17 14 14 15 19 20 21 21 22 22 24 25 25 25 26 28 30 32 35 36 36 37 37 37 38 40 42
11 6 12 12 20 21 27 22 14 12 16 24 23 17 11 11 14 12 9 9 12 12 13 14 17 19 21 22 23 24 24 26 28 30 33 35 35 36 37 37 37 38 40 43
6 6 3 4 2 6 11 9 15 15 16 16 11 13 12 13 8 6 4 3 9 11 12 13 15 17 19 20 21 21 23 26 28 31 32 32 34 36 35 36 38 39 41 44
4 5 3 4 2 2 11 15 15 19 17 15 11 12 14 9 8 7 6 9 10 10 11 12 13 15 16 17 19 21 23 26 28 29 31 32 33 33 35 36 38 40 42 45
5 2 1 4 6 3 4 7 13 17 19 24 23 19 16 14 13 11 11 11 9 9 11 12 13 14 15 16 18 21 24 26 27 29 30 31 31 33 36 38 39 42 43 45
8 3 4 3 3 5 3 2 7 12 17 18 20 20 17 13 11 11 12 11 11 11 11 12 12 12 14 17 20 22 23 25 26 28 29 29 31 34 37 39 40 42 44 45
8 3 5 1 2 3 4 6 4 7 12 16 18 15 13 13 12 11 11 12 13 12 10 10 12 14 16 19 20 21 23 24 26 27 28 30 32 34 38 40 42 43 45 46
11 4 5 5 4 5 3 1 1 5 10 13 13 15 13 12 12 12 11 12 12 12 11 11 13 16 17 18 19 21 23 24 24 25 28 31 34 36 38 40 42 44 47 49
17 14 14 10 9 2 3 3 3 5 8 11 13 14 13 13 13 13 12 12 11 11 12 13 14 15 16 17 20 20 21 21 23 26 29 32 35 39 40 42 43 45 48 50
20 13 17 13 8 2 3 1 2 5 8 8 9 12 11 12 13 12 11 10 11 12 12 12 13 14 16 17 18 19 20 22 25 28 31 33 36 38 40 41 44 47 49 52
4 10 7 13 7 3 2 3 5 5 5 10 12 10 13 12 11 10 10 10 10 9 9 10 13 14 15 16 18 20 22 25 27 30 33 35 37 36 38 40 42 45 48 50
8 8 11 16 10 8 7 5 6 7 9 7 11 11 9 7 7 8 8 7 6 7 10 12 13 14 16 18 19 21 23 26 29 31 33 35 37 39 41 39 42 45 47 47
11 6 6 9 13 14 11 9 9 9 9 10 9 8 7 6 6 6 6 5 7 9 11 12 14 16 17 18 20 22 25 28 30 32 35 36 38 39 42 44 46 47 46 44
15 9 9 8 9 10 10 9 9 9 9 9 9 7 6 5 5 5 4 6 8 10 11 13 15 16 18 20 22 24 27 29 31 34 35 37 39 41 43 45 47 47 45 40
10 10 12 8 8 8 7 9 11 11 11 11 8 6 6 5 4 4 6 8 10 11 13 14 16 17 19 21 24 26 28 30 33 34 35 36 38 41 43 46 47 45 40 39
10 9 11 10 9 9 7 10 12 12 11 8 7 7 6 4 5 7 9 10 11 13 14 15 17 18 20 23 25 26 29 31 33 34 35 38 40 42 45 46 45 41 37 37
15 14 12 10 8 11 10 14 15 13 11 10 9 7 6 5 7 8 10 11 13 14 15 16 18 20 22 24 26 28 30 31 32 34 36 38 41 44 45 44 40 38 36 35
18 15 12 12 11 10 11 14 14 13 12 10 7 8 7 7 7 9 10 12 14 15 16 18 20 22 24 26 28 29 30 31 33 35 38 41 43 44 42 39 38 37 36 35
23 18 14 14 13 12 12 15 15 14 12 9 9 7 7 6 8 10 12 14 15 16 18 20 22 23 25 28 29 29 31 33 34 37 41 43 44 41 38 37 36 36 35 33
20 18 18 14 14 9 11 16 15 12 11 11 8 7 6 7 10 13 15 15 16 18 19 21 23 25 27 28 29 30 32 34 37 41 43 42 39 38 37 36 35 34 32 29
21 20 22 22 16 13 17 18 15 14 12 9 6 5 7 10 13 15 15 16 18 19 21 22 24 26 27 28 29 31 34 37 40 41 40 38 37 36 36 34 32 30 28 27
20 18 19 16 14 13 16 17 16 13 9 6 5 7 10 13 14 15 16 17 19 20 22 25 26 26 27 28 30 33 37 39 40 38 36 35 35 35 34 32 31 29 27 24
18 18 20 20 17 16 16 15 12 10 7 5 7 10 13 14 15 15 16 18 20 23 24 25 26 26 27 30 33 36 39 39 36 35 34 34 34 33 32 30 28 26 23 21
17 20 20 18 19 18 16 12 10 6 5 7 10 13 15 15 15 17 19 20 22 24 25 25 26 27 29 32 35 38 37 35 35 35 33 32 32 31 29 27 25 23 19 15
19 19 20 20 18 15 12 10 7 5 7 10 13 14 14 15 16 18 20 22 23 24 25 25 26 28 31 34 37 36 34 34 33 32 32 31 30 28 26 25 22 18 14 9
23 23 21 19 15 12 10 8 6 7 11 13 13 14 15 17 19 21 22 23 24 24 24 26 28 31 33 36 35 32 32 33 33 32 30 29 28 27 26 23 17 12 7 5

GFSNGP_700_spd_033.txt.gz
Wind_Speed
44 43 38 27 29 28 47 48 29 29 38 41 24 14 12 20 22 20 20 20 22 23 23 22 24 26 28 28 27 27 27 28 29 29 30 31 33 37 37 39 39 41 41 41
42 40 23 36 32 30 37 40 39 31 43 25 14 16 17 16 19 20 21 21 21 21 19 20 21 23 25 26 27 28 29 29 29 29 30 32 37 36 37 38 40 41 41 42
14 14 10 7 24 36 37 36 37 34 26 11 11 12 14 20 20 17 17 17 17 16 17 17 18 19 21 23 25 26 27 27 27 28 31 34 35 35 37 39 39 39 41 43
11 7 3 6 5 20 32 38 39 39 16 9 12 15 20 21 19 18 15 14 14 15 15 17 18 19 21 21 22 23 24 24 26 29 31 32 33 35 37 37 38 39 41 43
8 9 4 6 7 12 21 17 14 12 15 17 18 17 22 21 18 16 13 13 13 13 13 13 14 15 17 18 19 20 21 23 26 28 29 31 33 35 36 36 38 40 42 44
8 4 2 5 6 5 10 13 12 17 18 19 20 21 19 15 16 16 18 15 13 13 13 13 13 14 15 16 17 19 20 23 25 27 29 31 33 34 35 36 38 41 41 44
11 4 3 4 6 7 4 5 19 23 23 20 19 14 13 11 11 12 14 15 16 14 12 12 12 13 13 14 16 18 20 23 25 27 29 31 32 32 34 37 39 41 43 45
7 4 3 3 2 3 6 6 2 12 19 22 18 16 17 14 12 12 14 15 15 13 12 13 13 12 12 14 16 18 20 22 25 27 28 29 30 33 36 38 40 43 45 45
5 2 1 2 4 4 2 1 2 6 12 16 17 15 12 12 13 14 15 14 15 14 13 12 11 12 13 15 16 18 21 24 26 26 27 29 31 33 36 39 42 44 46 47
7 10 12 7 4 5 5 4 4 5 9 15 15 15 12 11 11 13 14 13 12 11 11 11 11 12 13 15 17 20 22 23 24 25 27 30 33 36 38 41 43 45 46 48
13 13 8 9 6 1 1 2 4 4 8 9 11 11 10 10 10 11 11 11 10 9 9 10 10 12 14 16 18 20 21 21 23 25 28 31 34 37 39 41 44 46 48 49
7 3 7 3 7 3 5 4 4 6 3 8 10 7 10 11 11 10 9 8 8 9 9 9 11 13 15 16 17 18 18 21 24 27 30 32 35 36 39 42 42 44 46 49
15 7 8 9 11 5 5 5 8 8 9 5 11 11 12 10 9 8 8 8 8 7 8 10 12 13 14 14 15 17 20 23 26 29 32 34 36 39 40 36 38 42 46 48
12 11 9 13 13 8 7 10 10 11 11 12 10 12 11 8 7 7 7 7 7 7 8 9 10 11 13 15 17 19 22 24 27 30 33 35 37 39 40 42 44 45 46 47
12 11 7 6 9 8 10 10 10 10 10 11 12 9 7 6 6 6 6 5 5 6 8 9 11 13 15 16 19 21 24 26 29 32 34 36 38 39 41 43 46 48 47 43
14 11 10 9 9 10 10 11 10 10 11 10 8 6 5 5 6 5 4 5 6 7 9 11 12 14 16 18 21 23 26 28 31 33 35 36 38 40 42 45 47 46 43 42
10 8 12 10 9 8 8 10 10 9 9 9 7 5 3 5 5 5 5 5 7 9 10 12 14 16 18 21 23 25 27 30 32 34 35 37 39 42 45 47 46 43 41 39
16 15 13 9 8 9 9 11 13 13 11 9 6 5 7 6 5 5 6 7 9 11 13 14 16 19 20 22 24 26 29 31 32 33 35 37 41 44 45 44 42 41 39 37
16 13 11 9 10 11 10 12 16 15 12 9 7 7 7 6 6 6 6 8 11 13 15 16 18 20 21 23 25 27 29 30 32 34 37 40 43 43 42 41 40 39 38 37
22 18 16 13 14 13 13 15 15 13 10 9 8 8 7 6 5 6 9 11 13 15 16 17 19 21 22 25 26 28 29 31 33 36 39 42 42 41 40 39 39 37 37 35
23 20 17 15 15 17 17 15 15 15 12 11 10 8 6 4 5 8 11 13 15 16 17 18 20 22 24 26 27 29 30 32 36 39 41 41 40 39 39 37 36 35 34 31
21 21 16 18 14 16 18 17 17 14 12 11 9 7 4 5 8 11 14 15 16 16 18 20 22 23 25 26 28 29 32 35 38 40 40 38 39 38 36 35 34 33 31 28
19 20 21 22 20 19 13 17 19 15 13 9 7 4 5 8 11 14 15 15 16 17 19 21 22 24 26 27 29 31 34 37 39 39 37 37 37 36 35 34 32 30 28 25
20 20 19 23 19 15 14 16 15 12 10 7 4 5 8 11 14 14 15 16 17 19 20 22 24 26 27 29 31 34 37 39 39 36 36 36 35 34 33 32 29 27 25 21
19 17 18 20 17 18 17 14 12 10 8 5 5 8 12 14 14 14 15 16 18 21 22 24 26 27 29 31 34 36 38 38 35 34 35 35 33 32 31 28 26 24 19 14
18 20 23 20 18 17 15 13 11 9 6 5 8 12 13 13 13 15 16 18 21 23 25 26 27 28 30 33 35 37 37 35 34 34 34 33 32 30 28 26 24 18 13 8
23 24 21 22 21 18 15 13 10 7 5 8 11 12 13 13 14 16 19 21 23 25 26 26 28 30 32 34 36 36 33 33 34 33 32 31 29 28 27 23 17 10 6 5

GFSNGP_700_spd_036.txt.gz
Wind_Speed
39 42 49 51 46 32 37 48 26 42 38 39 36 30 23 25 6 12 9 19 18 20 25 27 26 24 25 26 27 28 28 27 26 27 27 27 29 32 35 35 38 40 40 41
43 37 32 27 27 39 30 28 38 42 39 34 31 15 17 16 11 13 12 17 18 20 20 21 21 21 23 25 26 26 26 26 26 27 27 29 31 33 34 37 39 40 40 40
27 35 25 10 10 22 27 28 22 31 14 14 8 10 5 5 14 18 16 14 17 16 15 15 16 19 21 23 24 24 25 25 26 27 28 29 31 32 34 37 38 39 39 39
22 21 5 17 20 11 13 18 24 27 22 10 13 5 9 13 17 17 16 16 17 16 16 16 17 19 21 21 21 22 23 24 25 26 26 28 29 32 35 36 37 37 38 41
7 13 11 17 19 17 5 8 12 13 8 2 1 13 19 20 20 18 17 16 14 13 15 16 17 18 17 18 19 20 21 21 21 22 24 26 30 32 33 35 35 36 39 41
11 5 3 12 13 7 9 11 14 18 16 16 13 18 18 21 22 22 20 17 15 16 16 16 15 15 15 15 16 17 17 17 18 21 25 27 29 31 33 33 35 38 39 42
15 5 7 10 9 7 6 3 13 11 10 12 17 18 13 11 11 13 16 17 17 16 13 12 12 13 13 13 13 13 14 16 19 22 25 27 29 30 31 34 37 39 40 42
9 6 3 6 1 4 4 1 5 13 17 11 10 15 14 16 17 15 15 15 15 13 12 11 11 10 10 10 11 13 15 18 21 23 25 27 28 30 33 35 37 40 41 42
6 2 0 5 3 3 3 3 3 8 14 14 12 11 13 15 14 12 12 12 13 13 11 10 10 10 10 10 12 14 17 19 21 23 24 25 28 31 34 37 39 41 44 45
6 3 8 10 2 3 5 5 4 3 10 14 15 15 14 15 13 13 13 13 11 10 10 10 9 9 10 11 13 16 18 19 21 22 24 27 29 31 34 37 40 42 45 47
7 8 11 6 7 1 2 6 5 5 10 15 17 15 11 12 12 13 12 12 12 11 10 9 9 9 10 12 14 16 18 20 21 23 25 27 30 33 35 38 42 45 47 49
4 5 5 2 6 2 1 4 9 10 10 17 16 11 12 12 13 12 11 11 10 9 8 8 8 9 10 13 15 17 18 20 21 24 26 28 31 33 37 38 40 43 46 49
12 7 6 4 9 5 6 6 5 8 11 9 14 12 13 11 12 11 10 8 7 6 6 6 7 10 12 14 15 16 17 19 22 24 27 30 33 35 35 34 39 43 46 48
16 14 13 12 11 6 8 7 5 4 9 12 9 11 11 10 7 6 6 5 5 5 6 7 9 11 12 13 14 16 18 20 23 26 29 32 34 36 39 42 44 43 45 47
10 12 8 8 19 11 10 12 8 9 8 10 11 10 9 6 5 5 5 6 6 6 7 7 8 10 11 13 15 17 19 22 25 28 31 33 35 38 40 42 45 47 47 43
10 13 9 6 11 9 6 13 11 11 10 10 9 8 7 6 6 6 7 6 5 5 5 7 8 10 12 14 16 19 22 24 27 30 32 34 36 38 41 44 46 46 43 42
15 14 8 9 9 10 10 14 13 10 10 11 10 8 5 4 7 6 5 4 3 4 6 8 10 12 14 16 19 21 24 26 29 31 33 35 37 40 43 45 45 43 41 40
9 9 12 10 6 8 10 14 14 13 11 11 11 5 5 7 6 4 2 2 4 6 9 11 13 14 16 18 21 23 25 28 30 32 33 35 39 42 44 43 42 42 40 37
14 13 12 12 12 11 10 12 15 15 14 10 5 5 6 6 4 2 2 3 6 9 11 13 14 16 18 20 22 25 27 29 31 33 35 38 40 42 42 41 41 40 38 37
16 16 16 15 14 14 13 15 15 17 14 10 9 6 6 4 3 2 3 6 9 11 13 14 16 18 20 22 24 26 29 30 32 34 37 40 41 41 39 40 39 38 36 34
20 17 17 16 14 17 17 16 16 15 10 9 8 8 5 3 2 3 6 9 11 13 14 16 17 20 22 24 26 28 30 32 34 37 39 40 40 38 38 38 38 36 34 30
21 20 17 16 16 17 19 19 18 17 16 11 8 6 5 3 3 6 9 11 13 14 15 17 19 21 23 25 27 29 31 34 36 39 40 40 38 37 38 37 35 33 30 27
17 18 19 18 18 16 17 19 17 14 12 11 9 7 4 4 5 9 12 13 14 15 16 18 21 23 25 27 28 31 33 36 38 40 40 37 37 37 37 35 33 29 27 25
17 21 21 21 21 20 18 12 14 16 14 11 8 6 4 5 8 11 12 13 14 16 18 21 23 25 27 28 30 33 36 38 40 39 37 36 37 36 35 32 29 27 25 20
19 18 18 18 22 19 13 12 16 15 12 10 7 4 5 8 11 11 12 13 16 18 21 23 25 27 28 30 33 36 38 39 39 36 36 36 35 34 31 28 27 24 18 12
19 17 16 17 19 16 18 17 14 13 11 9 6 4 8 10 10 11 13 15 18 21 23 25 27 28 30 32 35 37 39 38 35 35 35 35 33 31 28 27 23 17 10 5
21 19 21 25 22 21 19 16 14 13 10 7 4 8 9 9 10 12 14 17 20 23 25 27 28 30 32 34 36 38 36 35 35 35 33 32 30 28 26 21 14 7 3 3

GFSNGP_700_spd_039.txt.gz
Wind_Speed
35 40 43 45 47 42 36 46 25 40 34 29 24 23 12 24 22 16 11 21 25 25 29 34 37 34 31 26 25 25 25 25 25 24 24 25 25 26 28 31 32 33 36 39
40 28 27 38 26 25 17 24 36 34 38 24 21 14 14 13 16 6 15 22 25 26 29 32 31 28 25 24 25 24 24 24 22 23 24 25 25 28 30 31 32 34 37 38
16 28 30 9 29 27 13 14 13 29 10 7 5 9 9 6 7 13 23 26 27 28 28 26 24 21 21 22 21 22 22 21 22 22 23 25 27 29 30 30 32 35 36 37
19 24 4 17 25 23 14 10 12 11 3 1 7 6 4 8 17 21 25 26 27 27 25 22 20 20 20 20 20 19 19 19 21 22 24 25 27 27 28 31 33 34 35 36
6 14 21 10 27 25 20 23 6 4 1 6 10 13 10 16 22 24 24 25 23 22 20 18 18 19 19 18 17 17 18 20 21 22 22 23 24 26 29 30 32 33 35 37
10 5 4 11 19 16 14 17 19 15 15 16 18 17 19 22 25 25 26 22 21 20 18 16 16 17 16 15 15 16 17 17 18 18 20 22 24 26 28 30 30 32 35 38
21 7 13 13 14 11 9 1 8 10 15 16 18 19 21 19 23 24 22 20 19 17 14 14 14 14 13 14 14 13 13 14 15 18 20 21 24 26 27 29 32 33 36 38
8 5 7 9 9 9 9 3 1 11 8 9 14 19 14 14 16 18 12 12 17 17 16 14 13 11 11 11 10 11 12 13 16 18 20 22 24 25 27 30 33 35 37 38
7 3 6 5 7 9 9 8 4 9 20 14 11 15 7 10 11 11 12 12 13 14 11 11 10 10 9 9 9 10 11 14 16 18 20 22 23 26 29 32 34 37 39 40
8 2 7 9 4 6 8 6 10 2 8 14 17 13 12 9 16 13 12 11 10 11 11 8 8 9 9 8 9 11 13 14 16 18 19 21 24 27 30 33 36 38 41 42
5 6 10 11 6 3 2 4 7 4 10 18 17 12 17 17 16 14 12 12 11 10 9 9 8 7 8 9 10 11 13 14 16 17 20 23 26 29 31 35 38 40 43 45
5 4 4 2 6 5 4 2 3 6 10 14 15 12 13 13 13 12 11 11 10 11 10 8 7 8 8 9 10 11 13 14 16 19 22 25 27 30 33 35 38 41 43 47
12 10 6 3 7 6 6 10 7 7 9 11 13 11 12 11 13 12 12 12 11 9 8 8 7 7 7 8 9 11 13 16 18 21 24 26 29 31 31 32 36 40 44 46
13 14 12 9 10 9 9 5 11 10 12 12 11 14 13 12 13 14 12 10 9 8 7 6 5 5 6 8 11 13 15 17 20 23 25 28 30 33 35 38 39 39 42 44
12 13 12 10 15 14 11 10 8 13 12 14 17 15 15 11 10 9 9 8 8 6 3 2 3 5 7 10 12 14 16 19 22 24 27 30 32 34 36 39 42 44 44 41
8 14 12 8 6 15 9 9 13 13 14 14 13 12 10 9 8 8 8 7 5 2 1 3 5 7 9 11 13 16 18 20 23 26 29 31 33 35 38 41 43 43 42 41
13 13 12 8 7 10 8 15 18 12 11 11 10 9 7 6 6 6 5 4 2 2 2 3 6 8 11 13 15 18 20 23 25 28 30 32 35 38 40 42 42 40 39 39
13 15 11 11 12 10 12 14 15 13 11 11 11 4 4 7 7 6 4 4 3 1 3 6 8 11 13 15 17 19 22 25 27 29 31 34 37 39 41 41 39 38 38 37
11 14 14 13 14 13 14 14 16 15 14 11 12 3 6 8 7 5 5 3 1 3 6 9 10 12 14 16 19 21 24 27 29 32 34 36 38 40 40 38 36 37 37 35
13 14 15 15 16 15 16 18 17 17 16 15 9 6 7 8 6 5 3 0 3 6 9 10 12 13 16 18 21 24 26 29 32 34 36 37 39 39 37 36 36 36 35 33
16 16 16 15 15 17 18 15 16 18 19 12 9 10 9 7 6 4 1 3 6 9 10 11 13 16 19 21 24 27 29 31 33 36 37 38 38 36 35 35 36 35 33 28
17 17 17 17 16 17 19 18 18 17 14 10 10 11 9 7 5 2 3 6 9 10 11 13 16 18 21 24 27 28 30 33 35 37 39 39 37 35 35 35 34 32 29 25
16 18 18 16 17 19 20 21 21 18 17 16 13 10 9 6 2 3 6 8 9 10 12 15 18 21 24 26 28 30 32 35 37 39 38 36 35 36 36 34 33 29 26 22
16 18 19 19 20 22 19 20 22 16 15 15 13 11 8 4 3 6 7 8 10 12 15 17 20 23 25 27 29 32 34 37 39 37 35 36 36 36 35 33 29 27 23 17
17 19 21 21 21 22 20 19 16 15 17 15 12 10 6 4 5 7 8 9 11 14 17 20 23 25 27 29 32 34 37 38 35 35 36 36 35 34 32 28 27 22 14 7
17 18 20 21 21 21 20 15 14 18 16 14 12 8 5 5 6 7 9 11 13 16 19 23 25 27 29 31 34 37 36 34 35 36 36 35 33 31 27 25 20 13 5 2
19 19 19 20 20 22 19 20 19 17 16 14 11 7 5 6 8 9 10 12 15 19 22 25 26 28 30 33 35 34 34 36 36 36 34 32 29 26 22 17 11 5 3 4

GFSNGP_700_spd_042.txt.gz
Wind_Speed
25 29 35 39 38 33 40 46 36 50 29 25 23 24 18 16 18 25 22 13 23 33 31 31 37 39 41 39 33 28 25 23 22 23 23 24 24 24 25 26 29 31 33 37
34 28 20 28 29 24 20 16 23 27 34 19 13 19 20 13 15 13 7 17 26 32 30 29 32 38 37 33 28 24 23 21 20 22 23 23 24 24 25 28 30 32 36 35
15 19 32 5 18 26 18 11 10 11 7 8 8 7 7 14 13 6 12 22 29 31 31 33 35 33 29 27 23 22 22 21 21 22 22 22 22 24 26 28 32 33 34 36
20 22 3 9 18 24 17 21 7 6 3 3 8 13 14 5 3 8 17 24 26 29 31 31 29 28 25 23 21 23 20 21 22 20 20 21 23 25 27 29 30 32 33 34
7 12 21 2 22 22 14 20 14 5 3 7 9 10 7 16 15 20 27 31 34 34 31 29 27 25 22 22 20 20 19 18 18 19 20 22 23 25 25 26 29 30 31 32
10 6 4 8 21 15 7 13 16 14 12 14 14 14 16 19 25 27 30 30 31 31 29 26 24 21 20 19 18 17 17 17 18 19 20 21 21 21 24 26 28 29 31 33
24 10 13 13 13 11 7 10 14 11 12 20 21 19 21 24 25 25 23 25 25 23 21 19 18 18 18 17 16 16 16 16 16 17 18 17 19 22 24 25 26 29 32 35
16 8 9 9 9 10 9 14 5 5 8 11 18 17 22 21 23 22 19 21 20 19 20 18 17 16 16 15 15 14 14 14 14 13 14 17 20 22 23 25 28 30 32 35
11 7 7 10 11 10 11 6 4 4 5 16 14 10 12 16 20 22 17 17 19 16 16 18 17 15 12 11 10 11 11 10 11 13 15 18 20 22 24 27 30 32 34 36
9 2 9 12 12 9 8 11 11 5 17 17 6 11 13 13 15 12 14 16 17 17 15 13 15 14 14 11 10 8 8 9 11 14 17 18 20 23 26 29 31 34 36 39
10 7 9 9 9 7 3 5 7 2 5 17 15 14 9 8 12 10 11 14 15 14 13 11 10 10 8 6 5 6 8 11 13 15 17 19 22 25 28 30 33 36 39 41
9 9 8 7 4 6 2 2 4 4 10 14 15 12 14 13 13 14 14 14 14 14 11 9 7 6 5 4 5 8 10 12 14 16 18 21 24 27 29 33 36 39 40 43
14 14 12 8 5 7 7 6 6 7 11 14 14 15 17 17 17 16 16 14 13 11 11 9 7 5 5 6 8 9 11 13 15 17 20 23 25 28 30 33 34 37 40 41
12 10 12 11 9 9 9 8 11 6 12 14 13 15 15 16 15 15 14 14 13 11 8 6 5 5 6 7 8 10 12 14 17 19 22 25 27 30 32 33 34 35 38 42
23 20 15 15 14 15 16 10 6 11 16 13 15 15 15 12 12 13 12 10 9 8 7 7 6 5 5 7 9 11 14 16 19 21 24 27 29 32 34 36 38 40 41 39
14 14 17 16 13 16 17 14 11 15 15 14 14 15 14 12 10 10 11 11 10 8 6 5 4 4 6 9 11 13 16 18 21 24 26 28 31 33 35 37 39 40 40 40
12 12 17 16 8 8 13 16 18 13 15 14 12 11 10 10 10 10 10 9 8 7 5 3 3 6 8 10 12 14 17 20 22 25 28 30 33 35 38 40 40 39 38 37
10 16 12 11 8 10 14 13 18 17 15 13 12 9 7 8 9 9 8 8 7 5 2 2 6 8 10 11 14 16 19 22 25 27 30 32 35 37 39 39 39 37 35 35
5 10 12 16 10 10 10 12 16 16 13 11 9 3 5 9 10 9 8 6 5 3 3 5 7 9 11 13 16 18 21 24 27 29 32 34 37 39 39 38 35 34 34 33
9 7 10 14 13 11 11 15 14 16 15 11 12 7 7 9 9 8 7 6 3 3 5 7 8 10 12 15 18 21 24 27 29 32 34 36 38 38 35 34 34 34 33 32
12 13 13 14 14 16 17 16 15 17 18 18 14 10 10 10 9 9 7 4 3 5 7 8 10 12 15 18 21 24 26 29 31 34 36 38 36 33 33 34 34 33 31 28
17 15 16 16 17 17 20 21 20 20 21 20 12 13 11 10 9 7 5 3 5 7 8 9 12 14 18 21 23 26 28 31 34 37 37 35 34 34 34 34 33 32 28 23
16 16 17 17 18 19 21 22 22 22 20 14 12 12 12 11 9 6 4 5 6 7 9 11 14 17 20 23 25 28 31 34 36 36 36 36 36 35 35 33 32 28 24 20
16 18 18 19 20 21 22 24 27 23 21 17 17 15 13 11 8 5 6 6 6 8 10 13 16 20 23 25 28 31 33 35 35 36 37 37 37 35 34 32 28 25 20 12
14 17 19 20 21 23 25 28 23 22 16 16 17 15 13 10 7 6 6 7 8 10 12 15 18 21 25 28 31 33 35 35 35 37 38 38 36 34 30 26 24 18 10 3
14 18 19 19 22 23 26 21 17 18 14 17 17 16 13 9 7 7 7 8 9 11 14 18 21 24 27 30 33 34 34 35 36 39 39 37 33 27 23 20 15 9 2 2
14 18 21 23 24 26 26 20 20 17 20 20 17 15 11 8 7 7 8 9 10 13 16 20 23 26 28 31 32 33 34 37 39 39 36 30 23 20 16 12 8 4 3 3

GFSNGP_700_spd_045.txt.gz
Wind_Speed
24 24 23 25 28 29 33 44 36 55 46 43 35 32 28 24 25 19 22 28 26 27 25 28 30 31 36 38 37 34 31 29 26 24 21 22 25 26 25 24 25 27 29 31
24 17 14 21 24 25 27 23 27 27 31 13 11 12 19 21 18 32 30 25 22 20 26 26 27 28 33 35 35 33 30 26 24 20 25 24 23 23 23 25 26 28 30 32
8 10 20 7 9 20 13 11 15 20 14 14 17 19 20 22 17 21 20 16 15 19 24 25 28 29 31 34 31 26 22 21 24 23 22 21 21 21 23 25 26 28 31 35
11 12 3 6 12 20 11 12 15 8 8 11 15 17 15 10 6 4 4 10 17 22 27 27 30 30 28 30 27 28 24 26 23 21 19 19 21 23 23 24 27 31 31 31
5 10 19 9 12 19 11 10 17 8 7 8 10 14 6 2 2 3 7 13 18 24 26 26 30 31 32 29 29 26 27 25 19 17 17 19 20 21 23 27 27 27 28 29
4 4 3 2 19 20 8 3 3 10 11 5 3 12 17 15 14 13 17 22 25 28 28 27 33 35 30 30 24 23 14 13 14 15 16 17 20 22 24 22 25 26 27 29
15 9 12 11 13 13 8 11 11 6 10 12 7 9 17 19 21 25 26 28 28 28 24 25 22 21 19 16 12 12 12 12 13 14 16 18 19 18 20 22 24 25 28 31
12 8 10 5 12 10 13 17 14 2 7 12 10 10 13 16 17 19 21 22 23 22 21 19 17 15 14 14 13 13 13 13 13 14 14 14 16 18 21 22 24 26 29 31
10 9 7 16 14 12 12 13 11 8 5 3 6 11 16 18 17 18 20 20 19 19 19 18 18 16 13 11 10 10 11 11 12 11 12 14 17 19 20 22 25 27 30 32
10 3 9 15 14 15 12 10 12 12 15 6 10 12 10 10 14 11 12 13 13 13 13 13 14 14 13 10 8 10 10 8 9 11 13 15 17 19 21 24 27 30 32 34
15 13 8 10 12 9 6 8 12 9 7 16 9 7 4 10 12 11 13 12 11 12 12 12 15 13 11 10 8 7 7 8 10 11 13 15 18 21 24 26 29 31 34 37
7 13 11 13 13 9 8 8 6 7 1 13 16 12 8 7 6 8 11 12 13 12 12 10 11 10 7 5 5 6 7 8 10 13 15 18 20 22 25 28 31 34 38 40
18 18 17 16 12 9 10 10 6 2 2 7 10 14 15 11 8 11 11 12 12 12 13 11 7 6 5 4 5 6 8 10 13 15 17 20 22 25 27 30 33 35 37 39
12 14 13 9 12 12 10 7 6 9 4 8 8 9 12 13 12 13 13 12 13 13 12 10 7 5 4 4 6 8 10 12 15 17 19 21 24 26 30 32 34 36 40 41
25 23 21 17 14 15 13 13 6 6 8 10 9 11 12 11 12 13 13 13 13 11 9 7 6 5 4 5 7 10 12 14 16 19 21 23 26 29 32 34 36 38 39 38
18 22 24 23 17 15 16 13 11 13 13 13 10 13 13 13 12 13 13 12 10 8 7 6 5 3 5 7 10 12 14 16 18 21 23 26 29 31 34 37 39 39 39 38
12 10 11 13 15 16 13 14 12 12 15 15 13 12 12 11 10 9 9 9 9 9 6 4 3 5 7 10 12 13 15 18 20 23 26 28 31 35 37 39 39 37 36 36
9 10 11 14 15 12 10 13 19 14 14 12 11 9 9 9 8 8 9 8 7 6 5 4 5 7 9 11 12 14 17 20 23 26 29 32 35 37 39 39 37 36 35 34
7 7 7 9 11 8 13 15 17 16 14 12 10 6 5 9 11 10 9 8 7 6 5 5 7 9 10 11 14 17 20 23 25 28 31 34 37 39 38 36 35 35 35 33
15 15 14 9 10 10 9 14 15 15 11 11 8 5 4 8 10 9 8 7 6 4 4 7 8 9 11 13 16 19 22 25 28 31 34 37 39 38 37 36 36 35 33 31
12 11 14 14 11 10 13 12 12 14 15 15 12 9 7 8 8 9 8 6 5 5 6 8 8 10 12 15 19 22 25 28 31 34 37 38 37 38 37 37 36 34 32 29
14 13 13 15 17 16 16 18 19 19 17 17 15 14 10 9 8 8 7 6 6 7 7 8 9 12 15 18 21 24 27 30 34 37 37 38 39 39 38 36 34 32 28 24
19 18 17 17 17 17 18 21 21 19 19 19 20 13 12 12 11 10 9 7 7 7 7 9 11 14 17 21 24 26 29 33 36 37 38 40 41 40 37 34 31 27 24 19
15 17 18 18 18 18 20 22 23 24 24 23 17 16 14 12 11 10 8 7 7 8 9 10 13 16 20 23 25 28 32 34 36 37 39 41 40 37 32 28 26 23 17 10
12 14 17 18 19 19 21 23 25 27 26 22 20 17 16 14 12 10 8 8 8 9 10 12 15 18 22 24 27 30 33 34 36 38 40 38 34 30 28 26 22 16 9 4
12 14 17 18 18 20 22 26 26 26 26 19 16 18 16 14 12 10 9 9 9 10 11 13 16 20 23 26 29 31 33 34 37 38 36 32 29 27 24 20 15 10 7 4
11 13 17 20 23 25 25 24 25 21 17 17 16 16 16 14 12 10 10 9 11 11 13 15 18 21 25 28 30 31 33 35 36 34 30 28 24 21 18 14 11 7 5 4

GFSNGP_700_spd_048.txt.gz
Wind_Speed
15 17 16 20 24 23 28 36 30 47 46 48 31 26 22 19 22 25 20 32 32 30 25 26 18 27 30 30 25 27 30 31 30 29 27 26 24 25 24 24 27 25 26 27
19 12 7 13 16 19 23 31 33 31 39 31 22 24 32 32 29 27 22 29 28 26 26 26 21 30 27 22 25 27 30 29 27 28 27 23 22 24 28 25 23 23 23 25
6 3 12 16 8 6 14 15 13 24 28 19 24 26 30 30 25 16 12 23 28 27 23 18 22 21 19 23 26 29 28 27 27 24 22 24 25 24 18 19 23 24 26 27
8 12 4 2 6 14 19 13 13 21 19 18 23 27 31 22 17 13 4 6 12 14 15 20 21 21 24 26 27 28 28 25 24 23 24 27 20 20 20 20 22 22 26 30
3 9 15 5 6 17 21 11 9 15 15 17 16 18 17 10 11 11 5 5 10 14 21 21 21 25 26 27 27 27 23 26 29 32 24 18 18 17 17 17 21 25 26 26
3 4 3 6 13 14 16 5 16 15 13 15 8 13 15 13 9 9 6 4 9 16 17 19 27 31 30 28 31 27 30 29 27 18 13 9 10 12 16 20 21 22 23 25
16 7 11 5 10 14 5 10 22 6 12 10 6 7 12 12 10 11 12 11 11 12 16 24 28 29 31 31 27 24 19 12 9 7 5 7 13 14 15 17 18 21 23 26
15 7 10 3 10 13 18 18 21 14 10 6 4 5 8 9 10 15 16 16 12 15 20 20 18 17 16 15 14 12 11 7 3 3 7 7 9 12 15 18 20 22 25 27
11 3 1 10 18 20 19 19 14 15 11 9 3 3 3 5 7 9 10 12 14 13 16 18 17 17 12 12 10 7 5 3 3 2 6 8 11 14 16 19 22 24 26 28
6 4 3 10 13 15 16 10 9 13 10 7 3 7 7 6 7 6 9 9 9 8 8 10 12 12 10 8 8 5 2 2 3 6 8 11 14 16 18 21 23 25 27 30
11 9 7 9 9 15 11 10 10 12 9 11 5 8 3 8 6 4 5 8 9 10 10 9 8 7 5 4 1 1 1 3 6 8 11 13 15 17 19 22 24 27 30 33
7 10 10 14 15 15 13 11 10 11 7 10 13 5 4 3 8 8 6 6 6 6 7 6 5 4 2 1 1 2 4 6 8 10 12 14 16 19 22 24 27 30 33 36
21 19 18 18 13 12 12 12 8 7 5 1 11 11 8 7 4 4 8 9 8 5 7 3 4 2 1 2 3 4 6 7 9 12 14 16 19 21 24 27 30 32 35 38
16 17 16 13 11 11 12 11 8 9 11 4 6 9 12 9 6 5 8 10 8 6 6 7 5 3 3 3 4 6 8 10 12 14 17 19 21 24 27 29 31 35 39 41
26 26 24 23 19 17 15 13 11 8 4 5 7 7 10 11 10 10 10 10 11 8 10 9 5 3 3 4 6 8 10 12 14 16 19 21 24 27 29 32 35 38 39 37
15 15 17 20 20 20 19 13 11 10 10 8 9 6 10 11 11 9 10 10 8 8 6 5 4 3 4 6 8 10 12 13 16 18 21 24 26 29 32 36 38 38 37 36
11 13 11 11 12 13 12 12 11 11 13 11 9 10 10 10 10 9 8 9 8 8 6 5 4 4 5 7 9 11 13 16 18 21 24 26 29 33 37 39 39 37 35 35
9 8 9 11 11 9 9 8 10 11 14 12 13 10 9 9 8 8 7 6 6 6 6 5 4 5 7 9 10 12 15 18 21 23 26 29 34 37 39 39 38 37 35 34
7 9 9 9 8 8 8 10 14 16 18 16 11 8 6 6 8 8 7 6 6 6 6 4 5 7 8 10 12 14 17 20 22 25 29 34 37 39 40 40 39 38 36 34
4 6 10 14 11 9 10 10 13 13 13 11 11 6 2 4 6 7 6 6 7 6 5 4 6 7 9 11 14 16 19 22 25 29 33 36 38 39 40 41 41 38 35 31
10 10 10 8 8 9 11 10 10 11 9 10 8 5 4 5 7 8 8 8 7 6 5 6 7 8 10 13 16 19 21 24 28 32 35 37 39 41 42 42 39 35 29 25
11 12 11 11 10 9 10 11 13 14 14 14 13 9 8 8 7 7 9 9 7 5 6 7 8 10 12 15 17 20 23 27 31 34 36 39 41 41 40 37 32 27 24 21
13 14 15 14 15 17 17 16 18 18 17 15 14 14 11 11 11 10 9 8 6 6 8 8 9 11 14 17 19 22 26 29 32 35 37 39 40 39 36 32 27 23 19 15
14 16 18 18 17 17 18 18 19 22 21 19 19 20 16 11 12 12 10 8 7 8 8 9 11 13 16 18 21 24 28 31 33 36 37 38 37 34 29 26 23 19 15 11
10 12 14 15 16 17 18 19 21 22 23 23 23 20 17 16 16 14 12 10 9 9 9 10 12 14 17 20 23 27 29 32 34 35 36 35 32 26 23 21 18 14 11 9
12 13 13 13 14 17 18 20 22 22 23 26 26 21 19 17 15 13 12 10 9 9 10 12 14 16 19 21 25 28 30 32 34 35 34 31 26 21 19 17 13 10 8 6
14 14 13 14 16 17 18 20 21 21 24 28 21 16 20 19 17 15 13 10 9 9 12 13 15 17 20 23 26 29 31 33 34 34 31 27 20 18 17 14 10 7 5 4

GFSNGP_700_spd_051.txt.gz
Wind_Speed
14 15 16 15 19 19 28 33 25 39 38 34 32 30 27 31 37 38 33 33 27 31 30 32 29 20 22 25 23 23 19 25 28 25 27 27 27 27 25 30 26 27 29 36
12 4 11 16 15 17 22 26 35 37 40 28 32 28 26 32 36 34 27 22 17 18 19 22 19 19 18 19 22 22 26 26 25 27 26 26 26 27 29 29 25 30 27 20
4 2 7 9 4 11 11 17 23 25 24 27 28 30 30 33 22 20 19 15 12 20 21 22 22 13 13 20 24 26 23 27 28 28 29 30 28 30 25 28 31 19 21 20
6 5 2 8 4 4 11 13 11 16 20 21 25 25 26 26 18 17 11 8 6 5 9 15 13 14 19 22 22 22 26 28 30 32 32 28 27 28 28 20 19 17 14 22
3 6 13 3 2 9 14 12 13 19 13 17 21 17 19 18 17 11 5 2 1 5 8 10 13 15 19 22 22 28 31 29 33 32 27 31 29 27 19 11 10 14 18 22
0 2 3 6 6 12 13 3 22 20 9 14 15 13 14 19 17 12 7 4 4 1 5 9 14 16 16 20 24 29 32 30 28 23 22 23 19 4 6 8 12 16 19 21
12 5 11 4 3 11 7 10 21 20 18 17 11 9 12 17 17 10 9 8 8 7 5 8 11 15 11 15 10 17 22 19 16 14 10 7 5 3 6 9 13 16 19 21
11 6 9 2 3 11 18 18 20 17 17 18 12 8 8 11 14 18 17 19 5 3 6 6 7 9 14 14 15 18 18 17 11 9 5 3 3 4 8 11 13 16 19 22
10 3 3 6 11 14 16 17 13 11 15 15 12 4 5 7 10 13 15 20 20 22 23 24 25 23 22 19 17 16 12 11 9 7 4 1 4 7 10 12 15 18 21 24
8 4 3 5 10 9 15 13 11 10 15 11 7 6 4 8 13 8 14 15 15 15 17 19 21 21 18 16 16 15 11 9 6 3 1 3 5 8 12 15 17 20 24 27
18 9 12 9 9 12 15 15 9 10 12 5 1 4 3 4 4 8 11 12 17 18 19 19 19 18 16 11 10 8 8 7 4 3 5 8 11 13 16 18 21 24 27 29
20 10 8 10 13 17 13 11 9 9 10 4 10 3 5 3 5 3 5 6 9 13 13 14 12 12 9 8 8 9 8 6 7 8 10 12 14 16 19 21 24 27 29 32
19 23 20 19 16 11 8 9 6 5 8 5 8 5 4 3 5 7 5 4 6 9 10 9 7 6 7 8 9 8 7 7 9 10 12 14 16 19 22 24 26 29 33 37
12 16 20 18 13 11 13 12 10 7 8 12 6 11 12 8 6 5 6 6 3 4 8 5 6 6 5 5 5 5 6 8 10 11 13 15 18 20 23 25 29 34 38 39
26 25 21 19 21 22 19 16 14 11 8 3 7 7 8 11 9 6 8 9 8 4 4 1 1 1 1 2 3 5 7 9 11 13 15 18 21 23 27 32 36 38 39 39
12 15 16 15 15 15 14 13 14 10 7 6 9 9 10 11 11 10 10 9 9 6 7 5 3 2 2 3 5 7 9 10 12 15 18 21 24 28 32 36 39 41 42 42
13 11 12 11 11 11 11 9 9 6 3 11 13 10 12 12 13 10 13 12 10 9 6 5 4 3 3 5 7 8 10 12 15 18 21 24 28 32 36 39 41 43 43 42
21 12 10 9 8 8 7 9 8 8 7 9 10 13 12 12 10 8 8 7 7 6 6 6 5 4 5 7 8 10 12 15 18 20 24 27 31 35 39 42 44 44 42 38
13 12 8 7 8 12 11 10 9 10 11 13 15 12 12 11 10 8 7 7 7 7 7 5 4 5 7 8 9 11 14 17 19 23 26 30 34 38 41 43 43 41 38 32
4 7 9 9 5 3 7 11 10 13 19 17 15 13 10 9 9 9 9 9 9 8 7 5 5 7 8 9 10 13 16 18 21 25 28 32 36 39 42 42 40 36 32 27
9 10 14 11 8 6 7 12 13 14 14 13 11 8 7 8 9 10 10 8 8 7 6 5 6 7 8 10 12 14 17 20 23 26 30 34 37 39 38 37 35 31 25 19
10 8 9 8 4 6 7 7 11 11 10 10 9 8 7 8 8 8 9 9 9 8 7 7 7 9 10 11 13 16 19 22 25 28 32 35 36 36 35 32 28 22 16 12
9 11 13 11 11 11 13 16 18 16 14 12 10 8 8 8 10 10 9 9 9 8 7 8 9 10 11 13 15 17 21 24 26 29 32 34 34 33 29 25 20 14 11 10
11 13 15 15 15 15 15 16 14 14 16 19 16 13 14 13 11 11 11 10 11 10 9 9 10 11 12 14 16 19 22 25 27 30 32 33 31 29 23 19 14 9 8 7
8 9 11 13 16 17 17 16 17 20 19 20 21 20 20 15 14 16 15 14 13 11 10 10 11 12 13 15 18 21 23 26 28 30 31 31 29 25 19 15 11 8 5 4
12 12 11 11 12 14 16 17 18 19 20 20 22 23 24 18 18 16 16 16 14 12 11 11 12 13 15 17 19 22 24 27 29 31 31 29 25 20 16 14 10 6 4 3
15 13 14 13 14 15 16 18 18 19 21 23 22 22 26 17 20 19 17 16 14 13 11 12 13 14 16 18 20 23 25 27 29 30 29 26 21 17 16 13 9 5 4 3

GFSNGP_700_spd_054.txt.gz
Wind_Speed
13 10 9 10 12 16 30 31 20 28 33 29 29 28 29 31 31 31 25 24 24 25 22 20 21 26 25 25 19 17 18 19 21 22 28 25 31 29 29 29 29 31 35 34
9 11 17 23 23 23 26 28 35 36 36 24 25 27 29 28 31 26 22 22 21 19 8 7 8 13 18 16 16 16 18 19 19 23 22 24 24 26 27 31 30 40 35 27
1 4 6 12 16 15 19 16 20 27 26 24 23 24 29 25 27 27 21 16 13 9 9 8 9 14 16 11 14 19 20 19 26 25 26 22 24 27 29 36 31 30 28 23
3 3 3 2 6 5 6 9 9 13 18 17 18 24 21 24 23 23 14 9 6 8 6 5 7 9 8 13 16 14 11 22 15 23 19 26 24 28 37 26 31 17 13 14
3 6 13 2 5 2 8 11 3 16 14 12 17 19 15 19 17 18 14 7 4 4 6 6 4 6 7 7 9 6 7 9 13 25 20 22 29 31 28 22 13 10 9 12
1 3 3 7 4 5 11 5 16 18 15 18 19 13 14 16 18 15 13 8 4 2 4 4 5 5 5 8 12 11 9 17 20 19 14 15 20 16 10 6 6 8 10 13
11 6 9 5 9 7 4 8 20 20 17 17 18 12 12 15 15 18 14 5 5 5 3 3 5 4 3 3 7 8 11 8 7 12 16 14 10 6 4 5 6 8 11 14
10 7 9 4 4 4 12 15 18 15 12 13 15 7 9 9 13 13 17 13 3 6 6 6 5 6 8 11 11 16 19 20 19 17 12 9 6 2 3 6 8 11 14 17
8 3 4 5 6 9 10 16 15 14 13 14 9 2 8 11 7 9 15 20 23 20 17 19 15 20 20 21 22 20 19 16 14 11 8 5 3 1 2 5 9 12 16 19
9 4 14 14 11 14 10 16 19 13 13 15 6 3 2 8 10 14 15 19 19 19 19 21 22 22 20 20 20 18 15 12 10 8 5 4 3 5 8 11 14 17 20 23
17 12 10 10 8 8 14 16 15 12 13 12 1 3 6 2 11 10 13 17 19 18 18 18 20 19 17 16 15 13 11 10 8 6 4 5 7 9 11 13 16 19 23 27
22 12 15 10 11 13 15 10 11 7 9 7 7 4 5 6 8 7 6 10 13 14 14 15 16 14 13 14 12 11 10 7 6 5 6 6 8 10 14 17 21 24 27 31
19 21 24 23 21 19 14 7 9 10 9 8 1 4 3 8 8 8 8 8 13 11 9 8 9 11 11 10 9 9 7 6 6 7 8 11 13 16 19 22 25 29 33 38
13 15 18 20 19 18 16 12 13 12 9 8 10 8 10 13 10 10 11 11 9 13 10 8 8 8 8 7 7 7 7 7 8 10 11 13 16 19 22 25 30 34 38 41
22 23 24 23 20 20 22 22 21 15 13 11 8 9 13 12 9 10 12 9 10 10 4 4 4 5 5 4 4 5 7 8 10 11 14 16 19 21 25 29 34 38 41 45
14 11 12 16 18 19 19 17 15 14 11 10 10 11 12 13 14 14 12 12 12 7 5 2 1 2 1 2 4 6 7 9 11 13 16 18 21 25 29 33 38 42 44 46
23 17 15 11 14 15 14 14 14 12 10 11 12 14 12 15 16 15 12 11 9 9 9 6 4 2 1 3 5 7 8 10 13 15 17 20 24 27 32 36 40 43 45 45
19 21 19 15 13 11 11 10 12 10 10 8 13 13 14 14 17 13 15 13 8 9 7 6 5 3 3 5 6 7 9 11 13 16 19 22 26 30 34 38 41 43 41 37
16 15 17 15 11 10 12 11 11 10 12 10 9 12 14 16 14 13 12 10 8 8 7 6 5 4 5 6 7 8 10 12 15 18 21 25 29 33 36 38 40 40 34 27
9 11 11 11 13 12 11 13 16 13 12 13 17 16 14 13 13 12 11 9 10 11 9 8 7 6 6 7 8 9 11 14 16 20 23 27 30 34 36 37 37 32 25 19
5 9 13 11 8 5 4 9 10 12 17 20 15 14 13 13 13 12 9 10 9 9 9 9 7 6 7 8 9 10 13 15 18 21 24 28 31 33 34 35 31 24 18 11
13 14 11 8 6 7 6 9 12 15 15 13 12 10 9 9 9 9 11 12 12 12 10 8 8 8 9 9 10 12 14 17 19 22 26 29 31 33 33 31 26 18 11 6
6 8 11 13 9 6 8 11 12 15 17 16 13 10 11 12 11 10 10 10 10 11 11 10 10 9 10 11 12 13 16 18 20 23 26 29 30 31 30 27 21 14 8 5
7 8 9 11 11 13 13 13 15 16 19 17 15 15 14 13 13 14 15 13 14 13 13 11 11 11 11 12 13 15 17 19 22 25 27 29 30 30 28 24 18 12 9 7
9 8 8 11 14 16 17 17 17 18 17 22 21 22 20 19 17 14 16 16 15 15 14 13 12 12 12 13 15 16 18 20 23 26 28 30 30 29 27 21 17 14 10 8
13 12 12 12 11 13 15 17 18 19 20 21 24 21 23 22 23 16 18 19 18 16 15 14 14 13 14 15 16 18 19 21 24 27 28 29 28 27 24 19 16 14 11 10
20 19 17 15 14 14 15 17 17 18 19 20 24 24 23 25 26 22 17 21 18 17 16 15 14 14 15 16 17 18 20 22 25 27 28 28 27 24 21 18 16 14 11 10

GFSNGP_700_spd_060.txt.gz
Wind_Speed
7 7 5 4 7 18 25 24 14 10 14 12 15 19 15 16 20 21 23 27 26 18 20 21 18 17 14 12 16 20 19 19 23 24 22 25 26 25 23 22 26 28 30 29
6 8 13 15 13 11 13 18 25 23 16 13 15 13 12 17 20 21 27 26 18 14 15 13 13 9 9 12 11 15 17 18 17 16 18 19 19 18 19 28 28 25 22 26
2 3 5 10 6 15 19 19 15 16 9 9 5 9 15 16 17 19 24 19 17 12 11 9 8 9 11 11 9 10 13 13 13 14 14 16 17 18 19 19 24 18 19 24
3 3 2 2 5 2 2 3 6 5 5 8 12 14 16 15 17 19 21 18 14 9 10 8 6 5 3 2 0 2 8 9 10 9 12 12 14 16 9 10 13 17 21 23
2 5 10 0 5 4 2 1 3 5 9 12 15 15 15 15 18 14 20 20 11 6 7 5 4 5 4 3 4 6 5 3 5 3 7 9 5 10 12 14 8 10 17 11
1 2 2 3 6 2 3 6 8 8 11 12 13 15 13 12 17 16 17 17 5 2 2 1 1 2 5 5 4 1 4 4 6 3 4 4 5 4 7 8 4 10 8 3
6 4 8 7 9 3 1 0 9 7 10 11 12 13 11 14 17 14 14 5 2 1 2 2 3 3 1 3 6 7 8 6 7 7 8 7 12 14 11 10 9 5 6 3
6 5 6 5 8 5 1 7 9 12 14 10 11 12 8 14 11 6 9 6 0 5 3 4 8 9 11 11 11 13 17 18 18 19 18 15 13 11 8 5 5 4 5 5
8 1 2 3 4 3 5 11 12 14 13 11 10 11 7 10 9 6 6 9 9 10 6 9 13 18 19 21 22 22 21 19 16 15 13 11 9 8 7 6 5 3 6 9
8 2 7 6 11 7 6 9 12 12 12 11 12 6 6 4 7 4 7 10 11 12 13 13 14 17 15 16 18 18 16 14 12 11 10 9 8 8 6 6 7 9 11 14
17 15 15 12 11 6 4 6 11 10 11 12 9 7 7 5 1 4 4 5 7 8 10 9 10 13 13 13 15 14 12 11 10 9 8 6 5 6 6 7 10 13 17 21
27 22 22 17 17 12 9 12 12 11 12 13 9 7 10 7 3 3 4 1 4 5 6 6 8 9 10 10 10 11 9 8 7 6 5 4 5 6 9 12 15 18 21 25
14 14 17 19 20 19 19 17 17 14 13 12 12 7 8 12 10 6 4 1 2 3 5 6 6 7 8 7 7 7 6 4 4 4 4 6 7 9 11 13 18 22 26 30
22 19 14 16 16 17 16 16 16 15 15 15 15 16 10 12 14 15 9 8 3 1 4 6 6 6 6 5 5 3 3 2 2 3 4 6 8 11 15 19 22 26 29 32
25 23 20 20 21 20 19 18 17 18 19 19 20 18 17 15 18 20 15 16 13 9 5 4 6 6 5 5 3 1 0 0 1 4 6 8 11 14 17 20 24 27 31 33
18 19 18 19 19 16 19 20 18 17 18 19 20 19 18 18 20 20 22 21 16 12 10 6 8 7 7 6 4 2 2 2 4 6 7 10 12 15 19 22 26 29 31 33
19 18 23 24 24 22 21 18 15 14 15 16 16 17 17 18 21 25 24 26 21 22 17 11 10 9 8 7 5 3 3 4 6 7 9 11 14 17 21 24 28 30 31 33
16 19 25 28 28 25 26 23 19 17 16 15 15 16 18 19 19 24 24 25 26 24 20 14 10 10 10 8 5 4 5 6 7 9 11 13 16 19 22 26 29 31 32 32
21 18 21 24 26 26 24 21 18 17 15 15 15 17 15 14 16 17 24 29 26 25 20 15 13 12 11 8 7 6 6 7 9 10 13 15 17 20 24 27 30 32 32 30
13 13 12 13 16 18 18 19 18 16 17 17 17 17 17 17 19 19 21 22 23 21 16 14 15 13 11 9 8 7 8 9 11 12 14 17 19 22 25 29 31 32 31 29
12 13 11 8 9 13 17 19 21 20 19 20 15 17 17 15 17 18 19 21 21 16 13 14 13 13 11 10 9 9 9 11 12 14 16 18 20 23 27 30 32 33 31 28
9 10 13 12 10 10 8 8 9 10 15 15 15 12 15 16 16 15 14 16 15 15 14 13 14 14 12 11 10 10 12 13 14 15 17 19 22 25 29 32 32 32 30 27
9 7 2 6 9 8 3 3 4 7 8 8 10 13 11 10 9 10 11 12 11 13 14 15 15 15 14 13 12 13 13 14 15 17 19 21 23 27 31 33 33 32 29 26
13 16 16 15 9 3 7 3 7 5 8 11 12 12 11 12 12 13 15 16 16 16 15 16 16 16 16 15 15 15 15 15 16 18 20 22 25 28 31 33 33 31 28 25
12 12 12 10 11 10 6 8 11 14 13 14 16 18 18 18 18 19 19 18 18 17 16 17 18 18 18 18 17 17 17 16 17 19 21 23 26 29 32 33 33 30 28 25
17 17 17 14 11 9 10 10 10 12 15 17 19 20 19 23 23 23 23 23 23 22 22 21 20 20 20 19 19 19 18 18 18 20 22 25 27 30 32 33 32 30 27 24
24 23 22 21 19 17 16 15 14 14 15 17 19 21 22 24 26 27 27 23 24 25 22 22 22 22 21 21 20 21 19 19 19 21 23 25 27 30 32 32 31 28 25 22

GFSNGP_700_spd_063.txt.gz
Wind_Speed
3 4 2 2 7 15 22 24 10 6 9 4 9 13 18 14 14 18 20 21 23 18 15 15 17 18 16 14 16 18 20 20 16 15 17 21 21 20 21 26 29 34 34 32
5 7 9 11 11 9 13 21 26 23 13 3 7 7 8 12 15 16 17 20 20 15 13 13 14 12 12 14 16 15 14 16 15 16 16 14 14 15 23 25 23 22 21 24
1 3 5 9 9 16 18 16 11 15 1 4 3 7 10 13 14 15 19 18 20 16 12 11 12 10 10 12 11 9 11 13 11 12 12 9 12 14 16 17 15 24 22 17
2 2 2 2 4 3 2 4 8 6 3 5 7 10 12 14 15 17 16 18 18 17 11 11 8 8 8 8 7 6 11 8 8 12 8 10 10 17 18 14 11 13 15 17
1 4 6 4 7 8 6 5 6 3 3 7 10 11 12 15 15 17 17 17 19 11 7 9 7 8 8 6 6 8 4 1 1 1 4 4 6 8 6 5 5 3 6 3
3 2 2 6 6 6 3 8 5 2 5 8 9 11 12 13 14 19 14 17 14 7 5 5 6 5 3 2 3 1 3 2 5 1 5 3 2 5 5 9 11 12 10 9
6 4 5 8 9 3 2 4 5 3 7 9 11 11 12 12 17 13 11 13 6 8 2 1 0 2 4 4 3 6 6 6 6 5 8 13 15 15 15 12 12 10 8 7
6 5 4 7 8 6 5 2 4 7 11 9 10 10 11 11 15 9 8 9 5 3 2 2 2 3 5 6 4 5 8 8 11 15 15 15 14 13 11 8 7 6 5 2
7 1 4 2 8 10 6 2 5 9 10 10 8 10 10 9 10 7 7 8 3 6 6 8 10 13 16 15 16 16 17 17 16 15 13 11 10 8 7 6 5 4 4 6
6 1 11 9 10 8 5 2 3 8 10 10 11 9 7 6 6 5 4 6 8 10 12 12 13 15 16 15 16 16 15 14 13 12 10 8 7 6 5 5 5 6 8 12
15 13 10 11 10 9 11 9 5 4 8 11 11 5 7 7 3 4 4 2 5 7 9 9 9 11 11 10 12 13 12 11 10 8 7 6 5 5 5 6 8 10 13 17
21 17 20 18 17 16 17 8 10 11 10 10 11 6 5 10 6 4 6 2 2 4 6 7 7 8 8 8 8 10 9 7 6 5 5 4 3 3 5 7 10 14 17 20
10 11 11 9 13 19 18 16 16 15 14 12 11 9 8 9 11 8 7 3 2 3 5 6 6 7 8 7 7 6 4 3 3 2 2 1 2 4 7 10 13 16 19 22
21 18 20 16 15 14 14 14 15 17 17 15 12 14 12 12 12 14 13 9 3 1 4 5 7 7 6 6 5 4 2 1 0 1 2 3 5 7 10 13 17 20 22 24
24 23 22 21 20 18 19 18 18 18 18 18 18 17 16 13 11 15 17 16 12 8 5 4 6 7 6 6 5 3 2 2 2 3 4 5 7 9 12 15 19 22 24 26
20 19 16 17 18 19 18 16 17 20 19 17 17 17 18 18 17 17 21 22 16 14 12 10 9 9 8 7 6 5 5 5 5 5 6 6 8 11 14 17 21 23 25 27
16 16 20 21 23 24 21 22 18 16 14 16 16 17 17 16 18 18 20 23 24 23 20 17 11 12 10 10 9 8 7 7 7 7 7 9 11 13 16 18 22 24 26 28
14 13 17 21 25 27 26 26 23 20 17 18 16 15 15 15 17 19 20 26 27 30 27 24 17 13 12 11 11 10 9 9 8 8 9 10 12 15 17 20 23 25 27 29
18 19 18 17 19 22 24 25 25 24 22 20 18 17 16 17 19 18 20 24 28 28 28 26 21 12 12 12 13 11 11 10 10 10 11 12 14 16 19 21 24 27 29 30
19 14 14 14 13 13 16 20 21 20 20 20 19 17 17 17 15 15 17 19 22 25 27 26 23 19 14 14 14 14 13 12 11 12 12 14 16 18 20 23 26 28 30 30
10 11 12 13 11 8 10 12 14 18 21 18 19 20 20 17 18 17 19 19 23 26 26 25 23 18 16 17 18 16 14 13 13 13 14 15 17 19 22 24 27 29 31 31
5 8 12 9 10 11 9 11 13 14 16 18 21 15 16 17 18 18 19 19 20 20 23 20 20 18 16 19 18 16 15 15 14 14 15 16 18 21 23 25 28 30 31 31
14 9 7 3 4 8 6 3 4 7 7 9 12 12 11 10 11 12 11 12 17 20 20 19 17 15 19 19 18 17 17 16 16 16 16 17 20 22 24 26 28 30 31 31
11 13 13 13 12 9 1 2 2 3 2 4 6 8 10 11 11 11 13 15 16 15 14 15 16 18 19 19 19 19 19 19 18 18 17 18 21 23 25 27 29 31 31 31
12 12 13 15 14 9 6 7 7 7 9 7 8 9 10 11 12 13 14 15 16 16 18 19 20 19 20 20 21 21 21 20 20 19 18 19 22 24 26 27 29 30 31 31
17 17 16 15 15 11 9 8 10 11 9 11 14 14 14 17 18 20 20 21 21 24 23 22 21 20 22 21 22 22 22 22 21 21 23 21 23 25 26 28 30 30 30 28
23 24 25 24 21 19 17 16 15 15 15 14 14 16 17 18 18 20 22 22 23 23 24 25 27 28 27 25 25 25 26 28 31 28 29 25 25 26 25 28 29 29 28 26

GFSNGP_700_spd_066.txt.gz
Wind_Speed
3 2 2 4 9 18 24 21 7 5 9 10 8 14 13 15 14 15 17 17 17 19 14 11 10 11 13 13 13 12 13 15 18 18 16 16 16 18 20 20 21 23 26 29
2 3 7 9 9 9 14 20 21 17 11 11 9 7 8 10 13 15 15 16 17 17 12 11 11 9 11 11 9 11 14 16 17 15 15 16 17 16 18 20 22 24 22 22
2 3 5 7 7 15 14 11 14 14 8 6 7 9 10 12 14 16 17 18 13 18 15 12 11 11 10 10 10 9 12 13 15 17 14 13 15 14 14 18 17 25 24 28
2 1 2 2 3 3 5 10 14 11 8 7 8 9 12 14 16 17 16 18 15 18 18 11 11 11 11 11 11 11 13 14 13 9 11 10 9 11 15 9 10 11 11 12
1 3 5 2 3 6 7 5 8 10 8 7 9 10 12 14 14 14 16 17 16 19 12 8 7 9 10 10 9 10 9 5 3 2 3 4 6 8 9 9 7 2 5 6
2 2 2 4 7 7 6 8 9 7 6 7 8 11 10 12 15 14 17 11 14 8 6 5 7 8 6 4 2 3 2 2 2 6 5 6 6 8 8 12 12 11 9 8
5 4 4 11 10 7 3 8 7 6 4 6 7 9 11 13 11 15 10 11 7 5 5 5 6 6 6 7 4 1 2 2 6 8 7 10 12 12 13 12 11 9 6 4
6 5 4 11 13 8 7 4 4 3 5 7 8 8 9 11 11 13 9 10 8 3 4 5 3 3 3 7 5 5 7 9 8 10 10 10 11 10 10 9 7 6 5 5
7 4 5 10 11 12 13 5 3 3 4 6 7 7 9 9 9 9 8 9 4 3 5 5 4 6 10 9 9 11 14 13 12 10 9 8 7 7 7 6 5 4 5 8
6 8 11 12 12 8 11 10 7 4 3 5 7 9 6 6 6 5 6 5 5 6 8 8 8 10 14 13 13 13 12 10 9 8 6 5 5 4 3 3 4 6 8 11
16 13 11 12 13 11 10 12 13 9 5 7 7 7 4 4 6 4 6 2 2 4 7 7 7 9 11 11 10 10 9 8 7 5 5 4 3 2 1 3 5 8 12 15
14 13 17 17 15 16 17 15 21 13 11 10 9 6 5 6 5 6 5 5 3 5 6 7 7 7 9 10 9 9 8 6 5 4 3 2 1 1 3 6 9 12 15 17
12 11 12 12 13 14 20 23 17 16 15 15 12 10 7 4 6 8 7 4 4 6 7 8 9 10 10 10 9 7 5 4 3 2 2 3 3 4 6 8 11 14 16 18
22 19 18 18 18 16 15 16 16 17 17 17 16 14 12 12 9 9 11 10 6 5 8 9 10 11 11 10 9 8 6 5 4 4 4 5 6 7 9 11 13 16 18 20
20 19 22 24 23 22 20 19 17 18 19 18 18 18 17 17 15 10 14 14 15 10 8 8 10 11 12 12 11 9 7 6 5 6 6 7 8 9 11 13 15 18 21 22
16 19 19 18 21 20 18 20 20 20 21 22 21 19 19 19 20 19 16 15 17 17 16 13 11 12 13 13 12 11 9 8 7 8 8 9 10 11 13 15 17 19 22 24
22 20 17 17 21 21 21 22 23 22 19 17 16 20 19 19 21 23 23 21 20 22 22 21 17 14 15 14 13 12 10 10 10 9 10 11 12 13 15 17 19 21 23 25
20 18 17 17 20 24 26 25 29 27 25 24 20 17 15 16 17 20 20 21 22 27 27 28 26 19 17 16 15 14 13 12 12 12 12 12 13 15 16 18 20 22 24 26
13 16 19 21 19 20 21 25 27 26 27 26 21 19 20 20 19 19 20 22 24 25 29 31 31 28 20 18 17 16 14 14 14 14 14 14 15 16 18 19 21 23 25 27
17 19 18 13 14 16 16 17 21 24 26 27 26 24 21 19 21 24 24 20 22 24 28 30 31 30 24 19 19 18 17 14 16 17 16 15 16 18 19 21 22 24 26 27
7 6 7 11 12 13 11 10 13 16 19 21 22 24 25 21 24 20 21 21 18 20 24 27 30 32 28 25 22 18 19 18 19 18 17 17 18 19 21 22 24 25 27 28
10 7 7 10 11 11 11 9 9 11 14 18 21 21 20 22 22 24 22 23 20 24 25 27 30 31 29 27 23 21 17 21 20 19 18 19 19 20 22 24 25 26 28 29
8 10 11 7 2 4 8 9 9 11 13 13 14 17 20 22 21 22 22 23 23 23 23 24 27 29 28 25 20 16 22 22 21 20 20 20 20 22 23 24 26 27 29 30
11 11 12 12 8 7 5 5 4 4 3 6 7 9 11 14 15 14 12 11 11 15 19 21 22 23 23 20 16 22 23 23 22 21 21 22 23 24 24 25 27 28 29 30
14 13 13 13 15 14 12 7 4 3 4 6 8 8 8 9 10 9 9 11 13 15 17 17 19 20 19 19 22 24 24 24 23 22 23 23 25 25 29 30 29 30 30 31
19 19 18 18 18 16 15 14 14 11 8 7 9 11 11 9 10 12 14 15 16 16 18 19 20 20 22 24 24 25 25 25 24 24 25 28 28 32 32 30 30 29 28 29
23 23 24 24 23 22 21 20 19 18 17 16 14 13 13 15 15 14 16 17 17 19 21 23 24 26 27 28 29 32 31 30 30 31 31 30 29 29 29 28 28 27 27 28

GFSNGP_700_spd_069.txt.gz
Wind_Speed
4 2 2 4 10 18 22 17 7 3 4 12 14 13 11 16 15 15 15 18 19 20 18 18 15 14 13 12 12 13 14 13 13 13 11 15 18 21 20 20 23 25 26 28
4 5 7 9 8 12 17 21 18 9 11 9 9 12 13 13 11 13 15 16 17 19 19 17 15 13 11 11 12 13 12 11 11 9 12 16 16 19 18 18 20 26 24 24
2 3 4 9 14 16 15 15 18 15 14 7 12 13 12 11 13 16 17 19 20 19 18 19 15 14 12 12 11 12 12 12 11 10 13 13 13 13 16 16 17 14 19 18
3 2 3 3 3 4 12 11 14 13 12 14 13 12 10 12 15 17 17 19 20 19 19 20 17 14 13 12 13 12 12 13 10 6 7 10 10 10 11 10 9 10 9 10
3 6 7 4 3 6 7 2 12 14 12 12 10 9 12 13 15 13 19 19 21 17 19 19 10 12 13 11 11 9 10 5 2 2 4 5 6 9 7 4 1 4 7 8
3 3 2 2 5 7 8 4 9 13 12 9 9 9 10 10 11 16 15 17 14 16 14 9 9 10 8 7 5 4 1 2 2 3 1 1 3 7 8 7 8 8 9 9
6 4 5 8 8 7 2 5 11 11 10 9 9 10 10 11 14 13 15 13 13 11 9 8 7 4 6 6 5 1 1 4 6 5 6 6 8 8 9 9 8 7 6 6
7 5 5 7 11 5 5 6 10 10 8 7 8 10 10 10 11 12 13 12 12 10 6 7 4 5 4 5 8 4 4 8 10 9 8 6 6 6 6 6 5 5 6 8
7 4 9 8 13 15 13 8 8 6 5 4 6 8 9 11 10 9 8 8 6 0 3 4 4 3 3 8 8 8 12 12 10 8 6 5 3 3 3 3 4 6 8 10
7 6 9 9 11 12 13 12 11 8 7 6 4 7 8 8 8 6 5 5 4 2 4 5 6 6 8 10 11 12 12 10 7 6 4 2 2 1 1 3 5 7 9 11
12 12 9 13 16 15 12 11 14 15 12 9 7 6 5 7 7 6 3 3 1 1 4 5 6 6 7 9 9 8 8 8 7 5 3 2 2 2 3 4 6 9 12 15
7 11 9 10 17 15 16 14 16 17 16 12 12 9 7 9 9 9 5 4 2 2 4 5 6 7 7 8 8 9 9 8 6 5 4 4 5 4 5 7 9 12 15 17
15 16 15 16 15 19 21 21 22 21 18 19 16 13 11 11 6 8 7 4 2 5 6 7 8 9 9 9 9 9 8 8 7 6 5 5 6 6 8 10 12 14 16 18
21 21 20 21 22 16 16 17 16 17 19 19 19 17 15 14 13 11 9 10 9 4 7 9 10 11 11 12 12 11 11 10 8 6 6 6 8 9 10 12 14 16 18 20
21 23 24 26 25 26 25 23 21 21 22 21 20 20 19 18 17 16 14 14 13 12 8 9 11 13 14 14 14 14 13 11 9 9 8 8 9 10 12 14 16 18 20 21
18 16 18 19 20 22 21 22 23 24 22 22 23 23 23 22 20 20 20 17 18 17 16 15 14 14 16 16 16 16 14 13 11 11 10 10 11 12 14 15 17 19 21 23
22 21 23 23 22 19 23 24 22 23 25 23 21 20 23 24 22 20 20 21 21 19 21 21 22 20 18 19 19 18 17 16 14 12 12 12 13 14 15 16 18 20 22 23
25 24 25 25 23 22 21 24 25 25 28 28 28 25 22 18 16 16 18 20 22 26 27 26 28 27 24 21 22 21 20 17 16 14 14 14 15 15 17 17 19 20 22 24
16 15 16 18 20 21 23 23 24 26 28 32 33 29 27 25 23 21 21 21 24 24 25 27 29 32 32 28 24 23 21 19 17 16 15 16 16 17 18 19 20 22 23 25
14 17 19 21 23 21 17 19 21 22 23 26 28 30 29 27 25 28 25 23 23 24 27 27 28 32 33 33 30 26 23 20 19 17 17 18 18 19 19 20 21 23 24 26
4 5 6 8 10 13 14 16 17 16 16 19 25 28 29 29 28 28 24 26 23 29 26 27 30 30 33 34 31 29 27 24 21 19 19 20 20 20 21 21 23 23 25 27
8 8 7 6 8 11 14 15 14 11 11 13 17 22 25 27 28 28 28 27 28 25 25 25 26 29 32 34 34 31 28 24 23 22 20 22 22 22 23 23 24 25 27 28
6 8 8 9 9 9 8 11 12 12 13 14 16 17 20 24 28 25 24 25 25 28 28 27 27 29 31 33 33 31 28 26 21 20 22 23 24 24 25 25 26 26 27 32
11 13 14 14 16 15 13 7 4 5 8 7 9 12 15 14 18 22 22 24 26 26 27 30 27 27 28 29 31 29 26 24 22 20 24 25 26 26 26 26 27 27 32 35
16 18 18 17 16 16 16 16 10 4 4 4 6 7 8 7 7 8 8 10 11 11 12 13 16 19 22 23 26 24 26 24 18 23 25 26 27 28 28 29 30 32 35 32
18 19 20 20 20 20 20 18 16 16 12 13 10 7 6 8 8 8 8 10 10 11 11 12 13 14 16 21 22 22 23 23 25 26 27 28 29 30 31 32 32 32 30 28
23 24 25 25 24 23 22 22 20 18 18 18 17 15 14 13 14 15 14 12 12 13 15 17 17 18 20 23 25 27 29 29 30 33 34 34 33 32 31 29 28 29 27 27

GFSNGP_700_spd_072.txt.gz
Wind_Speed
3 1 3 5 11 18 20 15 5 6 4 20 18 14 15 12 14 14 13 12 15 17 20 16 14 15 14 14 14 14 15 15 15 15 15 15 14 14 13 13 16 20 23 25
3 5 6 8 8 12 17 18 18 8 12 5 12 12 16 18 14 12 11 12 15 18 20 18 15 13 14 15 14 13 13 13 12 12 12 13 13 10 9 12 14 17 22 19
1 4 5 9 13 16 15 16 21 24 16 15 16 18 16 15 12 12 13 14 17 18 22 16 17 14 14 16 14 13 12 12 12 12 12 15 11 6 8 12 14 14 14 11
2 4 2 2 3 4 14 10 12 19 11 16 17 17 12 11 13 14 16 16 19 18 19 17 18 19 17 16 15 13 12 12 11 11 9 8 5 6 9 12 11 10 8 9
3 5 8 8 4 5 7 5 12 14 20 19 19 11 11 12 14 15 14 17 17 20 19 17 18 17 12 14 13 11 11 10 7 8 5 3 2 4 7 4 1 3 5 8
4 2 2 3 2 5 7 2 3 15 15 14 11 11 11 12 11 11 15 15 18 16 15 15 14 11 11 11 9 8 6 6 8 4 4 4 5 5 5 6 6 5 7 8
8 4 4 7 5 8 5 6 8 11 11 10 10 10 11 11 14 15 14 14 15 15 14 9 9 9 9 8 8 7 4 6 8 8 8 9 9 7 6 6 5 5 6 7
8 5 6 4 9 7 6 5 10 10 10 10 9 10 11 13 12 13 13 15 15 15 12 11 11 8 7 8 11 9 7 11 10 11 10 8 7 5 3 3 3 4 4 6
7 6 7 5 10 14 10 4 6 11 9 10 8 8 10 11 12 12 11 11 10 7 4 5 6 6 6 9 13 10 9 13 12 10 8 6 4 3 2 1 2 3 6 9
8 7 11 6 12 11 10 11 10 10 9 8 7 5 8 9 7 9 8 7 5 3 1 2 3 5 7 11 11 12 14 12 10 8 6 4 3 1 1 2 4 6 8 10
13 9 9 10 13 13 13 12 11 13 14 13 11 8 6 6 7 8 6 4 3 1 2 4 5 7 10 12 13 12 11 10 8 6 4 3 3 3 4 5 6 8 10 12
5 7 9 11 13 12 14 15 14 13 16 17 16 12 9 9 9 9 10 6 5 4 5 5 6 7 7 8 9 9 8 7 6 5 5 6 6 5 5 6 8 10 12 15
19 20 17 19 21 17 15 19 20 19 19 18 16 18 13 12 10 7 9 7 5 7 7 7 8 7 7 7 8 8 8 7 6 7 7 7 7 7 7 8 9 11 14 16
15 15 16 17 23 20 20 17 15 16 16 16 18 17 17 15 14 11 10 11 10 8 8 9 9 9 9 9 9 9 9 9 9 9 8 9 9 9 9 10 11 13 14 16
17 19 23 24 26 25 26 25 22 21 20 19 19 19 20 18 17 17 16 15 12 14 12 8 9 10 10 11 11 12 12 13 12 11 11 11 11 11 10 11 12 13 15 17
15 17 20 20 19 18 19 22 24 25 24 23 22 22 23 22 20 19 18 20 17 13 15 14 11 12 13 14 15 15 16 16 15 14 14 13 13 12 13 13 14 15 17 18
26 24 22 21 21 23 22 21 23 23 23 24 26 24 22 22 23 22 19 17 17 19 19 16 18 18 18 17 18 19 20 19 18 17 16 16 15 14 14 15 15 16 17 19
31 30 27 27 25 25 26 22 22 23 24 25 25 28 27 24 20 18 18 19 19 20 21 22 23 24 24 25 23 22 23 22 21 20 19 18 17 17 17 17 17 17 18 20
17 19 20 19 19 18 16 18 21 22 23 25 28 29 32 31 28 24 23 21 18 17 18 22 25 28 24 29 30 28 26 25 24 23 21 21 19 19 18 18 18 19 19 21
11 14 15 17 19 20 20 21 21 20 21 23 26 26 30 32 32 28 28 26 23 23 24 26 25 26 27 27 30 33 33 31 28 26 23 23 22 21 20 20 20 20 21 22
3 5 6 8 10 11 12 13 14 17 18 20 19 19 21 25 29 31 30 28 27 26 25 28 30 29 29 30 31 32 33 33 32 27 30 28 23 23 22 21 22 22 23 24
5 7 9 9 9 8 8 11 14 15 15 16 13 13 15 19 24 27 29 29 31 30 28 28 25 26 29 29 32 34 34 32 32 31 29 25 23 25 23 22 23 24 24 26
4 7 10 12 13 12 11 12 11 11 13 13 14 14 15 14 16 20 23 25 26 30 30 30 28 27 27 28 30 32 34 33 33 29 27 27 24 22 23 24 24 25 25 26
10 12 13 13 13 14 15 16 16 10 7 7 9 9 10 12 15 16 19 24 24 25 26 25 27 30 31 31 28 30 31 33 30 27 26 27 25 23 24 25 25 26 26 29
14 15 15 15 16 16 16 15 14 15 14 10 6 6 9 9 8 9 9 9 12 14 15 17 17 17 18 20 20 22 25 26 27 24 26 27 27 23 24 26 27 28 29 32
16 17 19 21 22 22 22 21 20 18 16 16 15 10 6 8 9 8 8 8 9 8 9 9 9 8 9 10 13 16 19 23 25 24 26 28 25 23 27 29 30 32 32 32
21 23 25 25 25 23 22 21 20 19 17 16 17 18 17 16 16 14 14 16 14 12 12 12 12 12 12 13 14 17 20 23 26 25 28 30 29 30 31 30 31 32 30 29

GFSNGP_700_spd_075.txt.gz
Wind_Speed
5 4 5 7 15 24 23 14 7 7 13 12 14 11 18 20 18 15 13 14 15 15 16 19 19 18 17 17 17 17 17 16 16 17 16 15 15 15 15 15 16 16 14 13
4 4 5 7 9 17 20 21 16 11 11 12 16 14 17 17 16 14 13 13 13 14 16 19 19 18 15 14 15 15 15 14 14 14 13 15 15 14 14 13 12 11 11 11
3 1 4 9 14 17 17 19 23 19 14 15 18 17 17 17 15 13 13 13 15 16 18 23 19 16 15 15 15 16 14 13 14 14 13 14 15 14 11 10 11 10 9 6
1 2 2 1 3 4 14 11 17 24 24 18 20 20 19 17 15 14 15 16 15 16 19 20 17 18 19 16 16 16 15 15 16 15 14 13 12 11 9 11 10 5 3 3
3 5 7 10 6 7 9 9 14 15 20 18 23 22 18 15 13 14 16 15 15 18 19 22 20 19 19 15 14 15 16 16 13 13 12 11 10 9 9 7 5 4 5 5
5 2 3 1 2 4 7 7 9 15 22 22 19 19 14 13 13 12 11 14 15 17 19 18 19 19 16 14 15 16 15 11 9 10 10 9 8 8 8 8 9 7 6 5
7 4 5 6 4 9 5 4 4 11 17 15 14 11 11 12 12 12 15 15 14 18 18 20 15 14 13 13 12 12 9 9 12 11 11 11 12 11 9 9 8 6 4 2
9 6 7 6 8 9 5 4 6 8 9 10 9 10 10 10 13 13 15 16 16 17 19 17 13 13 11 11 11 12 10 12 13 14 14 12 11 10 8 7 6 4 1 2
8 5 4 5 5 12 7 3 3 8 9 9 11 9 9 11 13 13 14 14 14 13 10 8 8 11 10 10 13 15 13 14 15 16 14 12 9 7 6 5 4 2 1 4
9 9 11 12 7 8 9 9 9 8 9 11 11 6 7 8 7 9 10 11 10 8 5 3 5 8 10 10 13 14 14 17 17 14 12 9 7 6 6 5 3 2 4 6
15 12 6 7 10 8 8 9 9 11 12 13 12 11 10 9 8 9 10 9 7 6 4 3 4 5 7 9 12 14 18 17 15 12 10 8 7 5 5 5 4 5 6 7
8 7 10 10 9 10 10 11 13 13 13 15 16 16 15 10 10 10 11 12 9 6 5 5 5 6 7 10 13 15 14 13 12 11 9 8 6 6 6 7 7 7 8 9
21 17 13 13 14 16 17 16 15 17 18 17 18 19 17 14 13 10 8 8 9 7 7 7 7 7 8 9 11 13 13 13 11 9 8 7 8 9 9 8 9 9 9 10
11 13 19 23 23 19 17 19 19 18 16 16 15 16 17 17 15 13 11 11 9 11 7 8 9 10 10 11 12 13 13 12 11 10 9 10 11 11 10 10 11 11 11 12
15 17 18 21 25 28 26 26 25 25 23 21 19 18 17 16 17 17 16 16 14 11 13 11 9 12 13 14 14 15 15 14 14 13 13 13 13 13 12 12 12 12 12 13
14 15 16 17 20 24 23 21 20 21 23 25 25 24 23 21 20 19 19 20 19 15 14 15 15 14 15 16 16 17 17 16 16 16 15 15 15 15 15 15 14 13 13 14
24 22 22 24 21 21 22 23 23 22 22 22 22 22 24 26 22 20 21 19 18 15 16 17 17 18 18 17 17 18 20 20 20 19 18 18 18 18 18 17 16 16 16 16
26 26 28 29 28 25 26 27 25 25 24 23 23 25 27 26 28 24 22 23 24 21 20 19 20 24 21 23 21 21 23 23 22 22 23 22 22 21 20 19 18 18 18 18
15 16 17 18 19 19 19 19 19 18 20 21 22 24 26 28 28 28 27 27 24 21 18 20 21 23 22 29 24 25 26 27 28 26 26 26 25 23 22 22 21 20 20 20
7 8 9 10 12 15 16 17 20 21 21 21 22 21 22 26 30 33 34 32 28 27 25 23 26 24 25 28 29 29 26 27 29 31 31 30 28 26 27 24 23 22 21 22
2 3 4 6 6 7 7 10 12 13 15 17 18 19 21 21 21 25 30 32 30 31 30 29 28 27 24 29 28 30 29 29 30 31 33 34 33 28 34 30 25 24 23 24
2 2 3 5 7 8 7 7 8 8 11 15 16 17 16 15 16 17 21 26 31 33 32 30 31 27 27 28 28 31 35 33 33 34 32 32 33 33 33 32 29 25 22 24
3 6 7 9 11 12 12 12 12 11 10 9 12 14 16 16 15 15 17 23 27 30 31 31 31 27 29 30 30 29 29 32 34 34 32 31 29 27 27 31 28 20 23 24
10 11 11 12 12 12 13 13 13 13 12 11 10 11 12 11 12 13 16 18 19 24 26 26 27 26 27 29 28 29 31 33 33 32 32 31 27 28 25 29 29 22 24 24
12 14 14 14 16 17 18 18 18 17 16 15 14 14 13 13 10 10 11 12 13 15 18 23 26 27 27 27 27 27 27 27 26 27 29 27 25 25 27 29 30 28 26 25
18 19 19 19 21 22 23 23 22 21 19 18 17 17 17 15 14 11 10 10 10 11 11 11 11 11 10 11 12 13 15 17 19 21 24 26 25 24 25 26 28 30 26 28
22 22 21 22 24 25 24 23 21 19 19 17 17 17 17 17 18 18 15 15 15 16 15 14 13 12 12 12 12 12 13 14 17 19 22 25 25 24 26 30 30 26 25 25

GFSNGP_700_spd_078.txt.gz
Wind_Speed
6 5 9 14 20 24 32 26 12 12 14 10 8 9 14 20 19 18 17 14 13 13 15 18 20 23 25 25 24 24 23 22 22 20 19 19 19 19 19 18 18 17 18 17
5 6 6 9 15 22 26 26 26 13 14 11 14 9 10 14 16 17 16 14 15 15 16 17 20 22 23 23 21 20 20 19 18 18 18 17 17 16 16 15 15 15 14 14
3 5 6 11 20 21 25 30 30 26 18 16 18 18 16 14 18 19 18 16 15 15 17 18 19 24 23 21 20 19 19 19 18 17 16 15 15 14 15 14 13 12 12 12
4 5 2 3 3 6 15 19 22 26 20 19 17 17 18 18 15 14 14 15 16 17 18 19 22 24 19 21 20 20 19 20 19 18 17 17 16 15 15 14 13 11 9 9
4 7 10 10 10 9 10 10 20 20 25 20 18 19 22 19 16 16 15 16 18 18 20 23 21 23 24 24 21 19 20 19 19 18 17 16 15 13 13 12 10 8 8 8
6 3 4 1 3 4 8 11 9 17 21 25 25 26 23 22 17 16 16 15 15 18 21 20 23 23 22 23 20 19 19 18 16 15 14 12 13 12 12 10 10 11 10 10
9 4 6 7 5 4 3 4 6 10 18 23 21 17 14 16 15 14 15 15 17 18 17 21 24 23 21 19 18 18 16 16 14 13 12 13 13 12 13 12 12 12 10 7
9 5 7 5 6 8 3 3 2 4 11 13 13 13 12 12 12 12 14 16 17 18 19 22 24 20 16 15 15 15 15 12 14 14 13 14 15 14 13 13 12 10 8 6
8 5 3 3 3 7 7 3 2 6 7 9 10 10 10 10 11 14 15 16 16 17 17 18 13 13 13 13 13 13 14 13 14 16 16 16 15 14 13 12 11 9 8 6
8 8 10 10 9 5 6 7 6 6 6 9 10 11 9 7 8 8 12 13 14 13 13 12 9 8 10 12 13 15 16 16 17 18 17 15 14 13 12 12 11 10 8 7
13 16 13 8 4 6 7 7 7 7 9 11 11 11 11 10 11 10 11 11 11 10 10 9 8 8 9 12 13 17 18 19 19 19 18 17 15 13 13 13 12 10 8 8
14 9 9 11 8 6 9 9 10 11 12 12 13 14 17 15 14 10 11 11 14 11 9 8 7 6 7 8 11 16 18 20 20 19 17 15 14 15 14 13 11 9 9 10
15 19 16 10 11 10 10 13 15 15 14 16 18 18 18 18 18 16 12 11 9 11 7 8 8 7 7 8 11 14 18 19 19 18 16 16 16 15 14 13 11 11 11 12
8 10 15 18 19 19 20 18 16 17 19 19 17 17 17 17 18 17 15 14 11 9 10 8 9 10 10 10 12 15 17 18 19 19 18 17 17 16 14 14 13 13 14 14
10 12 15 17 18 19 21 22 25 25 24 25 24 21 19 16 17 19 19 17 17 15 13 12 12 11 13 13 14 15 16 18 19 19 19 19 17 16 16 16 15 16 16 16
11 13 13 15 17 17 18 23 23 21 20 20 22 25 25 23 22 22 20 18 17 17 17 16 15 14 14 16 17 17 18 20 21 21 21 20 19 19 19 18 18 18 18 18
20 19 21 21 21 23 24 24 24 24 23 24 23 21 22 23 23 23 22 21 21 19 18 18 17 21 16 18 17 18 21 23 23 24 23 23 23 22 21 21 21 20 20 20
23 22 21 21 23 26 28 29 29 28 26 23 26 26 24 24 23 24 27 28 27 26 26 22 21 23 24 21 20 21 22 24 24 25 26 26 25 26 26 24 24 23 23 23
19 19 18 18 18 20 21 20 21 21 21 20 20 22 23 24 25 27 29 27 30 28 22 24 26 27 25 25 29 28 25 25 27 28 30 32 32 29 28 28 27 25 25 25
12 8 8 8 9 11 13 13 16 18 21 22 20 20 21 24 24 24 28 30 30 31 30 30 30 26 27 27 29 26 30 35 31 27 28 29 31 33 32 31 30 29 32 29
5 3 1 2 4 6 6 8 9 11 13 15 17 19 19 21 22 24 26 27 27 34 36 35 34 31 27 27 31 31 29 30 31 33 32 32 31 32 34 35 35 35 42 35
4 1 1 3 3 6 7 8 9 9 9 11 12 15 17 18 20 21 22 22 21 25 31 34 34 33 32 32 33 31 30 29 31 33 34 35 34 34 33 33 34 37 33 32
2 5 7 8 8 8 11 12 13 14 14 13 12 12 13 16 19 20 20 20 17 19 23 29 32 34 35 35 34 34 32 32 33 32 33 35 35 33 32 31 30 28 29 26
8 9 10 11 11 12 13 14 15 16 17 17 16 16 15 15 17 17 16 17 17 19 20 26 31 34 37 36 32 31 30 33 33 33 35 35 35 34 33 29 28 26 26 27
13 14 15 16 17 18 18 19 20 20 20 20 19 19 18 19 18 17 18 16 15 15 16 19 23 27 31 33 33 32 34 34 34 36 35 34 33 33 29 28 26 26 25 25
18 18 19 20 20 20 21 22 23 23 22 22 20 19 19 19 19 20 19 18 17 13 13 15 15 15 17 20 24 26 26 25 25 25 25 25 26 26 27 28 26 24 22 22
22 24 25 24 23 24 26 27 25 23 21 20 20 19 18 19 19 19 19 20 20 19 17 16 15 15 15 14 14 15 15 15 15 17 18 19 21 24 26 26 25 24 24 27

GFSNGP_700_spd_081.txt.gz
Wind_Speed
7 7 11 17 24 27 33 37 20 26 23 17 18 10 9 11 18 20 18 17 17 16 16 16 16 18 20 21 24 26 26 26 26 26 25 25 23 22 22 21 20 19 19 19
7 7 9 12 15 27 28 32 38 22 20 19 15 11 11 12 17 19 17 15 15 15 15 16 17 19 20 23 24 25 25 24 23 23 22 21 21 20 19 18 18 17 17 17
4 9 7 12 23 25 28 31 31 37 27 18 16 17 16 11 13 14 15 14 13 14 15 17 18 20 22 24 25 23 23 22 22 21 20 19 19 18 18 17 17 17 16 14
4 6 2 6 6 10 22 24 26 32 29 26 21 19 18 12 8 9 13 16 16 16 17 18 20 21 23 26 23 23 23 22 21 21 21 20 18 17 17 17 17 15 13 12
4 7 11 10 10 10 10 13 17 25 22 25 25 21 19 17 15 13 14 15 16 17 19 21 21 24 27 23 25 25 25 23 23 22 22 20 19 18 17 16 15 14 13 11
6 3 4 2 3 4 7 10 9 11 17 23 20 19 18 18 18 17 17 16 17 18 19 20 24 24 22 25 24 25 24 22 23 23 21 19 18 17 15 15 14 13 12 11
11 4 7 7 5 3 2 4 7 5 14 18 21 19 16 18 19 20 18 17 18 19 19 22 20 22 25 26 25 23 22 21 20 18 18 17 16 16 16 15 15 14 13 13
10 6 7 4 5 5 2 4 7 1 8 13 16 15 14 15 14 14 15 16 16 18 19 21 22 24 27 24 21 20 20 19 17 17 17 15 16 16 16 16 15 14 14 13
6 3 2 1 2 4 6 3 4 1 4 7 8 9 12 13 13 13 12 15 17 18 19 21 21 21 16 16 15 15 15 14 14 15 16 16 17 18 17 16 16 15 14 13
7 5 8 10 10 5 6 8 5 5 2 10 15 15 16 15 10 9 11 13 13 15 17 17 16 14 11 11 14 15 15 15 15 15 17 17 17 17 17 17 16 15 15 14
11 10 14 13 6 5 6 6 6 5 6 8 8 7 9 13 11 11 12 13 12 13 12 12 12 12 11 11 12 14 15 17 18 19 20 19 19 18 17 16 16 15 15 14
16 11 8 6 10 8 8 9 8 8 8 10 10 10 12 13 14 13 14 12 12 14 15 12 11 10 10 10 12 14 15 19 19 20 20 20 19 18 17 17 17 17 16 14
5 12 15 12 7 8 7 8 9 12 13 12 12 14 17 18 18 17 16 17 15 13 12 12 10 10 10 9 9 9 14 20 21 22 21 20 19 18 18 19 19 17 17 16
10 9 9 11 15 16 16 17 17 16 15 17 19 19 18 17 18 18 19 18 17 14 12 10 11 10 11 10 9 10 12 17 21 22 22 20 19 20 20 20 19 19 19 18
11 8 10 11 12 14 15 17 18 19 20 21 22 22 21 21 19 18 18 18 19 17 15 15 12 12 12 13 12 12 14 16 18 20 21 22 22 21 21 21 21 21 21 21
13 9 9 12 13 15 17 19 19 21 23 23 22 21 20 20 23 23 21 20 19 17 17 16 17 18 14 15 16 16 17 19 21 22 23 23 23 22 22 22 23 24 22 23
17 16 16 17 20 21 22 23 25 26 26 27 25 23 24 22 20 22 25 25 23 22 20 18 19 21 20 18 16 20 20 22 22 24 24 24 25 25 25 26 26 25 25 26
21 23 21 19 21 22 22 24 26 28 31 31 28 22 22 25 24 22 23 24 24 25 25 25 24 23 23 23 24 19 21 25 24 23 25 27 27 28 29 29 28 28 28 29
21 19 19 18 18 19 19 20 21 22 23 24 23 21 20 21 23 23 25 25 26 28 28 30 30 30 28 27 26 28 27 24 23 23 26 30 34 34 33 33 31 31 32 32
12 12 10 9 9 11 11 11 11 13 15 18 20 20 20 19 19 21 23 23 24 27 29 30 35 32 32 30 28 29 28 33 32 36 31 26 27 29 32 34 35 38 39 35
6 5 2 1 3 4 6 7 9 12 13 13 13 14 15 17 17 20 21 21 24 25 28 30 35 37 35 32 33 30 30 33 30 27 30 34 35 37 36 34 33 33 36 39
4 3 2 3 6 7 7 7 9 10 10 12 13 14 12 13 16 18 20 21 23 26 27 27 28 35 40 38 35 34 34 32 31 34 33 35 34 34 36 36 35 34 33 34
1 3 6 8 9 9 9 10 12 13 14 15 16 16 17 16 15 15 18 19 20 22 23 23 23 25 32 37 37 35 34 36 34 35 34 35 35 36 37 39 39 37 34 31
8 9 9 10 11 13 14 16 17 18 19 19 19 20 19 20 22 21 19 18 20 21 20 21 21 22 26 31 35 37 39 39 39 37 39 38 38 37 38 39 40 39 36 31
14 17 17 17 17 18 19 19 20 21 22 23 23 22 22 21 21 22 22 22 21 20 20 20 19 20 22 25 30 34 37 38 38 37 37 38 39 40 41 41 39 37 33 30
20 19 19 20 22 24 24 23 24 25 25 25 24 22 22 21 20 20 20 20 21 21 21 20 19 18 18 19 20 23 28 33 37 39 38 39 40 39 37 35 32 30 29 28
23 24 24 24 24 24 25 25 24 24 23 21 21 21 21 21 21 21 21 20 20 20 20 21 22 21 19 17 17 18 18 18 19 21 22 22 22 22 21 22 23 24 26 25

GFSNGP_700_spd_084.txt.gz
Wind_Speed
5 10 8 14 23 30 36 35 26 24 25 29 25 21 14 10 11 15 16 15 14 14 15 16 16 17 18 17 19 21 24 25 27 27 27 27 27 27 27 25 25 24 24 23
6 5 7 11 14 18 24 33 35 33 33 20 12 13 12 12 12 16 17 15 14 15 15 14 15 16 17 18 20 22 25 25 26 27 26 26 25 24 23 23 22 22 20 19
3 7 7 11 18 20 22 26 26 31 19 17 15 12 12 12 10 11 13 14 14 12 12 14 16 17 18 20 22 24 26 26 24 24 24 23 22 22 21 21 21 19 18 16
1 4 1 4 7 8 16 24 26 27 23 21 20 19 14 13 8 8 11 12 12 12 14 16 17 18 20 22 23 26 26 25 24 24 23 22 22 21 19 18 18 17 16 15
2 5 11 12 8 8 10 11 11 18 21 21 22 25 22 15 15 13 12 13 14 16 18 18 19 20 22 23 25 28 24 27 25 24 23 22 22 20 19 19 17 17 15 14
3 2 3 2 2 4 6 9 7 12 15 19 19 20 15 15 19 16 13 13 14 17 18 18 19 20 22 27 24 25 27 26 25 23 22 22 21 21 19 18 17 15 15 14
9 5 7 6 7 4 1 4 8 8 8 14 14 14 11 12 17 17 18 18 18 17 17 19 20 21 23 24 26 29 28 26 24 22 22 21 20 20 19 18 17 16 15 16
9 5 7 4 4 4 2 5 7 7 5 9 10 11 15 14 15 17 19 19 17 18 18 20 21 22 24 26 28 30 26 21 21 20 18 18 18 18 17 17 17 17 18 17
5 3 4 2 2 3 7 7 5 3 2 5 8 11 12 13 15 15 15 16 15 17 19 21 21 23 23 24 24 20 19 18 16 16 16 17 17 17 17 17 18 19 18 17
5 2 5 9 8 10 7 8 8 5 2 4 7 8 9 12 14 14 12 13 13 14 17 18 19 18 19 19 16 15 14 14 14 15 15 16 17 18 19 20 20 18 18 16
8 7 8 9 9 5 5 6 4 4 5 5 5 5 9 13 16 18 15 13 13 15 16 15 13 14 15 16 15 13 15 16 16 16 16 17 18 20 21 20 19 19 17 16
16 13 11 6 5 8 6 8 8 7 6 7 8 8 8 11 12 12 12 13 15 15 14 16 16 14 14 14 14 14 15 15 16 18 18 19 20 20 19 19 19 18 16 16
4 7 9 11 9 6 8 7 8 8 10 12 12 11 11 13 16 17 17 17 18 18 17 14 14 14 13 13 13 12 13 15 17 19 20 21 20 20 20 20 18 18 18 18
12 11 8 8 11 14 14 13 14 16 16 15 16 18 19 19 19 17 17 18 18 18 18 16 13 12 14 13 12 12 12 11 16 20 21 22 21 21 20 19 19 19 19 19
14 11 9 9 10 10 11 13 15 17 18 19 19 20 20 20 21 22 21 20 18 17 18 18 18 16 14 13 14 13 13 10 11 17 20 22 22 21 21 20 20 21 21 21
11 11 11 10 11 12 14 16 18 19 20 21 24 26 25 23 22 21 23 24 22 20 19 18 21 22 20 17 14 16 15 15 16 18 20 21 22 22 21 21 22 22 22 24
16 12 13 17 17 18 20 22 24 25 25 25 27 29 29 27 22 24 24 23 24 24 23 22 21 20 20 22 19 17 16 20 19 20 21 21 23 24 24 25 24 24 24 27
17 20 20 21 23 22 23 24 23 24 25 27 29 29 25 22 20 22 24 24 22 22 23 23 25 26 26 22 22 23 23 18 20 23 24 25 25 27 28 28 27 26 27 30
21 19 19 21 20 20 19 17 17 17 17 19 21 22 22 22 21 20 21 22 23 22 24 26 27 29 30 29 29 29 27 28 28 22 23 27 29 29 29 29 29 29 31 33
12 13 13 14 12 12 10 6 5 7 9 11 13 15 16 17 18 18 18 18 21 21 23 27 30 31 33 34 34 32 31 29 28 31 33 27 29 29 27 30 32 34 37 38
9 7 7 5 3 2 4 6 8 9 10 11 13 14 15 13 13 13 15 17 21 23 22 22 24 26 29 31 37 38 36 32 34 31 27 31 33 32 34 38 36 36 37 35
4 4 3 2 4 7 9 10 10 10 12 14 15 16 16 16 15 14 14 16 18 20 23 25 27 26 28 30 32 38 40 38 32 33 30 29 30 31 31 34 35 36 37 36
2 3 4 5 6 8 10 12 14 15 17 18 19 20 20 20 19 19 20 20 19 19 20 22 24 25 27 26 26 29 35 41 41 38 36 36 34 33 34 34 36 38 39 39
4 6 9 12 13 14 16 17 18 19 21 22 23 23 22 22 25 23 22 22 22 23 23 23 22 23 24 24 24 24 24 30 36 38 39 38 37 39 39 39 39 40 39 39
12 14 16 18 20 21 21 22 24 24 24 26 26 26 25 23 22 22 22 23 23 23 23 24 24 23 23 23 23 22 24 27 32 38 41 42 43 43 42 41 40 39 40 41
20 22 22 22 22 23 24 25 25 26 25 25 26 24 23 22 23 23 23 23 23 23 22 23 23 24 25 24 22 21 22 23 25 28 32 36 38 39 39 40 40 40 41 40
22 23 24 24 24 25 25 25 24 24 23 22 22 23 23 23 24 24 25 25 25 24 24 23 23 23 23 24 24 25 23 21 22 22 21 21 23 25 27 28 29 28 28 26

GFSNGP_700_spd_087.txt.gz
Wind_Speed
4 6 5 8 18 26 28 27 17 18 22 20 24 21 18 19 11 11 13 14 14 13 14 15 15 16 17 18 18 19 22 23 22 24 26 28 29 28 28 28 28 28 28 27
3 2 6 10 10 13 19 25 29 32 32 23 18 10 7 9 10 12 14 15 13 13 13 15 16 17 18 17 17 17 20 21 22 24 26 28 29 28 27 27 26 25 24 24
1 3 4 9 10 14 16 19 21 27 18 14 10 8 10 7 7 7 11 15 14 13 12 14 15 15 15 16 17 19 21 21 24 25 25 26 27 25 25 25 23 23 23 21
1 3 1 1 3 6 7 9 15 18 19 14 14 15 14 11 8 9 12 14 13 13 13 12 14 14 16 17 19 20 22 23 25 27 26 26 25 23 23 23 22 21 20 18
1 4 8 8 4 5 6 5 7 10 8 13 17 14 15 15 9 10 12 13 14 15 15 14 16 17 18 19 21 21 23 27 28 26 27 26 25 23 22 22 20 18 18 17
3 2 2 1 4 4 4 1 6 8 9 11 12 17 10 15 16 16 16 15 14 15 14 16 16 18 19 21 21 23 25 24 26 28 27 24 23 22 21 20 20 19 19 18
4 3 4 3 5 3 2 3 9 11 11 8 4 7 9 11 14 19 18 17 14 16 16 17 19 20 19 21 23 27 26 28 29 29 27 24 21 21 20 21 21 19 19 18
6 4 5 4 3 2 0 5 7 11 10 3 4 6 8 9 9 17 18 19 18 20 19 18 19 19 22 24 26 26 28 29 30 27 23 22 19 20 20 20 20 20 19 18
4 1 2 3 3 3 4 7 8 7 6 4 3 7 8 10 12 14 16 18 18 17 17 17 19 22 21 23 25 26 26 23 22 21 20 19 18 19 18 19 19 19 19 19
2 2 2 4 4 6 8 7 7 7 4 3 2 5 8 10 13 15 14 14 15 15 16 16 19 20 19 19 21 20 20 18 17 16 16 16 17 17 17 18 20 19 20 20
5 5 6 5 8 7 5 6 5 3 2 3 4 4 5 12 15 16 18 19 17 14 16 17 16 18 17 17 18 17 16 15 16 16 16 16 15 17 19 20 21 22 21 19
9 12 12 10 6 7 6 6 7 6 5 4 5 6 7 8 9 11 10 11 12 15 17 17 15 15 17 17 16 15 15 14 16 16 17 17 16 16 18 19 20 20 19 19
6 4 5 6 8 8 10 11 8 8 7 9 11 10 10 11 12 13 15 16 17 17 18 18 16 15 14 16 15 14 14 15 15 18 18 17 17 18 18 20 20 20 20 20
10 11 10 9 8 11 13 11 11 12 15 16 14 15 16 18 18 19 20 19 18 18 18 19 16 17 16 14 14 15 13 13 14 14 17 18 19 21 21 20 20 21 21 20
21 17 13 10 9 9 10 11 12 14 16 17 18 18 19 20 20 20 20 21 22 21 20 19 20 16 20 18 15 14 15 12 12 11 15 19 21 23 22 22 21 21 21 20
14 11 9 10 11 12 12 13 15 17 19 20 22 23 25 28 26 24 23 23 22 23 24 22 19 19 18 21 18 16 14 15 14 12 13 16 19 21 21 22 22 22 22 22
10 19 14 13 13 15 17 17 20 22 24 25 26 28 29 30 30 27 22 22 22 23 23 25 24 22 21 20 19 19 18 17 14 18 17 17 20 22 23 24 25 25 24 26
11 14 18 18 18 21 21 23 23 25 24 24 23 22 21 22 22 22 21 20 20 22 24 23 24 24 23 24 24 23 21 20 20 19 18 22 22 23 25 26 27 26 26 27
22 23 24 25 24 23 22 20 18 14 11 10 11 12 14 15 16 17 17 18 18 18 22 23 23 23 23 25 27 28 27 26 28 25 23 23 22 25 27 27 27 27 29 31
10 13 15 16 17 16 14 8 4 5 6 7 9 11 13 14 14 14 13 14 15 16 18 22 24 25 26 29 32 34 34 33 31 30 28 27 28 27 24 26 28 28 29 34
9 8 10 12 10 7 4 3 5 7 8 10 11 13 14 15 16 16 15 15 14 15 17 20 22 23 24 24 27 28 31 31 33 35 34 31 30 30 30 33 31 30 31 33
4 4 3 4 4 5 4 5 8 10 12 14 15 16 17 18 18 19 18 18 19 18 17 18 20 22 23 25 28 30 31 30 31 33 36 37 32 32 32 33 34 35 33 32
3 4 3 2 4 7 9 11 14 16 17 19 21 22 22 23 20 20 22 23 22 21 21 22 22 21 22 25 25 25 26 28 27 27 31 37 39 35 34 32 31 32 34 35
4 5 7 10 12 12 12 14 19 21 23 24 24 24 24 24 27 25 24 22 21 22 22 22 23 24 24 25 24 24 25 25 26 25 25 28 36 41 42 40 37 38 39 39
12 13 13 15 17 18 18 19 20 22 24 25 25 23 22 20 19 20 21 22 23 22 23 23 23 23 24 25 26 26 25 24 25 25 25 26 29 32 36 39 41 41 42 42
18 18 18 18 19 20 19 20 21 23 22 22 23 22 22 22 21 21 22 22 23 24 24 24 24 24 24 25 25 25 25 26 25 25 25 25 26 28 32 36 39 41 42 41
20 20 20 20 21 20 19 21 21 19 19 20 21 22 22 23 23 24 24 24 24 25 25 24 24 24 24 24 25 25 25 25 25 26 27 25 24 23 23 23 24 25 28 30

GFSNGP_700_spd_090.txt.gz
Wind_Speed
2 3 4 7 13 21 23 22 11 11 19 14 15 20 20 21 19 18 12 11 14 15 16 17 18 20 23 25 26 26 25 24 24 24 24 26 27 28 29 30 31 31 32 31
3 1 2 3 3 8 18 21 24 25 27 23 21 17 17 14 12 14 14 15 16 16 16 16 17 18 18 19 20 20 21 21 22 22 23 26 26 30 31 31 31 32 31 31
1 1 2 3 3 9 10 13 14 21 16 17 10 7 11 9 9 11 13 16 17 15 14 14 15 16 17 18 18 18 19 20 22 24 25 27 28 29 30 30 30 30 29 28
1 3 2 3 1 1 2 3 7 14 15 13 14 15 15 16 12 12 12 16 19 18 17 16 17 16 16 16 17 19 20 21 23 25 27 28 29 29 29 29 28 27 26 25
0 2 3 1 2 1 2 1 2 4 7 8 16 19 17 21 18 14 12 16 18 18 18 17 16 15 16 17 18 20 21 23 24 26 30 31 30 28 28 27 26 24 25 23
2 2 0 2 2 2 1 2 4 5 6 8 11 10 13 17 19 16 16 16 18 18 17 16 15 16 17 18 20 21 23 25 26 30 28 29 30 30 27 26 25 25 23 22
4 2 3 3 4 1 1 1 7 10 10 6 6 10 11 13 18 21 19 18 17 16 16 16 16 18 19 20 21 24 25 26 28 29 31 32 32 30 26 26 25 24 23 23
5 2 3 2 2 2 1 3 6 8 10 4 1 4 7 9 11 16 21 20 19 17 17 19 20 21 21 23 23 25 28 29 30 30 31 31 29 27 25 24 24 24 24 22
5 2 2 0 2 2 2 4 6 6 7 5 1 4 6 8 8 9 16 19 19 19 19 20 19 20 20 22 25 27 27 29 29 28 26 24 24 23 22 21 22 22 22 21
2 2 2 4 5 5 6 6 5 7 6 3 1 3 6 8 9 13 15 16 18 18 18 18 18 19 22 23 24 22 22 23 24 22 21 19 20 21 20 19 20 20 20 21
5 5 4 6 6 8 8 7 6 4 3 3 3 3 3 6 10 10 11 14 16 18 20 18 18 20 18 19 22 22 20 20 19 18 18 18 18 20 18 19 19 21 23 22
5 9 11 11 11 7 9 8 6 7 6 6 4 6 7 7 8 9 11 12 11 17 26 18 18 19 19 17 18 19 19 18 18 17 18 18 19 20 18 19 20 21 21 21
13 10 6 6 7 10 9 14 12 13 10 6 8 11 11 11 12 12 13 14 15 17 18 20 21 20 19 19 17 16 18 18 18 18 16 20 19 19 17 18 20 21 22 22
13 12 10 11 11 11 13 12 10 10 11 13 15 15 15 16 17 17 18 19 21 22 21 21 21 21 20 19 19 17 15 17 19 17 17 16 19 18 18 19 20 21 22 23
23 22 20 16 13 12 11 11 12 13 15 17 18 19 19 20 21 22 22 23 23 23 24 25 24 22 21 21 19 20 19 16 15 17 15 15 16 17 20 21 22 23 23 22
20 17 16 15 15 14 14 14 14 15 17 19 21 22 24 26 28 29 29 27 25 26 26 25 26 27 23 20 20 19 21 18 17 13 15 14 14 18 21 22 23 23 23 23
14 18 21 15 14 15 15 16 17 19 22 24 25 26 27 28 27 27 26 24 22 21 24 25 26 26 26 25 23 25 22 21 20 17 15 14 17 17 19 23 24 25 25 27
20 15 15 18 18 19 18 19 22 23 24 24 21 16 14 15 17 19 20 21 20 20 20 21 25 26 24 24 25 26 22 26 26 23 18 17 16 21 23 24 26 27 28 29
16 20 18 18 20 20 21 22 24 21 15 9 8 9 10 11 12 13 14 14 14 16 18 18 19 23 24 23 24 23 25 26 25 26 25 26 25 21 20 26 29 30 31 32
10 13 16 17 19 21 23 22 17 8 6 7 8 9 11 12 13 14 15 14 13 13 14 17 18 20 22 24 26 26 27 29 30 32 35 33 31 31 29 27 28 30 34 36
11 11 12 13 15 15 17 12 10 7 6 7 10 12 14 15 16 17 18 19 18 16 16 15 17 19 22 24 26 26 26 26 27 28 31 32 32 34 34 31 30 30 31 31
8 8 7 5 4 5 6 6 3 4 7 11 14 16 19 20 21 22 21 21 21 21 21 20 20 21 21 22 23 25 26 27 30 31 32 33 32 33 36 39 37 34 35 34
1 1 1 1 1 2 4 6 7 8 12 15 18 20 22 22 21 22 22 21 21 20 20 21 22 22 23 24 26 26 26 28 28 28 29 30 30 30 34 38 41 39 36 35
6 5 4 6 6 6 9 10 11 13 16 18 20 22 21 21 20 18 19 18 18 19 20 20 22 23 23 24 25 26 27 28 29 28 27 28 29 29 29 31 37 42 42 40
14 12 11 12 10 12 13 15 15 16 17 19 20 20 19 18 19 19 18 19 20 20 21 22 22 23 24 25 25 25 26 27 27 28 29 28 28 28 29 30 30 32 38 43
21 21 19 17 16 16 17 17 18 18 19 19 17 17 19 19 20 20 20 20 21 21 21 22 23 23 23 23 24 25 25 26 27 27 28 28 30 29 28 28 28 30 33 36
22 21 20 20 20 18 19 19 20 20 19 19 19 19 19 20 20 19 20 20 21 22 22 22 22 23 23 23 23 24 25 25 26 26 27 27 28 29 29 30 29 28 27 28

GFSNGP_700_spd_093.txt.gz
Wind_Speed
4 6 4 9 15 20 28 20 9 7 10 7 6 9 14 16 15 17 14 9 12 14 15 16 17 19 22 25 27 29 31 32 32 33 33 32 31 31 30 30 31 32 33 33
5 3 3 5 9 14 19 19 21 22 23 19 19 18 19 17 21 18 16 16 15 15 15 16 16 16 19 22 24 26 27 28 27 26 26 26 26 27 28 29 30 32 33 34
3 3 3 2 7 10 13 16 17 18 16 15 12 12 10 13 14 12 15 18 17 16 17 17 17 18 19 20 20 21 21 21 22 22 23 25 26 27 29 30 32 32 33 33
1 3 4 5 4 7 8 7 11 17 19 17 15 16 16 15 15 13 14 16 17 17 17 18 18 17 17 17 17 18 19 20 21 23 24 25 27 29 31 32 33 32 33 32
1 3 4 1 2 5 4 3 4 5 7 10 12 15 17 19 18 16 14 14 16 19 20 20 19 17 16 15 16 18 19 20 22 23 25 27 29 31 34 33 32 32 32 31
2 2 1 4 2 2 3 5 3 5 7 9 10 10 10 17 18 19 18 17 17 19 21 19 17 15 14 15 17 19 21 23 24 25 26 28 31 33 33 32 31 30 29 28
5 3 1 3 2 2 3 3 5 6 8 6 7 12 15 12 17 19 21 18 16 17 18 17 16 17 16 17 19 22 25 25 26 27 29 30 32 33 34 35 34 28 27 26
3 2 3 1 1 1 4 5 6 7 7 6 5 4 6 9 11 14 20 19 18 17 17 17 18 19 19 21 23 26 26 26 28 30 31 32 34 33 33 31 29 27 24 24
3 1 4 2 3 3 4 5 7 7 6 5 4 4 5 6 5 7 12 18 19 19 19 20 20 21 23 23 23 25 26 27 29 30 30 30 31 30 27 26 25 24 23 23
2 3 4 6 7 7 6 7 8 7 8 4 2 3 5 7 7 9 10 13 17 20 22 22 23 23 22 22 22 25 26 27 24 24 25 26 25 23 21 21 22 22 20 21
7 8 7 8 8 8 10 9 9 7 5 4 4 4 3 5 8 8 9 14 18 18 19 21 21 22 22 23 24 21 22 25 25 23 22 22 20 20 20 20 21 20 20 21
4 8 10 13 13 14 11 10 9 8 8 8 8 6 6 7 8 9 10 12 13 15 21 24 26 29 26 22 22 21 20 19 21 22 21 21 20 20 20 21 22 21 21 21
18 16 14 10 8 8 10 11 14 14 13 13 12 10 11 12 12 13 14 15 16 16 17 18 20 21 24 24 23 21 20 19 18 18 20 20 20 19 22 22 21 20 18 19
15 14 14 13 12 11 11 13 14 13 12 10 12 14 16 16 17 17 18 19 20 20 20 21 23 24 25 24 23 21 22 21 20 18 17 19 20 20 20 22 20 18 20 22
22 22 21 21 21 17 15 14 13 13 13 15 16 17 19 20 21 22 23 25 26 26 26 26 26 27 27 26 24 23 22 20 23 21 20 18 19 19 17 19 19 19 21 24
26 27 26 22 19 20 19 17 16 16 16 17 19 21 22 24 26 27 27 28 29 29 29 28 28 29 28 28 28 26 23 22 21 20 20 19 17 18 16 17 19 21 22 23
20 23 21 23 20 19 20 20 18 17 18 21 24 27 28 28 25 23 22 22 23 24 24 24 24 24 25 27 26 26 26 25 27 24 22 20 18 17 18 18 19 21 22 25
18 17 20 15 18 21 20 19 19 19 22 26 27 23 18 14 13 14 15 16 17 18 19 20 20 21 21 24 25 25 24 24 26 26 27 27 25 21 19 19 22 22 22 26
15 14 18 21 21 23 25 25 25 24 25 24 14 10 10 10 11 12 12 13 14 15 15 14 16 17 20 22 23 22 23 23 24 25 27 25 26 26 26 26 22 22 26 28
11 13 13 15 20 20 20 21 22 22 23 17 11 9 10 11 13 14 15 16 16 17 17 17 16 15 16 18 21 23 24 25 26 26 27 29 30 31 32 33 32 32 29 28
13 11 13 14 16 16 18 19 20 21 16 11 9 9 12 14 16 18 20 21 21 21 20 19 19 19 19 19 20 21 23 25 27 28 28 29 30 31 32 31 32 34 35 35
10 9 9 11 11 10 9 9 8 8 7 7 9 12 15 17 19 20 21 21 21 20 20 20 21 21 21 22 22 23 24 25 25 26 27 28 29 31 32 33 34 33 35 39
6 3 1 0 2 4 6 6 5 8 11 12 13 15 18 19 21 21 21 19 19 19 18 18 19 19 20 21 22 23 24 25 26 28 29 30 30 30 31 32 33 32 31 34
15 13 10 8 8 10 10 7 8 12 15 17 19 20 21 23 22 21 20 20 19 19 20 20 20 21 21 21 22 23 24 25 27 27 28 29 30 32 33 32 32 32 33 34
22 21 19 16 16 16 16 12 14 17 18 18 19 21 21 20 21 21 21 20 21 21 21 22 22 22 22 22 23 23 23 25 26 27 28 28 29 30 31 32 32 32 32 32
24 23 22 23 24 22 18 17 19 19 20 21 21 21 21 20 21 21 21 21 21 21 21 21 22 22 22 23 24 24 24 25 25 26 27 27 28 29 29 30 30 31 33 32
16 19 23 22 21 22 21 21 21 20 21 21 22 21 21 21 21 22 22 23 23 24 25 25 26 26 27 27 27 28 28 28 28 28 28 29 29 29 29 30 30 30 30 31

GFSNGP_700_spd_096.txt.gz
Wind_Speed
6 4 1 7 24 25 21 13 7 7 7 4 5 4 10 9 10 9 7 8 11 13 16 17 18 19 20 21 22 24 27 30 31 31 32 31 32 32 33 34 34 33 33 32
3 3 5 5 12 21 25 25 25 24 18 15 15 13 14 13 16 16 15 12 14 13 13 14 15 16 15 15 17 19 21 23 26 28 29 29 29 28 28 28 29 29 30 31
1 3 4 2 7 13 15 17 18 18 14 18 17 13 12 10 17 15 15 13 18 17 15 13 13 13 13 14 16 18 20 21 23 23 23 22 23 24 25 27 29 30 32 32
1 3 1 2 4 10 11 9 13 15 16 18 16 14 15 15 14 13 11 11 14 17 17 16 16 16 15 14 15 16 17 18 19 20 20 21 23 24 26 28 31 32 34 35
2 2 2 3 3 6 5 6 6 5 6 8 10 11 14 16 17 12 12 11 12 15 17 17 17 16 15 15 15 15 15 16 18 20 22 24 25 27 28 30 33 34 33 32
2 2 0 4 2 3 6 4 4 5 7 9 9 8 8 10 14 17 17 15 14 16 18 18 17 15 14 12 12 13 15 17 19 22 23 25 26 28 31 32 34 34 34 33
6 3 1 3 3 4 4 4 4 6 7 8 8 7 10 12 11 13 16 18 17 15 16 17 15 14 14 14 14 15 18 19 21 23 26 28 29 31 33 35 35 35 37 36
4 2 3 1 3 4 4 6 7 9 8 8 6 5 4 5 6 8 12 17 17 16 16 16 15 15 16 17 18 19 23 24 23 25 27 29 32 33 33 33 33 34 30 29
4 4 4 3 3 4 5 8 8 8 7 7 6 4 4 4 3 3 6 11 15 16 17 16 16 17 17 19 22 24 24 24 25 27 26 27 27 28 28 28 28 25 25 26
2 4 5 7 7 7 7 8 8 8 8 7 4 5 4 6 6 5 5 7 12 15 17 19 21 22 22 23 24 24 24 24 27 27 27 27 26 25 24 22 22 21 21 22
6 8 6 8 8 7 8 8 9 10 7 4 5 6 5 6 5 7 8 11 14 15 18 19 21 22 23 24 24 25 25 25 24 22 23 23 24 24 24 22 22 22 22 21
8 12 10 10 12 11 10 10 9 8 7 8 8 8 6 6 7 8 8 9 11 12 14 17 21 23 23 24 25 29 29 24 23 22 21 20 22 23 23 24 23 22 22 22
16 14 14 14 12 9 8 7 9 10 13 13 14 13 11 10 11 11 11 12 13 14 16 17 18 19 21 22 23 22 23 24 22 22 20 19 19 20 22 23 23 22 22 21
15 14 15 12 13 13 11 10 11 13 14 13 12 7 11 14 16 15 15 16 17 19 19 20 21 22 22 24 26 26 23 23 19 22 22 21 21 21 21 21 21 19 21 20
22 21 22 21 21 19 19 18 16 14 13 12 12 14 15 17 18 19 20 22 23 24 25 26 26 26 26 26 26 27 25 24 23 24 23 24 20 20 20 20 19 18 17 18
16 20 25 26 25 22 21 19 20 18 17 15 15 16 18 21 23 25 26 25 24 25 25 25 26 26 26 25 25 26 25 28 27 23 19 19 24 23 20 18 18 17 16 17
14 15 17 23 22 21 21 18 19 19 20 17 17 20 23 26 26 22 17 16 16 18 19 20 21 22 22 22 22 22 24 25 25 24 24 27 25 24 22 20 19 17 17 18
18 20 20 17 19 16 17 21 17 19 20 20 21 24 26 22 15 13 13 13 14 14 15 15 15 15 17 17 18 19 22 23 23 23 22 23 27 27 27 25 24 21 18 19
16 16 14 14 15 19 19 16 18 18 18 23 25 23 19 13 12 12 13 13 14 15 15 15 15 14 14 14 16 18 20 20 21 22 23 24 24 26 26 25 26 26 25 24
18 14 14 13 12 14 19 19 19 23 25 25 24 22 19 13 12 14 15 17 18 19 19 20 19 19 18 17 18 17 16 18 21 23 25 25 26 26 27 27 29 28 28 29
16 15 12 11 12 14 15 16 17 18 21 21 21 17 13 12 12 16 18 19 20 20 20 20 20 20 20 20 20 20 20 21 21 22 24 25 26 27 28 28 29 30 31 31
15 14 12 10 9 7 7 8 7 7 7 7 8 11 13 10 13 16 17 18 19 19 19 18 18 18 18 19 20 20 21 22 22 23 24 25 26 27 27 28 30 30 30 30
15 13 11 9 7 7 5 5 7 9 8 6 7 11 15 15 18 20 21 19 19 19 20 20 19 19 19 20 20 21 22 22 23 23 24 25 26 27 28 29 31 31 31 31
17 17 17 15 14 14 14 14 13 13 7 8 14 16 17 18 19 19 19 19 20 20 20 20 20 21 21 21 22 22 23 23 23 24 24 25 25 26 27 28 29 30 31 32
19 20 21 20 19 19 17 18 18 16 14 15 18 18 19 19 19 20 20 21 21 21 22 23 23 22 23 24 24 24 25 25 26 26 25 26 27 27 28 28 28 29 29 30
15 15 17 20 20 20 20 20 20 18 16 18 19 19 19 19 18 19 20 21 21 22 22 23 24 25 26 26 27 27 28 29 29 30 30 31 31 31 31 31 30 30 31 30
12 12 12 12 14 18 19 19 19 20 20 20 20 19 17 17 18 19 21 23 24 25 27 27 28 29 29 29 30 30 30 31 32 32 32 32 33 33 33 33 33 33 33 33

GFSNGP_700_spd_099.txt.gz
Wind_Speed
5 2 1 7 15 22 14 10 1 13 11 6 5 5 4 3 3 2 4 7 10 16 21 22 20 19 19 20 21 20 23 27 31 32 30 31 31 29 28 29 31 34 35 35
2 3 4 1 13 25 18 18 12 11 10 9 9 10 10 11 12 10 9 8 9 12 16 17 19 18 19 20 20 20 20 21 22 23 26 27 26 27 28 29 30 30 29 30
2 1 2 3 6 19 21 20 19 18 16 16 18 15 17 15 15 15 14 12 11 13 14 16 16 15 15 15 15 14 14 16 18 20 21 22 23 24 24 25 26 27 28 30
3 1 0 0 4 10 14 11 14 15 14 17 16 13 17 17 16 15 12 11 11 12 14 14 13 13 12 12 12 13 14 15 16 17 18 18 19 20 22 24 26 28 30 32
2 3 0 1 2 5 9 7 4 5 7 8 9 11 14 15 15 15 14 12 11 12 14 14 13 12 11 11 12 13 14 15 16 17 17 18 20 22 24 26 28 30 31 33
2 2 1 0 1 2 5 4 3 2 5 7 8 9 9 10 12 15 18 16 13 12 14 14 14 13 11 12 12 12 12 14 15 16 18 21 23 25 27 29 31 33 35 36
4 2 2 2 3 2 3 2 3 5 8 9 8 6 8 10 10 11 15 18 16 14 12 14 15 13 12 12 12 13 13 15 16 17 20 23 25 27 28 30 34 36 36 36
3 2 2 3 3 3 3 6 6 9 9 8 8 5 4 4 4 7 9 13 17 16 14 14 15 14 14 14 15 16 17 18 20 23 24 25 26 28 27 28 29 28 30 32
1 1 2 2 3 3 4 7 8 10 10 9 8 6 5 4 3 3 6 9 13 15 15 15 16 16 15 16 17 18 20 22 23 24 25 27 30 29 28 28 27 26 26 26
3 6 6 4 6 7 8 9 9 8 8 9 6 4 3 5 5 5 5 5 8 12 15 17 17 17 18 19 21 23 23 24 24 25 28 29 26 26 26 25 26 26 26 25
11 11 10 8 8 7 6 9 9 10 9 8 6 6 5 3 4 4 7 8 10 11 14 17 19 21 22 24 25 25 24 25 25 26 24 25 24 23 23 24 25 26 25 24
12 12 13 13 5 8 8 9 10 9 8 8 9 8 8 7 5 6 7 8 8 10 11 15 18 20 23 25 26 26 25 26 25 26 25 25 24 21 21 22 23 24 24 24
12 13 14 11 10 10 9 7 7 9 10 11 13 15 15 14 11 10 11 11 11 12 13 15 16 18 20 21 22 24 25 25 24 24 25 25 24 24 21 22 22 22 23 23
14 17 18 13 11 11 13 12 10 10 12 13 14 14 12 8 10 13 14 16 17 17 18 20 21 22 23 25 25 26 27 28 27 24 24 22 24 23 25 24 22 21 22 21
17 20 21 23 21 17 19 20 19 18 17 17 15 14 13 13 14 15 18 20 22 23 23 24 24 26 27 28 29 30 30 29 28 25 25 25 26 26 26 22 21 21 20 20
9 12 14 17 18 22 26 24 21 19 18 19 18 17 13 15 16 20 23 23 22 20 19 18 20 23 24 25 26 27 27 26 27 23 27 27 26 20 22 25 22 20 18 19
10 14 18 21 21 19 21 19 20 18 19 20 19 20 17 19 21 25 22 17 16 16 16 16 16 16 17 18 19 20 21 23 24 25 26 25 23 24 26 27 28 26 23 19
14 13 14 14 15 18 18 17 16 20 21 23 23 21 20 21 23 21 16 15 14 14 14 15 15 16 15 14 14 15 16 19 21 21 23 23 24 23 25 27 25 25 23 23
14 14 13 14 13 13 14 16 16 16 19 21 20 19 20 21 21 19 15 14 15 16 17 18 19 19 18 17 16 15 16 17 19 20 21 21 22 23 25 26 26 26 26 26
13 13 13 11 11 11 10 13 18 19 18 20 21 23 24 24 23 20 16 15 16 18 19 19 20 20 19 19 18 17 17 18 18 18 19 22 25 26 27 27 28 28 28 28
14 13 12 11 10 11 12 14 15 15 16 17 17 19 21 21 19 17 12 11 15 16 16 15 16 16 17 16 16 17 17 17 18 19 21 22 23 24 24 26 27 27 28 29
15 13 12 10 8 7 7 6 8 8 8 7 5 5 7 9 10 12 13 15 17 16 15 15 16 16 16 17 17 17 18 18 19 20 21 21 23 23 24 25 26 27 29 30
18 16 14 13 11 10 9 8 8 10 13 15 14 7 6 10 11 13 13 12 13 14 15 15 16 16 17 18 18 19 20 20 20 21 21 22 23 24 24 24 25 26 27 28
16 16 17 16 16 15 15 16 15 14 13 13 13 11 9 10 14 15 14 14 13 14 15 16 16 17 17 17 18 19 20 21 22 22 23 24 24 25 25 25 25 26 26 27
13 14 15 16 18 18 18 19 18 18 17 16 15 15 15 15 15 15 15 14 14 15 17 18 19 20 21 21 22 23 24 24 25 25 26 27 27 28 28 29 29 29 30 30
9 9 9 9 10 14 17 18 18 19 18 18 18 17 17 17 16 15 15 15 17 18 20 22 23 24 25 25 25 26 26 27 28 28 29 29 30 30 30 31 32 32 33 33
7 8 8 8 7 7 8 11 14 18 18 17 17 17 17 15 14 14 14 15 16 18 19 20 21 22 22 23 25 26 26 27 29 29 30 31 32 32 32 33 33 33 33 33

GFSNGP_700_spd_102.txt.gz
Wind_Speed
3 3 1 3 12 18 9 8 6 5 12 6 3 5 5 4 4 5 10 15 19 24 29 32 32 31 28 27 26 27 25 25 27 27 28 29 30 30 29 29 31 31 31 32
5 4 4 1 10 19 13 9 5 10 9 6 2 4 7 6 5 5 6 8 11 15 19 23 24 24 24 26 25 22 22 22 23 26 28 29 29 28 28 28 30 32 33 32
3 2 2 4 1 20 18 11 10 12 10 11 13 16 16 16 17 13 9 8 11 13 15 16 19 22 23 23 22 21 21 20 20 21 21 20 21 23 25 27 28 28 27 27
4 3 2 2 1 5 13 11 13 13 13 12 13 15 17 17 18 19 13 10 8 11 15 16 16 17 19 18 17 17 16 16 16 17 18 19 20 21 22 23 24 25 27 28
3 4 2 2 2 3 9 8 8 5 6 8 10 14 16 20 20 20 23 17 11 10 13 17 17 17 16 15 15 15 15 15 16 16 17 17 18 20 21 23 25 27 29 31
2 1 1 1 1 1 4 5 5 3 3 5 7 9 10 12 15 18 22 20 15 11 10 14 16 16 16 15 14 14 15 16 16 15 15 16 18 21 24 27 28 31 33 35
3 2 1 1 2 2 3 3 3 3 5 7 8 8 7 10 12 13 15 18 18 16 12 13 16 16 15 13 13 15 15 15 14 14 16 17 20 24 27 28 30 31 33 34
3 2 2 1 0 3 3 4 5 5 7 8 7 7 6 6 6 8 11 13 14 17 15 13 14 15 15 14 16 15 16 16 16 17 19 21 24 26 27 29 31 31 31 31
1 3 4 2 1 2 3 5 6 7 7 8 8 6 6 5 5 5 5 7 11 14 16 15 16 17 17 18 17 17 18 19 20 21 23 25 27 28 30 32 30 29 30 29
6 7 8 8 8 7 7 8 8 8 8 7 5 4 5 5 6 6 5 4 6 10 14 16 16 17 18 19 19 19 20 21 23 25 25 27 29 29 28 28 26 25 27 28
13 10 10 12 10 9 8 8 10 10 9 10 8 9 9 5 5 5 7 8 8 9 11 13 16 18 20 20 21 23 25 26 26 26 27 28 29 29 29 29 26 24 26 27
11 13 13 12 13 13 7 9 8 9 10 10 9 9 8 8 9 8 7 7 8 10 11 15 18 20 21 23 25 26 27 29 31 30 28 28 29 30 30 28 26 23 24 24
11 13 13 13 13 9 10 10 10 8 9 10 12 12 14 14 15 14 11 10 10 12 13 14 16 18 20 22 24 26 27 28 27 28 28 29 30 29 28 27 27 26 25 25
12 14 15 14 14 14 14 14 14 12 12 13 12 14 16 15 13 15 13 13 14 15 17 19 20 22 24 25 27 29 30 30 29 29 31 30 28 27 28 28 27 27 26 24
9 13 17 18 20 22 22 22 19 18 20 20 19 18 17 18 17 13 14 16 18 20 22 23 24 24 25 27 29 31 33 33 33 33 32 30 29 28 30 27 25 26 25 26
7 10 13 14 15 16 17 17 22 27 27 24 23 21 20 20 16 15 17 19 22 23 22 20 19 19 20 22 24 27 29 30 31 32 30 30 26 29 30 30 25 23 26 26
6 10 13 15 16 18 19 20 19 21 21 25 24 23 24 23 24 18 20 22 22 20 19 18 18 17 18 18 18 19 21 22 24 25 26 28 27 33 33 28 27 30 29 33
12 14 13 14 15 16 14 16 18 18 18 20 22 23 25 28 29 20 22 22 20 19 18 17 18 18 18 19 19 18 17 16 17 20 22 23 25 26 26 27 27 27 29 30
13 13 13 13 13 13 12 11 13 14 15 16 19 23 23 23 19 22 21 21 21 20 19 19 19 20 20 20 20 20 19 18 17 17 18 20 21 22 24 25 26 27 28 28
13 13 13 13 12 12 11 11 11 13 17 20 21 21 22 23 23 22 24 24 25 22 17 18 19 19 19 18 17 17 17 17 17 18 19 19 20 21 23 24 26 27 28 30
13 13 13 12 11 11 11 11 12 12 13 14 17 17 17 17 14 11 15 18 21 20 12 15 16 16 15 15 15 15 15 15 15 16 17 18 19 20 21 22 24 25 26 27
16 16 16 15 14 12 11 10 10 8 8 8 10 12 10 10 12 15 13 9 14 14 14 15 15 15 15 15 15 16 16 16 16 17 17 18 18 19 20 21 22 23 24 25
16 16 15 16 16 16 16 15 14 13 12 11 11 13 15 15 11 8 9 11 13 13 13 14 14 14 15 15 16 16 17 17 18 19 19 20 21 21 22 23 24 24 25 25
15 15 15 16 17 18 19 20 19 18 17 15 14 14 14 12 12 13 12 12 13 14 14 15 15 16 16 17 18 19 19 19 20 20 21 22 23 23 24 25 26 27 28 29
12 12 13 13 14 16 18 20 19 19 19 19 20 20 19 18 17 17 18 17 16 16 16 16 18 20 20 22 23 24 24 24 24 24 25 25 25 26 27 27 28 29 30 31
8 8 8 9 9 10 12 14 15 17 18 18 19 19 20 20 19 19 17 18 17 17 17 16 16 16 16 16 17 19 20 22 24 25 26 27 28 29 29 30 30 31 32 33
6 4 4 5 5 6 6 7 8 10 12 13 14 16 16 15 15 15 15 15 15 16 15 14 14 15 16 18 21 22 24 26 27 27 28 29 30 30 31 31 31 31 32 32

GFSNGP_700_spd_105.txt.gz
Wind_Speed
4 5 2 3 4 6 1 6 2 15 14 8 7 7 5 4 4 2 6 12 15 16 18 21 24 26 24 23 21 21 21 21 22 24 25 25 25 26 27 27 28 30 31 30
5 6 6 4 2 8 6 3 5 18 14 9 6 3 2 5 7 5 2 3 9 14 18 22 24 26 28 27 27 27 26 24 25 25 26 26 27 28 29 31 32 31 30 30
3 4 4 7 4 9 10 4 4 7 9 3 6 11 12 9 8 7 6 4 7 9 13 17 22 27 30 30 29 27 26 26 23 23 23 24 27 28 28 28 27 27 28 28
3 3 3 3 3 4 6 8 6 6 7 10 12 16 15 14 13 11 7 6 6 9 12 15 19 24 26 25 24 21 21 23 23 22 22 22 22 23 24 24 24 25 25 26
2 4 3 3 3 5 10 7 9 10 10 10 11 14 16 16 15 16 16 13 10 11 11 13 17 17 16 19 19 19 19 19 19 19 20 21 21 21 21 22 22 23 25 27
3 2 1 3 2 3 4 4 3 3 4 4 6 8 10 12 15 17 19 21 16 14 13 13 17 17 16 17 17 18 18 19 19 20 20 20 20 20 20 20 22 25 27 30
1 1 1 1 0 1 2 2 3 2 5 7 8 8 9 10 13 14 15 16 18 16 13 13 16 18 18 18 18 19 19 19 19 19 18 18 18 19 19 21 25 28 29 32
3 2 1 1 1 1 2 3 3 4 6 8 8 8 8 8 9 10 12 14 14 14 17 16 17 19 20 19 21 19 19 18 19 19 18 18 19 21 24 28 29 28 29 31
2 3 3 2 2 1 2 4 4 5 6 7 8 8 7 7 7 8 7 8 9 12 17 17 16 18 20 21 21 20 20 21 21 21 21 22 23 25 28 29 30 31 31 29
5 7 7 6 6 7 7 7 6 6 7 9 8 6 7 7 7 7 8 7 6 9 13 17 18 18 20 22 22 21 21 21 22 23 23 24 25 27 29 31 31 30 29 28
11 10 8 8 10 11 10 10 9 10 9 8 10 12 10 11 9 8 7 9 9 7 8 11 15 17 19 21 21 21 21 22 23 25 26 29 30 31 32 33 32 32 33 30
12 10 12 13 12 12 14 14 11 10 10 11 10 11 12 7 8 9 10 10 10 10 10 12 15 18 19 20 22 24 25 27 28 29 30 31 32 34 30 29 30 36 37 32
15 14 15 15 15 14 11 12 13 12 11 11 12 13 13 11 13 16 15 16 14 13 13 14 15 16 18 20 22 25 27 28 30 30 31 31 31 30 33 34 34 35 32 33
13 14 15 15 17 16 14 14 16 17 15 14 15 14 12 13 14 14 14 17 18 16 16 17 19 21 22 23 25 27 28 30 31 32 33 33 33 33 34 34 31 29 33 31
5 6 8 11 14 17 19 20 20 21 22 21 20 21 21 21 20 18 20 19 16 16 18 20 22 23 24 25 26 28 30 32 34 35 36 37 37 36 37 34 31 30 30 28
5 5 7 10 14 16 18 20 20 19 21 26 28 28 27 24 23 22 21 20 18 18 20 22 22 21 21 22 22 23 24 25 28 30 32 33 35 34 33 33 27 30 32 32
7 8 11 14 15 16 17 18 19 21 23 22 23 23 23 26 27 27 28 26 25 20 21 23 23 21 21 20 21 21 21 22 22 22 23 25 27 28 27 28 28 32 34 33
11 13 14 15 16 16 17 18 18 18 20 21 20 21 21 19 23 26 27 28 30 23 21 22 22 22 22 22 23 23 23 23 23 21 19 19 21 23 25 27 28 28 28 29
13 15 15 15 15 14 15 16 16 16 16 16 15 15 18 21 24 25 27 25 24 24 23 23 23 23 23 23 23 24 23 23 22 21 21 20 20 20 21 22 24 25 26 26
14 14 15 14 14 14 14 15 15 15 16 16 17 19 20 22 24 24 24 24 22 22 23 26 27 24 20 21 21 20 20 20 20 19 19 19 20 20 22 23 24 25 26 27
15 15 15 16 16 16 15 13 12 12 12 12 13 13 14 13 15 18 19 19 18 17 19 22 23 21 16 19 18 18 18 18 18 18 18 19 19 19 20 21 22 23 24 24
16 17 18 18 18 18 17 16 14 13 12 11 11 12 13 14 15 17 20 20 21 21 16 12 14 15 17 17 17 17 18 18 18 18 18 19 20 20 20 21 22 23 23 24
18 18 18 18 17 17 18 18 18 17 16 17 17 17 16 16 16 15 15 17 18 16 12 12 15 16 17 17 17 17 19 19 20 20 21 22 22 23 23 24 25 26 27 27
18 18 17 16 16 17 18 19 20 19 19 20 19 18 17 17 19 20 19 17 16 16 16 17 16 17 19 20 20 21 22 23 24 24 24 24 25 25 27 27 28 29 30 30
17 16 15 15 14 15 15 16 16 17 18 18 19 20 20 20 20 20 20 20 19 18 17 18 19 19 19 19 16 15 15 16 18 19 20 22 23 24 25 26 27 28 30 31
16 15 13 12 12 12 12 12 12 14 14 15 16 18 19 19 20 20 19 17 17 17 19 19 18 16 15 14 14 15 16 18 20 21 21 23 24 25 26 27 28 29 30 31
15 14 13 11 10 9 8 8 9 10 9 9 10 12 11 13 14 15 16 17 18 17 17 16 15 14 14 15 16 17 18 20 21 20 20 20 21 22 23 24 25 26 28 29

GFSNGP_700_spd_108.txt.gz
Wind_Speed
9 8 7 8 5 4 8 7 5 15 13 10 9 9 9 10 8 3 5 10 11 14 17 15 18 21 23 21 20 19 19 18 19 19 20 21 22 23 23 23 23 24 26 27
9 8 9 10 6 7 7 10 12 12 11 9 7 7 8 7 6 5 2 4 10 14 16 21 22 24 24 23 23 23 22 20 20 21 21 22 24 24 25 26 26 27 28 29
3 4 2 6 9 5 6 10 10 9 7 5 3 5 10 7 5 4 1 1 5 11 16 21 24 26 27 28 28 30 28 25 24 25 24 25 24 25 25 26 27 28 28 27
1 3 3 3 4 3 6 6 4 2 2 4 7 9 13 11 9 7 6 5 5 8 10 13 19 24 27 29 31 32 30 27 27 26 25 23 23 23 25 25 24 24 25 25
2 5 7 4 4 6 6 6 4 5 5 6 7 8 10 11 12 12 10 10 9 9 9 13 16 19 20 23 25 25 24 24 24 23 23 23 23 23 22 21 23 23 23 24
2 3 2 5 3 2 3 2 2 2 2 2 4 6 8 9 10 12 12 12 13 13 14 14 14 16 19 19 20 21 22 22 21 20 20 21 22 22 21 22 22 23 23 24
1 3 3 4 3 5 4 4 3 2 4 5 6 6 8 9 9 9 10 11 11 10 16 17 15 15 16 17 19 21 20 19 20 20 21 20 21 21 21 22 22 22 24 25
3 2 2 3 3 3 2 5 4 4 5 7 7 8 8 8 8 9 8 8 9 11 15 17 16 18 19 21 21 20 19 20 19 20 21 22 21 20 21 21 23 26 27 29
4 3 3 4 3 2 1 2 4 6 7 7 7 8 8 7 7 7 7 6 6 8 12 16 16 17 18 20 20 20 20 20 20 22 21 20 21 22 23 24 27 29 29 31
6 6 5 5 4 4 5 5 6 7 8 9 9 9 9 8 7 7 8 7 6 5 8 13 16 16 17 20 22 22 23 23 22 22 23 24 24 24 25 27 30 32 31 31
11 9 7 8 7 7 9 8 8 10 10 10 11 11 12 10 8 8 8 7 8 8 7 6 9 15 17 18 22 23 24 27 26 23 25 26 26 27 28 32 33 31 30 29
10 9 11 11 11 11 11 12 16 13 12 12 11 11 10 10 11 11 11 11 10 10 11 11 12 13 15 17 18 20 21 22 23 26 27 29 30 31 31 33 35 32 28 30
14 12 13 13 13 13 14 14 15 14 15 15 13 11 12 13 14 13 14 13 15 17 16 15 15 15 16 17 18 20 23 25 27 28 30 31 32 32 31 32 32 30 34 34
12 13 13 13 15 15 16 16 16 17 18 18 19 17 15 15 14 16 14 15 16 17 20 21 20 19 20 22 23 24 25 26 28 29 30 32 33 34 34 34 33 33 34 35
6 7 7 8 9 11 12 14 16 18 20 23 24 25 23 21 21 21 21 21 21 20 24 22 21 22 22 23 25 25 26 27 28 29 31 33 35 36 37 37 36 34 33 38
7 7 6 8 10 12 14 15 16 18 20 22 22 23 27 28 28 27 28 26 24 22 23 23 22 23 23 22 22 23 23 24 25 25 26 27 29 31 32 34 35 33 33 33
10 9 9 12 14 15 16 17 18 19 19 20 22 24 25 26 26 23 22 26 24 23 27 26 25 23 24 24 22 21 22 23 24 24 25 24 24 23 25 27 28 29 26 26
13 13 13 15 17 18 18 18 17 17 17 17 17 19 21 21 21 21 21 23 27 27 28 30 27 26 25 24 23 23 23 24 24 24 24 24 22 21 20 21 22 22 24 27
14 14 15 17 17 18 17 17 16 16 16 15 15 15 16 18 19 22 25 26 26 27 27 27 26 26 26 25 24 24 24 24 23 23 22 22 21 21 21 21 21 21 22 24
15 16 16 17 17 18 17 18 17 16 16 15 14 14 15 16 17 19 20 21 22 23 24 25 22 22 24 25 25 21 20 20 20 20 19 19 19 19 20 20 20 21 22 23
16 17 17 18 19 19 19 19 18 17 15 14 13 12 12 12 14 15 16 17 18 20 20 22 22 22 21 21 22 20 16 17 17 17 17 17 18 19 19 20 20 21 21 21
17 17 18 20 20 20 19 18 18 17 16 16 15 15 16 16 17 17 17 17 17 18 19 21 23 22 16 12 13 15 17 18 19 19 20 20 20 20 21 21 22 22 23 23
18 18 20 21 20 19 18 18 18 18 17 18 19 19 19 20 19 17 17 17 18 18 19 19 17 17 15 14 14 15 17 18 20 21 22 22 22 22 22 23 24 25 25 26
19 19 21 20 19 18 18 17 16 16 16 17 18 19 19 20 20 21 20 20 20 19 19 19 19 18 14 16 20 22 22 22 20 19 19 19 20 21 22 23 24 25 26 26
20 20 20 19 18 17 17 17 15 15 15 14 15 16 17 18 17 20 20 21 21 21 19 18 18 16 19 19 19 17 14 14 14 15 16 17 18 19 19 21 22 22 23 25
20 20 20 19 17 16 15 13 13 13 12 12 13 13 13 14 16 16 17 17 17 17 18 19 21 19 20 18 16 15 14 15 16 15 15 16 16 16 16 17 19 20 21 22
20 20 20 18 17 16 15 14 15 16 16 16 16 18 17 17 17 17 17 17 17 17 17 18 18 17 16 16 15 16 16 16 16 15 16 16 16 17 18 19 21 22 24 26

GFSNGP_700_spd_111.txt.gz
Wind_Speed
13 9 8 11 12 16 19 11 13 17 18 16 15 16 15 15 10 5 7 9 9 11 16 19 21 22 20 23 23 22 21 19 18 17 16 18 20 21 22 22 23 23 23 24
16 16 15 15 13 13 15 21 20 15 16 13 12 13 10 8 8 7 4 6 9 10 14 15 16 16 19 22 23 22 21 19 17 17 17 18 21 22 23 24 24 24 24 24
5 5 4 10 11 11 11 14 12 13 11 8 7 8 8 6 3 3 4 4 4 9 13 14 18 18 20 22 24 24 22 20 18 18 19 21 22 23 24 25 26 26 26 25
3 2 4 4 6 10 12 12 8 5 3 2 3 4 6 7 6 3 2 3 4 6 9 14 18 20 21 23 25 26 26 26 25 24 24 26 26 25 25 25 25 26 27 27
3 7 7 3 5 7 5 5 3 1 0 3 4 5 6 6 7 9 7 6 7 8 9 11 13 16 19 23 25 25 26 26 26 26 26 27 27 26 24 23 24 25 24 23
4 4 2 4 4 6 7 7 4 2 1 4 4 4 5 7 8 8 9 8 11 14 13 13 11 13 17 19 22 24 26 26 26 24 23 22 22 22 21 20 20 22 23 24
6 3 4 6 3 4 2 5 6 3 2 2 4 5 6 7 8 8 8 10 11 11 14 16 16 16 17 17 19 20 21 22 21 21 21 21 21 20 21 20 22 22 23 24
5 4 3 7 6 4 3 6 4 2 4 5 6 6 7 7 7 7 7 7 9 11 12 14 16 17 17 18 18 18 19 18 19 19 20 20 21 21 21 21 22 23 24 25
3 4 8 9 6 6 5 4 4 4 5 6 7 8 8 8 8 7 6 6 6 8 10 14 16 16 17 18 18 18 19 19 20 20 20 21 21 22 21 22 23 23 24 27
6 8 9 8 6 5 5 4 4 4 6 7 8 9 9 8 7 8 8 6 5 5 7 10 12 14 17 15 20 22 24 25 25 25 25 25 24 23 23 24 26 26 26 28
11 9 10 9 7 6 5 6 6 7 8 10 11 11 11 10 9 7 8 8 8 8 8 9 11 17 17 18 23 20 20 22 23 26 29 28 27 27 28 30 28 27 26 30
6 9 10 8 9 9 8 8 10 11 10 11 12 13 11 10 10 11 12 12 12 11 11 12 13 15 18 21 24 24 20 25 29 28 21 27 23 23 27 28 28 29 33 35
11 9 9 10 10 10 11 11 12 12 13 14 15 15 15 13 12 14 15 15 15 15 16 18 18 18 18 18 18 20 21 23 25 25 25 25 26 28 30 33 34 34 36 36
10 10 10 10 10 11 12 12 13 14 14 16 18 19 19 19 19 18 16 19 17 18 16 16 19 24 23 21 21 22 23 25 26 27 28 29 30 31 33 34 35 35 35 35
6 7 7 7 7 7 9 10 11 12 14 16 17 20 22 24 25 26 25 25 24 24 23 23 23 25 28 25 21 22 24 25 26 26 27 28 29 31 33 34 36 37 38 37
7 7 8 8 7 8 11 12 13 15 16 17 18 19 21 24 24 24 26 28 28 27 24 24 26 26 26 25 23 24 24 24 24 24 25 25 26 26 27 28 29 30 32 33
10 9 10 10 10 12 13 15 15 16 16 17 18 19 18 19 21 22 24 23 22 23 25 24 27 28 28 28 30 24 25 25 25 25 25 25 26 26 26 26 25 24 24 25
10 11 12 13 13 15 15 15 15 15 15 16 16 17 17 16 16 16 16 16 19 22 24 25 27 28 29 32 32 29 26 25 25 25 25 25 26 26 26 24 23 21 19 21
12 13 14 15 16 16 17 16 16 16 17 16 16 17 17 16 16 16 17 18 20 21 22 24 24 25 25 27 27 28 27 27 27 26 24 24 24 24 23 22 21 21 20 20
13 14 15 16 17 18 18 18 18 18 18 18 16 16 15 14 14 14 14 15 17 18 18 18 18 19 20 22 24 25 26 25 21 19 20 21 20 20 19 19 19 18 18 18
14 15 16 18 19 20 20 20 19 19 18 18 17 16 15 14 14 14 17 18 18 18 16 16 17 18 20 21 23 24 20 19 21 20 17 17 16 15 15 16 16 16 16 17
15 16 18 20 21 22 21 20 19 19 18 18 19 18 18 17 17 18 19 19 18 17 18 19 19 20 20 20 19 19 17 16 16 16 15 16 17 18 19 19 19 20 19 19
16 17 19 20 22 22 21 20 18 18 18 18 19 20 19 19 19 19 20 18 19 20 20 19 19 20 20 19 18 17 16 16 20 21 20 18 20 22 22 21 21 21 21 21
16 18 20 21 21 22 20 19 17 18 18 17 18 19 18 18 18 18 18 18 19 19 19 20 21 20 20 20 16 14 17 19 21 18 16 16 17 17 17 17 17 18 18 18
17 19 20 21 21 21 19 18 16 17 16 16 16 16 17 16 14 16 19 18 19 19 19 19 18 18 18 19 18 19 19 19 17 18 18 18 17 15 13 12 12 13 13 13
18 20 21 20 20 19 18 17 16 16 15 16 16 16 16 15 16 16 16 17 18 18 18 19 19 19 18 18 18 17 17 17 17 17 17 16 14 13 12 12 12 13 14 15
20 21 21 20 20 18 18 19 19 20 21 21 21 23 21 21 20 19 19 20 19 19 20 20 20 20 19 18 16 16 16 16 16 16 16 16 14 14 13 14 14 14 15 17

GFSNGP_700_spd_114.txt.gz
Wind_Speed
10 10 15 21 22 19 25 18 19 16 23 22 22 20 20 19 15 11 9 8 8 5 8 8 11 14 12 10 12 14 13 13 13 11 11 16 19 21 24 26 27 26 25 24
16 17 15 19 18 20 25 22 22 20 21 17 17 16 12 12 12 10 9 6 7 7 7 11 14 12 10 13 17 19 17 16 15 15 13 15 18 21 23 24 25 26 25 26
2 3 4 10 17 16 17 16 14 14 13 12 10 9 9 8 8 8 6 5 4 6 7 9 12 13 13 17 20 20 20 19 19 17 16 16 17 19 21 23 25 26 26 27
2 1 3 3 7 12 12 14 12 8 6 4 4 4 2 2 3 4 3 2 1 2 6 10 11 14 16 16 19 22 23 22 23 21 20 19 20 21 21 23 24 26 27 27
2 7 6 5 8 10 8 8 7 6 4 1 2 5 7 5 3 4 4 5 6 5 5 7 11 15 17 19 21 23 25 25 25 25 24 24 24 24 26 27 27 27 27 27
3 3 2 4 6 8 8 4 4 3 3 3 3 5 5 6 5 4 5 6 8 10 10 9 8 9 13 16 19 22 24 25 27 28 28 28 28 28 28 27 25 25 25 25
4 4 3 8 6 6 2 3 6 3 1 2 2 2 4 5 6 7 6 6 10 11 12 15 16 15 14 14 15 17 19 21 23 24 26 26 27 26 25 25 24 23 23 22
3 2 2 8 6 4 2 6 3 1 1 2 3 4 5 6 7 7 7 7 7 9 12 14 15 17 17 16 15 15 15 17 17 18 20 21 21 21 22 22 22 23 23 24
4 4 8 12 7 5 6 5 3 3 4 6 7 7 8 8 6 6 6 8 9 9 8 11 14 15 15 16 17 16 15 15 16 16 18 19 20 21 21 22 22 23 22 23
5 8 10 9 9 7 6 5 4 4 4 6 7 9 11 11 10 10 11 9 7 7 9 9 10 12 15 15 18 19 19 19 20 21 22 23 23 23 23 24 24 24 24 25
11 10 11 10 9 8 7 7 6 6 7 9 10 9 10 13 13 11 11 11 11 10 10 11 12 13 18 17 18 20 15 21 27 32 31 30 28 29 30 30 29 29 28 28
8 10 11 8 9 8 8 7 8 10 10 10 9 11 13 13 13 13 15 15 16 17 17 17 17 16 18 20 26 28 28 26 22 23 28 27 25 28 35 37 34 34 34 33
9 9 12 12 10 10 10 10 11 12 13 14 14 16 16 16 16 15 16 17 19 21 22 22 22 23 24 23 23 24 24 24 24 25 26 26 25 24 22 25 26 27 29 32
10 10 10 10 9 9 10 10 11 11 12 14 15 16 17 18 19 20 21 22 22 23 23 22 22 23 24 26 26 30 31 29 28 27 28 28 29 29 29 30 31 32 33 35
6 7 8 7 7 6 6 7 9 10 12 14 15 17 18 20 21 22 24 25 26 26 26 26 27 27 27 27 29 31 30 33 32 28 26 27 29 30 31 32 33 34 35 37
5 5 6 7 7 6 6 8 10 12 14 16 17 19 20 21 23 24 26 26 26 26 26 26 26 25 26 25 26 28 32 31 29 26 27 27 27 28 28 29 30 31 32 33
6 7 7 7 7 8 9 11 13 14 15 16 17 18 19 19 20 20 21 22 23 22 22 20 21 22 24 27 29 28 28 32 34 32 29 28 29 30 30 29 30 30 30 30
9 8 8 8 10 11 12 13 14 15 15 16 16 17 18 19 19 20 20 19 19 20 21 22 24 26 27 28 29 29 28 26 28 33 34 32 30 29 29 30 30 29 28 27
12 10 10 10 11 13 14 15 15 17 18 19 19 18 18 19 18 18 18 20 20 20 19 19 20 21 23 23 23 23 23 24 24 27 28 31 31 29 27 26 26 26 25 24
13 12 12 12 13 15 16 17 17 18 20 20 20 19 18 18 17 17 17 17 17 18 18 19 20 20 20 20 21 21 23 24 26 25 26 25 23 23 22 22 22 22 21 21
15 14 14 14 15 16 18 19 20 19 20 21 21 21 20 19 18 18 19 20 20 20 19 19 19 19 20 21 21 21 22 21 20 21 21 24 25 22 21 19 18 17 17 18
16 15 16 16 16 18 19 21 21 20 20 20 20 22 22 21 20 20 21 21 21 19 20 21 21 20 19 19 20 21 22 21 21 21 21 22 21 22 23 22 22 22 21 20
15 16 16 16 18 19 21 21 21 20 20 20 20 21 22 22 22 21 21 21 20 21 21 22 20 20 20 20 20 20 19 18 18 18 17 19 19 17 17 17 16 19 22 22
15 16 16 17 19 20 20 21 20 20 19 20 19 20 20 20 20 20 20 21 20 21 21 22 22 22 21 20 20 19 19 20 19 20 20 20 18 18 19 19 20 20 20 19
15 15 17 18 20 20 20 21 19 19 19 18 18 19 18 18 17 19 19 19 19 20 21 21 20 20 20 21 22 22 22 22 20 19 20 20 19 18 17 14 13 13 12 12
15 17 18 19 21 21 21 20 19 19 20 19 21 22 22 21 21 22 22 22 23 24 23 22 22 21 20 20 21 21 21 20 19 18 17 17 17 16 14 12 12 12 12 11
16 18 20 21 22 22 21 21 21 21 22 23 24 26 26 24 24 22 22 23 23 22 21 21 21 21 21 21 21 21 20 19 17 17 16 16 15 14 13 13 13 14 13 13

GFSNGP_700_spd_117.txt.gz
Wind_Speed
8 10 16 18 22 22 23 18 20 21 23 18 19 21 23 22 19 18 25 13 14 27 26 21 20 16 13 12 13 14 13 12 13 12 11 13 16 18 19 19 22 24 23 23
10 11 15 18 18 17 20 19 20 19 20 17 17 16 18 19 19 18 14 13 12 11 11 15 18 17 14 12 10 11 11 9 11 11 10 11 15 17 19 21 23 25 25 25
4 2 3 6 12 13 13 12 11 14 12 10 13 14 15 15 15 15 14 12 9 9 6 7 6 6 6 8 9 11 13 13 15 14 13 12 14 16 20 21 23 25 26 25
3 4 2 1 6 12 11 11 11 9 10 10 10 12 12 10 9 10 10 9 9 7 5 6 8 10 12 13 15 18 19 19 19 18 15 13 14 16 18 19 20 21 24 26
1 6 4 3 7 7 8 6 7 8 7 9 10 9 8 10 9 7 5 4 4 3 2 3 5 9 11 15 15 17 20 20 20 19 19 18 18 18 19 20 21 23 25 26
1 2 1 1 7 7 5 2 1 3 4 5 8 5 10 9 7 7 7 4 2 2 3 3 4 5 9 13 15 16 18 20 23 24 24 25 26 25 23 24 26 28 28 29
3 3 4 7 8 9 2 3 3 2 4 5 6 7 8 8 9 9 8 8 7 5 5 6 8 8 8 9 11 13 17 19 21 23 25 25 26 26 28 28 30 30 29 29
1 1 3 8 8 2 3 7 4 2 3 5 6 7 9 11 12 11 10 11 11 11 11 9 9 10 10 10 11 13 14 15 17 20 22 24 25 27 28 28 27 26 26 26
4 3 3 9 5 4 5 5 2 1 3 5 7 8 9 10 11 12 12 12 12 13 13 14 15 15 12 11 11 11 12 13 15 16 18 20 22 23 24 24 25 25 25 26
2 4 6 7 5 4 4 3 2 3 3 5 6 8 8 9 10 11 12 13 12 11 12 14 16 17 16 14 18 13 13 16 15 17 20 22 22 24 26 27 28 28 29 30
8 7 7 7 6 5 4 4 5 5 6 8 10 11 11 11 13 12 11 12 13 13 13 14 15 16 17 18 18 20 20 18 13 20 24 26 27 29 31 33 34 35 36 36
6 8 10 8 8 7 7 6 7 8 10 11 11 11 12 13 15 16 16 16 16 16 17 18 19 19 20 20 20 21 20 24 29 28 26 26 23 21 28 34 37 39 40 40
7 7 9 10 9 9 9 9 10 11 12 13 13 13 14 14 14 15 16 17 19 21 22 23 24 23 23 23 23 25 25 26 26 27 29 31 31 30 25 26 23 21 27 30
6 7 7 7 7 8 9 9 10 10 10 12 12 14 15 16 16 17 18 20 21 22 24 25 26 27 27 28 28 27 26 25 26 25 28 33 35 32 29 27 27 29 30 29
4 4 6 6 6 6 7 7 9 10 11 13 15 16 18 19 21 21 22 23 24 26 27 28 29 28 28 29 30 31 31 30 30 29 31 30 33 38 33 29 27 28 30 31
4 5 5 6 6 6 7 8 10 12 14 16 17 18 20 21 22 22 23 25 26 26 27 27 27 26 26 26 25 26 27 29 31 31 30 31 31 32 33 30 28 29 28 29
5 5 5 5 6 7 8 10 12 14 16 17 18 19 20 22 23 23 24 25 26 25 25 25 24 24 24 25 27 29 30 30 30 30 31 31 31 31 33 35 33 31 31 31
9 7 7 8 8 9 10 12 14 16 18 19 19 20 22 23 24 24 25 25 25 24 24 25 25 24 24 24 25 26 26 26 25 25 25 26 28 30 31 33 35 35 32 32
12 11 10 10 9 10 12 14 15 17 19 20 21 22 23 24 24 24 24 24 23 23 23 23 22 23 24 25 25 25 24 24 24 24 25 25 25 27 29 30 32 32 33 28
15 14 13 12 11 13 14 16 18 19 20 22 22 24 24 24 24 24 24 23 23 23 23 24 25 26 25 24 24 25 25 25 25 24 24 24 23 23 24 25 25 25 23 23
16 15 15 14 14 15 17 18 20 21 22 23 23 24 24 24 24 24 24 24 24 24 26 25 25 25 25 26 26 25 24 23 24 24 24 23 23 23 23 25 27 27 26 24
16 15 16 16 16 18 19 19 21 23 23 23 23 24 24 24 24 24 24 24 25 25 26 25 25 25 25 25 24 24 24 23 23 23 22 23 24 24 24 25 25 26 28 29
16 15 16 16 17 18 19 21 22 24 24 24 23 23 23 24 24 23 23 25 25 26 26 25 26 26 25 25 25 25 23 22 21 21 22 24 23 21 21 23 21 20 19 22
14 15 17 17 17 18 20 22 23 24 24 23 22 22 23 22 23 22 23 24 24 25 25 25 27 27 26 25 24 23 23 24 25 26 25 25 25 23 23 22 24 22 21 21
14 16 17 17 18 19 21 23 24 24 24 23 23 23 24 24 24 24 26 26 26 26 26 27 28 27 26 25 25 24 24 24 24 25 24 22 23 23 21 21 20 18 16 14
16 16 16 17 18 21 22 23 24 24 24 24 24 25 26 27 27 27 27 27 27 28 28 28 26 25 24 23 23 23 24 24 24 24 23 21 21 21 20 18 15 14 13 12
16 17 17 18 20 22 23 23 23 24 25 25 25 27 29 30 30 30 29 28 28 28 28 27 25 24 23 22 22 23 24 24 24 23 22 21 20 18 18 15 14 14 13 12

GFSNGP_700_spd_120.txt.gz
Wind_Speed
12 15 19 25 27 27 29 23 21 17 21 18 23 26 28 28 29 30 31 38 38 36 33 28 26 24 21 17 16 17 24 25 24 19 19 20 19 21 19 18 19 19 20 21
7 10 16 23 22 19 18 21 18 18 22 18 20 20 24 26 27 28 31 25 28 29 30 32 26 22 18 18 15 18 17 16 16 14 13 12 12 15 18 21 21 23 24 23
2 7 6 9 17 14 19 21 14 19 12 16 20 19 22 25 25 26 26 23 22 21 17 13 14 17 14 11 12 13 14 13 14 12 11 12 13 15 17 19 20 22 22 20
3 5 3 1 8 12 12 15 15 14 14 15 19 21 20 21 20 19 20 18 16 15 13 10 8 9 11 9 7 5 6 6 12 14 10 11 11 15 16 19 19 20 23 23
3 7 6 3 3 5 8 10 10 11 12 12 15 15 16 18 18 17 15 13 13 12 10 7 4 3 3 5 7 11 13 14 14 10 13 14 11 13 14 15 16 19 20 21
4 2 3 3 5 3 4 6 6 7 8 8 7 11 17 17 16 15 14 12 9 6 5 4 3 1 4 7 9 10 11 14 16 16 17 19 19 20 20 20 21 22 23 25
2 3 0 3 5 6 2 2 2 4 6 8 8 12 14 14 13 13 12 10 9 7 4 2 3 4 5 6 7 10 14 17 18 19 21 22 24 25 26 27 30 29 28 29
3 2 2 6 7 2 3 5 3 4 6 8 10 11 11 11 10 11 11 10 9 8 6 6 6 8 9 12 13 13 13 15 17 20 22 25 25 27 27 29 30 32 33 34
5 5 5 11 5 5 5 4 2 3 6 8 9 11 11 11 11 10 9 8 8 7 6 5 6 8 9 10 13 16 17 18 17 17 20 22 24 26 28 29 31 33 34 34
3 4 5 8 6 5 5 3 2 1 3 4 6 9 9 10 12 13 14 13 12 9 8 8 9 8 8 10 12 12 13 15 18 22 23 23 24 25 26 27 29 30 31 31
6 7 8 7 6 4 2 1 1 2 4 7 9 9 9 9 11 12 13 14 15 15 16 16 15 14 13 12 13 14 15 17 21 20 21 26 28 29 30 30 32 34 35 35
4 5 6 5 4 3 3 3 4 5 7 8 10 10 11 11 12 12 13 14 16 17 18 19 20 21 21 21 19 18 18 19 20 21 24 25 24 25 27 26 30 36 42 42
1 2 2 5 4 4 4 5 6 7 7 8 8 10 11 12 13 14 15 16 18 19 20 20 22 22 23 24 25 25 25 24 23 23 24 26 28 28 27 27 29 30 34 31
3 3 3 3 3 3 3 4 5 5 6 8 9 11 12 13 14 15 17 19 21 21 23 24 25 27 27 27 26 26 26 27 27 26 26 28 29 30 31 29 30 31 33 34
5 5 5 4 4 3 3 3 4 6 8 10 12 12 14 15 16 18 19 21 22 23 25 26 27 28 28 28 27 26 24 24 23 24 25 26 28 29 30 32 33 34 35 34
5 5 5 4 3 3 4 5 6 8 10 12 14 15 16 17 18 19 21 22 23 25 26 27 27 27 27 26 26 26 27 27 28 28 27 28 29 29 30 31 32 35 35 36
5 5 4 4 4 5 5 7 9 10 12 15 16 17 18 19 21 21 22 23 24 25 26 26 26 26 26 26 26 26 26 26 26 26 26 26 25 26 27 28 29 30 32 34
10 8 8 7 7 7 8 9 10 12 15 17 19 20 22 22 23 23 24 25 24 25 26 25 25 25 24 24 26 27 27 27 26 25 26 25 25 26 26 27 27 27 29 30
12 12 11 10 10 10 11 11 12 14 17 19 21 22 23 24 25 25 25 25 25 25 25 25 25 25 25 26 28 28 26 25 26 26 26 26 25 25 24 25 25 25 25 24
17 15 14 13 13 14 14 14 15 17 19 21 23 24 25 26 26 26 26 26 27 26 25 26 26 27 27 28 28 27 26 27 25 24 24 24 25 24 23 23 23 24 24 25
19 18 18 16 16 16 16 17 18 19 20 22 24 25 26 26 26 26 26 25 27 27 26 26 27 28 28 28 28 27 26 25 25 25 24 23 21 19 20 21 22 24 26 28
19 19 19 18 17 18 18 18 20 21 22 24 25 26 26 25 25 25 26 25 26 26 25 26 27 28 29 29 27 26 26 27 26 25 23 22 21 22 25 23 21 21 22 22
20 20 19 18 18 18 19 19 19 21 23 25 26 26 25 25 25 24 24 26 26 25 25 25 27 27 28 28 27 26 27 27 26 25 25 26 27 25 24 25 25 25 25 24
17 17 18 18 18 19 20 20 20 22 24 26 26 26 25 24 25 26 26 26 26 27 27 27 28 29 30 29 27 27 27 26 26 26 26 26 26 25 25 24 24 25 24 23
16 17 18 18 19 20 20 20 21 24 25 26 26 25 25 26 26 26 28 29 30 30 29 29 29 30 30 28 27 27 26 25 24 25 25 25 25 25 24 23 23 22 21 19
16 17 18 19 19 20 20 20 23 26 26 25 24 25 26 27 28 29 30 31 31 31 31 30 31 31 30 27 27 25 24 23 23 24 24 24 24 24 22 21 21 20 17 15
17 18 19 19 19 20 21 22 24 26 26 25 24 27 28 29 30 31 32 32 32 31 31 31 31 30 29 27 25 22 19 18 19 21 22 23 24 23 21 20 19 18 16 16

GFSNGP_700_spd_123.txt.gz
Wind_Speed
20 20 22 24 20 21 27 20 18 22 27 28 31 33 34 42 38 46 42 45 47 39 36 28 28 19 15 11 18 20 21 23 27 27 23 19 18 20 22 22 19 24 45 44
10 12 17 24 23 15 19 17 19 20 26 25 25 26 30 39 42 44 40 43 40 34 32 30 29 27 24 24 22 22 23 22 19 20 17 12 14 24 21 20 22 24 26 31
3 5 3 11 16 14 14 16 16 20 17 21 24 25 29 31 33 33 35 35 32 32 32 27 25 24 22 22 22 19 19 20 11 11 9 8 12 14 18 22 23 23 24 21
3 2 5 3 7 9 11 10 12 14 15 19 21 22 24 27 26 26 29 28 28 25 22 20 17 14 15 16 17 19 16 16 16 14 12 11 11 13 14 15 15 17 19 25
3 10 8 5 3 2 4 8 10 11 13 13 16 12 20 24 24 25 23 23 22 21 19 17 14 12 9 7 5 4 4 7 13 17 17 16 17 15 14 16 17 18 20 18
3 2 2 4 7 4 3 4 6 7 8 10 14 14 21 22 21 20 19 18 17 15 13 12 11 9 6 4 3 3 4 7 8 9 11 17 18 15 16 17 19 20 20 21
0 1 1 4 8 7 2 3 4 5 7 9 8 13 15 16 15 17 16 15 15 13 11 9 7 5 3 2 1 3 6 9 10 13 15 16 17 19 20 23 23 26 25 25
4 3 3 8 10 7 4 10 6 3 3 5 7 11 12 12 12 13 12 13 13 12 11 9 7 4 2 3 5 7 10 12 13 15 17 19 20 21 24 26 27 30 30 30
6 4 3 9 6 4 5 6 4 3 3 5 8 9 9 9 10 10 10 10 9 8 8 8 6 5 4 3 3 5 7 11 14 17 18 20 23 24 24 25 29 32 33 34
7 8 7 10 8 6 6 6 4 3 3 3 5 6 6 5 5 6 6 7 6 6 7 7 7 8 10 11 12 11 11 12 13 14 16 19 23 27 27 27 27 29 31 32
9 11 12 13 12 11 10 8 5 4 2 1 3 4 5 6 6 6 6 5 4 3 2 3 4 5 8 10 12 13 15 17 18 20 20 22 24 25 25 27 30 30 31 32
5 9 7 10 10 9 7 5 3 1 1 3 4 5 5 6 7 10 12 12 11 10 10 10 10 10 11 11 12 14 16 18 19 21 23 24 24 26 27 29 29 27 30 32
5 7 10 9 8 7 6 4 2 1 1 3 5 6 7 10 12 14 15 17 18 18 19 17 18 19 20 20 17 15 16 17 19 22 24 26 28 30 30 30 29 28 28 31
5 6 7 6 5 5 4 2 1 1 2 3 5 6 8 10 12 13 15 17 19 21 23 25 25 26 26 26 25 25 23 21 20 21 22 24 26 29 31 33 33 32 33 32
6 7 7 6 6 5 4 3 1 2 4 6 8 10 12 13 14 16 17 17 19 20 22 23 24 25 26 27 27 27 26 25 24 24 24 23 24 26 28 30 32 33 34 34
8 8 8 8 7 7 5 4 3 3 5 7 9 12 14 16 17 18 19 20 21 22 23 25 25 25 26 26 26 27 26 26 25 25 24 24 25 25 25 26 27 30 32 33
9 9 9 8 8 7 6 5 4 4 6 8 10 12 14 17 19 21 22 23 24 25 26 26 26 27 27 27 27 27 27 27 27 26 25 24 24 24 24 24 25 27 28 29
13 12 11 10 9 7 6 6 6 7 9 10 12 15 16 19 21 22 24 24 25 27 27 27 27 27 27 27 27 27 28 29 28 26 25 25 24 24 23 24 25 26 27 28
15 13 12 10 10 9 10 10 11 11 12 13 15 17 19 20 22 24 24 25 26 27 29 28 28 27 27 27 27 28 28 27 26 25 25 24 22 23 24 24 24 25 25 24
20 17 16 15 14 14 14 14 14 15 16 17 18 20 21 22 23 24 24 25 26 27 27 27 26 26 27 27 27 28 28 27 26 25 25 24 24 23 22 18 17 19 21 22
20 20 19 18 18 17 16 17 17 17 18 19 20 21 22 23 24 24 25 25 28 26 26 26 26 26 26 27 28 28 28 27 25 26 26 26 26 24 22 22 24 24 21 21
21 21 21 21 20 20 19 19 19 19 20 21 21 22 23 24 25 25 26 25 26 26 26 27 27 27 28 28 28 29 28 26 26 28 27 27 26 25 26 27 28 26 25 25
21 22 23 23 22 21 21 21 19 20 22 21 22 22 23 24 25 25 26 26 26 27 27 27 28 29 30 29 30 30 28 27 28 29 27 27 26 26 26 26 26 26 26 25
19 20 23 23 22 21 22 21 21 22 22 22 23 23 24 25 25 26 25 26 27 27 28 29 30 30 30 30 30 29 27 27 28 27 25 24 24 24 24 25 25 25 23 24
19 21 22 21 21 22 22 22 22 22 22 23 24 25 26 25 23 26 27 28 30 31 31 32 31 31 30 30 30 29 27 26 26 25 24 23 23 23 23 24 24 23 22 22
21 20 20 22 23 22 22 23 23 23 22 22 25 26 26 26 26 27 28 30 31 32 32 31 31 31 31 30 29 28 27 26 25 23 21 19 18 19 21 22 23 22 21 21
24 24 22 21 21 22 23 22 23 24 23 23 25 26 26 27 28 29 30 30 31 32 32 32 32 32 30 29 29 27 25 24 21 18 16 16 18 22 25 24 23 21 20 19